[[{"header":{"parameterUnit":"m.s-1","parameterCategory":1,"la1":30.6,"la2":29.2853,"lo1":-89.7004,"lo2":-87.6739,"dy":0.0162,"dx":0.0183,"nx":112,"ny":82,"refTime":"2023-05-10T12:00:00:Z","depth":0,"parameterNumber":2,"parameterNumberName":"U-component_of_WINDS"},"data":[0.0,0.0,0.0,0.0,0.0,0.0,0.0,0.0,0.0,0.0,0.0,0.0,0.0,0.0,0.0,0.0,0.0,0.0,0.0,0.0,0.0,0.0,0.0,0.0,0.0,0.0,0.0,0.0,0.0,0.0,0.0,0.0,0.0,0.0,0.0,0.0,0.0,0.0,0.0,0.0,0.0,0.0,0.0,0.0,0.0,0.0,0.0,0.0,0.0,0.0,0.0,0.0,0.0,0.0,0.0,0.0,0.0,0.0,0.0,0.0,0.0,0.0,0.0,0.0,0.0,0.0,0.0,0.0,0.0,0.0,0.0,0.0,0.0,0.0,0.0,0.0,0.0,0.0,0.0,0.0,0.0,0.0,0.0,0.0,0.0,0.0,0.0,0.0,0.0,0.0,0.4395,0.3278,0.2531,0.1982,0.1662,0.1945,0.211,0.2069,0.0,0.0,0.0,0.0,0.0,0.0,0.0,0.0,0.0,0.0,0.0,0.0,0.0,0.0,0.0,0.0,0.0,0.0,0.0,0.0,0.0,0.0,0.0,0.0,0.0,0.0,0.0,0.0,0.0,0.0,0.0,0.0,0.0,0.0,0.0,0.0,0.0,0.0,0.0,0.0,0.0,0.0,0.0,0.0,0.0,0.0,0.0,0.0,0.0,0.0,0.0,0.0,0.0,0.0,0.0,0.0,0.0,0.0,0.0,0.0,0.0,0.0,0.0,0.0,0.0,0.0,0.0,0.0,0.0,0.0,0.0,0.0,0.0,0.0,0.0,0.0,0.0,0.0,0.0,0.0,0.0,0.0,0.0,0.0,0.0,0.0,0.0,0.0,0.0,0.0,0.0,0.0,0.0,0.0,0.0,0.0,0.0,0.0,0.0,0.0,0.0,0.0,0.0,0.0,0.5615,0.4088,0.3424,0.2864,0.2311,0.2259,0.2287,0.2328,0.0,0.0,0.0,0.0,0.0,0.0,0.0,0.0,0.0,0.0,0.0,0.0,0.0,0.0,0.0,0.0,0.0,0.0,0.0,0.0,0.0,0.0,0.0,0.0,0.0,0.0,0.0,0.0,0.0,0.0,0.0,0.0,0.0,0.0,0.0,0.0,0.0,0.0,0.0,0.0,0.0,0.0,0.0,0.0,0.0,0.0,0.0,0.0,0.0,0.0,0.0,0.0,0.0,0.0,0.0,0.0,0.0,0.0,0.0,0.0,0.0,0.0,0.0,0.0,0.0,0.0,0.0,0.0,0.0,0.0,0.0,0.0,0.0,0.0,0.0,0.0,0.0,0.0,0.0,0.0,0.0,0.0,0.0,0.0,0.0,0.0,0.0,0.0,0.0,0.0,0.0,0.0,0.0,0.0,0.0,0.0,0.0,0.0,0.0,0.0,0.0,0.0,0.0,0.7307,0.6499,0.5516,0.4725,0.398,0.3217,0.2971,0.2751,0.2528,0.2865,0.0,0.0,0.0,0.0,0.0,0.0,0.0,0.0,0.0,0.0,0.0,0.0,0.0,0.0,0.0,0.0,0.0,0.0,0.0,0.0,0.0,0.0,0.0,0.0,0.0,0.0,0.0,0.0,0.0,0.0,0.0,0.0,0.0,0.0,0.0,0.0,0.0,0.0,0.0,0.0,0.0,0.0,0.0,0.0,0.0,0.0,0.0,0.0,0.0,0.0,0.0,0.0,0.0,0.0,0.0,0.0,0.0,0.0,0.0,0.0,0.0,0.0,0.0,0.0,0.0,0.0,0.0,0.0,0.0,0.0,0.0,0.0,0.0,0.0,0.0,0.0,0.0,0.0,0.0,0.0,0.0,0.0,0.0,0.0,0.0,0.0,0.0,0.0,0.0,0.0,0.0,0.0,0.0,0.0,0.0,0.0,0.0,0.0,0.0,0.0,0.0,0.0,0.7655,0.7085,0.6528,0.5663,0.4746,0.3837,0.3491,0.3127,0.2685,0.3104,0.0,0.0,0.0,0.0,0.0,0.0,0.0,0.0,0.0,0.0,0.0,0.0,0.0,0.0,0.0,0.0,0.0,0.0,0.0,0.0,0.0,0.0,0.0,0.0,0.0,0.0,0.0,0.0,0.0,0.0,0.0,0.0,0.0,0.0,0.0,0.0,0.0,0.0,0.0,0.0,0.0,0.0,0.0,0.0,0.0,0.0,0.0,0.0,0.0,0.0,0.0,0.0,0.0,0.0,0.0,0.0,0.0,0.0,0.0,0.0,0.0,0.0,0.0,0.0,0.0,0.0,0.0,0.0,0.0,0.0,0.0,0.0,0.0,0.0,0.0,0.0,0.0,0.0,0.0,0.0,0.0,0.0,0.0,0.0,0.0,0.0,0.0,0.0,0.0,0.0,0.0,0.0,0.0,0.0,0.0,0.0,0.0,0.0,0.0,0.0,0.0,0.0,0.7676,0.7242,0.6404,0.5633,0.4758,0.3707,0.3482,0.3219,0.2813,0.3291,0.0,0.0,0.0,0.0,0.0,0.0,0.0,0.0,0.0,0.0,0.0,0.0,0.0,0.0,0.0,0.0,0.0,0.0,0.0,0.0,0.0,0.0,0.0,0.0,0.0,0.0,0.0,0.0,0.0,0.0,0.0,0.0,0.0,0.0,0.0,0.0,0.0,0.0,0.0,0.0,0.0,0.0,0.0,0.0,0.0,0.0,0.0,0.0,0.0,0.0,0.0,0.0,0.0,0.0,0.0,0.0,0.0,0.0,0.0,0.0,0.0,0.0,0.0,0.0,0.0,0.0,0.0,0.0,0.0,0.0,0.0,0.0,0.0,0.0,0.0,0.0,0.0,0.0,0.0,0.0,0.0,0.0,0.0,0.0,0.0,0.0,0.0,0.0,0.0,0.0,0.0,0.0,0.0,0.0,0.0,0.0,0.0,0.0,0.0,0.0,0.0,0.0,0.708,0.6823,0.6278,0.5513,0.461,0.3627,0.3385,0.3032,0.2458,0.0,0.0,0.0,0.0,0.0,0.0,0.0,0.0,0.0,0.0,0.0,0.0,0.0,0.0,0.0,0.0,0.0,0.0,0.0,0.0,0.0,0.0,0.0,0.0,0.0,0.0,0.0,0.0,0.0,0.0,0.0,0.0,0.0,0.0,0.0,0.0,0.0,0.0,0.0,0.0,0.0,0.0,0.0,0.0,0.0,0.0,0.0,0.0,0.0,0.0,0.0,0.0,0.0,0.0,0.0,0.0,0.0,0.0,0.0,0.0,0.0,0.0,0.0,0.0,0.0,0.0,0.0,0.0,0.0,0.0,0.0,0.0,0.0,0.0,0.0,0.0,0.0,0.0,0.0,0.0,0.0,0.0,0.0,0.0,0.0,0.0,0.0,0.0,0.0,0.0,0.0,0.0,0.0,0.0,0.0,0.0,0.0,0.0,0.0,0.0,0.0,0.0,0.6006,0.6143,0.6067,0.5623,0.5008,0.4247,0.335,0.3201,0.2961,0.2569,0.0,0.0,0.0,0.0,0.0,0.0,0.0,0.0,0.0,0.0,0.0,0.0,0.0,0.0,0.0,0.0,0.0,0.0,0.0,0.0,0.0,0.0,0.0,0.0,0.0,0.0,0.0,0.0,0.0,0.0,0.0,0.0,0.0,0.0,0.0,0.0,0.0,0.0,0.0,0.0,0.0,0.0,0.0,0.0,0.0,0.0,0.0,0.0,0.0,0.0,0.0,0.0,0.0,0.0,0.0,0.0,0.0,0.0,0.0,0.0,0.0,0.0,0.0,0.0,0.0,0.0,0.0,0.0,0.0,0.0,0.0,0.0,0.0,0.0,0.0,0.0,0.0,0.0,0.0,0.0,0.0,0.0,0.0,0.0,0.0,0.0,0.0,0.0,0.0,0.0,0.0,0.0,0.0,0.0,0.0,0.0,0.0,0.0,0.0,0.0,0.0,0.0,0.4575,0.4922,0.4917,0.4251,0.4055,0.3664,0.285,0.2913,0.3068,0.0,0.0,0.0,0.0,0.0,0.0,0.0,0.0,0.0,0.0,0.0,0.0,0.0,0.0,0.0,0.0,0.0,0.0,0.0,0.0,0.0,0.0,0.0,0.0,0.0,0.0,0.0,0.0,0.0,0.0,0.0,0.0,0.0,0.0,0.0,0.0,0.0,0.0,0.0,0.0,0.0,0.0,0.0,0.0,0.0,0.0,0.0,0.0,0.0,0.0,0.0,0.0,0.0,0.0,0.0,0.0,0.0,0.0,0.0,0.0,0.0,0.0,0.0,0.0,0.0,0.0,0.0,0.0,0.0,0.0,0.0,0.0,0.0,0.0,0.0,0.0,0.0,0.0,0.0,0.0,0.0,0.0,0.0,0.0,0.0,0.0,0.0,0.0,0.0,0.0,0.0,0.0,0.0,0.0,0.0,0.0,0.0,0.0,0.0,0.0,0.0,0.0,0.0,0.3159,0.3285,0.3264,0.2955,0.2798,0.2481,0.1863,0.1891,0.2124,0.256,0.0,0.0,0.0,0.0,0.0,0.0,0.0,0.0,0.0,0.0,0.0,0.0,0.0,0.0,0.0,0.0,0.0,0.0,0.0,0.0,0.0,0.0,0.0,0.0,0.0,0.0,0.0,0.0,0.0,0.0,0.0,0.0,0.0,0.0,0.0,0.0,0.0,0.0,0.0,0.0,0.0,0.0,0.0,0.0,0.0,0.0,0.0,0.0,0.0,0.0,0.0,0.0,0.0,0.0,0.0,0.0,0.0,0.0,0.0,0.0,0.0,0.0,0.0,0.0,0.0,0.0,0.0,0.0,0.0,0.0,0.0,0.0,0.0,0.0,0.0,0.0,0.0,0.0,0.0,0.0,0.0,0.0,0.0,0.0,0.0,0.0,0.0,0.0,0.0,0.0,0.0,0.0,0.0,0.0,0.0,0.0,0.0,0.0,0.0,0.0,0.0,0.0,0.1824,0.1887,0.1868,0.1733,0.166,0.1477,0.1078,0.1135,0.1214,0.1295,0.0,0.0,0.0,0.0,0.0,0.0,0.0,0.0,0.0,0.0,0.0,0.0,0.0,0.0,0.0,0.0,0.0,0.0,0.0,0.0,0.0,0.0,0.0,0.0,0.0,0.0,0.0,0.0,0.0,0.0,0.0,0.0,0.0,0.0,0.0,0.0,0.0,0.0,0.0,0.0,0.0,0.0,0.0,0.0,0.0,0.0,0.0,0.0,0.0,0.0,0.0,0.0,0.0,0.0,0.0,0.0,0.0,0.0,0.0,0.0,0.0,0.0,0.0,0.0,0.0,0.0,0.0,0.0,0.0,0.0,0.0,0.0,0.0,0.0,0.0,0.0,0.0,0.0,0.0,0.0,0.0,0.0,0.0,0.0,0.0,0.0,0.0,0.0,0.0,0.0,0.0,0.0,0.0,0.0,0.0,0.0,0.0,0.0,0.0,0.0,0.0,0.0,0.0505,0.0638,0.0674,0.0572,0.0643,0.0639,0.0423,0.051,0.0339,-0.0201,0.0,0.0,0.0,0.0,0.0,0.0,0.0,0.0,0.0,0.0,0.0,0.0,0.0,0.0,0.0,0.0,0.0,0.0,0.0,0.0,0.0,0.0,0.0,0.0,0.0,0.0,0.0,0.0,0.0,0.0,0.0,0.0,0.0,0.0,0.0,0.0,0.0,0.0,0.0,0.0,0.0,0.0,0.0,0.0,0.0,0.0,0.0,0.0,0.0,0.0,0.0,0.0,0.0,0.0,0.0,0.0,0.0,0.0,0.0,0.0,-3.5463,-3.363,0.0,0.0,0.0,0.0,0.0,0.0,0.0,0.0,0.0,0.0,0.0,0.0,0.0,0.0,0.0,0.0,0.0,0.0,0.0,0.0,0.0,0.0,0.0,0.0,0.0,0.0,0.0,0.0,0.0,0.0,0.0,0.0,0.0,0.0,0.0,0.0,0.0,0.0,0.0,0.0,-0.0645,-0.0571,-0.0514,-0.0489,-0.0173,-0.0052,-0.0198,-0.0277,-0.0379,-0.0507,-0.0793,0.0,0.0,0.0,0.0,0.0,0.0,0.0,0.0,0.0,0.0,0.0,0.0,0.0,0.0,0.0,0.0,0.0,0.0,0.0,0.0,0.0,0.0,0.0,0.0,0.0,0.0,0.0,0.0,0.0,0.0,0.0,0.0,0.0,0.0,0.0,0.0,0.0,0.0,0.0,0.0,0.0,0.0,0.0,0.0,0.0,0.0,0.0,0.0,0.0,0.0,0.0,0.0,0.0,0.0,0.0,0.0,0.0,0.0,0.0,-3.6054,-3.4991,0.0,0.0,0.0,0.0,0.0,0.0,0.0,0.0,0.0,0.0,0.0,0.0,0.0,0.0,0.0,0.0,0.0,0.0,0.0,0.0,0.0,0.0,0.0,0.0,0.0,0.0,0.0,0.0,0.0,0.0,0.0,0.0,0.0,0.0,0.0,0.0,0.0,0.0,0.0,0.0,-0.1474,-0.1621,-0.1633,-0.143,-0.1308,-0.1161,-0.1087,-0.1141,-0.1248,-0.1404,-0.1809,0.0,0.0,0.0,0.0,0.0,0.0,0.0,0.0,0.0,0.0,0.0,0.0,0.0,0.0,0.0,0.0,0.0,0.0,0.0,0.0,0.0,0.0,0.0,0.0,0.0,0.0,0.0,0.0,0.0,0.0,0.0,0.0,0.0,0.0,0.0,0.0,0.0,0.0,0.0,0.0,0.0,0.0,0.0,0.0,0.0,0.0,0.0,0.0,0.0,0.0,0.0,0.0,0.0,-2.3123,-2.4971,-2.7258,-3.0714,-3.2484,-3.2954,-3.4913,-3.4806,-3.3012,-3.0126,0.0,0.0,0.0,0.0,0.0,0.0,0.0,0.0,0.0,0.0,0.0,0.0,0.0,0.0,0.0,0.0,0.0,0.0,0.0,0.0,0.0,0.0,-0.6885,-0.6743,-0.7291,-0.7317,-0.5585,0.0,0.0,0.0,0.0,0.0,0.0,0.0,0.0,0.0,0.0,0.0,-0.2184,-0.2457,-0.2563,-0.2304,-0.2355,-0.2276,-0.1983,-0.1979,-0.2084,-0.2319,-0.2478,-0.2672,0.0,0.0,0.0,0.0,0.0,0.0,0.0,0.0,0.0,0.0,0.0,0.0,0.0,0.0,0.0,0.0,0.0,0.0,0.0,0.0,0.0,0.0,0.0,0.0,0.0,0.0,0.0,0.0,0.0,0.0,0.0,0.0,-2.0871,-2.0604,0.0,0.0,0.0,0.0,0.0,0.0,0.0,0.0,0.0,0.0,0.0,0.0,0.0,-2.311,-2.2638,-2.1203,-2.0749,-2.1126,-2.1616,-2.3231,-2.585,-2.8252,-3.0136,-3.1397,-3.0486,0.0,-3.1177,-2.9107,0.0,0.0,0.0,0.0,0.0,0.0,0.0,0.0,0.0,0.0,0.0,0.0,0.0,0.0,0.0,0.0,0.0,0.0,0.0,0.0,0.0,0.0,-0.7995,-0.8118,-0.8373,-0.8507,-0.8266,-0.6855,-0.5371,-0.4452,-0.411,-0.3791,0.0,0.0,0.0,0.0,0.0,0.0,-0.2802,-0.282,-0.2884,-0.2965,-0.2871,-0.2763,-0.2603,-0.2672,-0.2669,-0.2486,-0.2913,-0.3405,-0.3904,-0.404,0.0,0.0,0.0,0.0,0.0,0.0,0.0,0.0,0.0,0.0,0.0,0.0,0.0,0.0,0.0,0.0,0.0,0.0,0.0,0.0,0.0,0.0,0.0,0.0,0.0,0.0,0.0,0.0,0.0,-2.2155,-2.2076,-2.1197,-2.1337,-2.1356,0.0,0.0,0.0,0.0,0.0,0.0,0.0,0.0,0.0,-2.0459,-2.1152,-2.1318,-2.0842,-2.0133,-1.9949,-2.0178,-2.0845,-2.2004,-2.3622,-2.629,-2.7919,-2.861,-2.7585,-2.7724,-2.856,-2.7509,-2.5914,-2.3982,0.0,0.0,0.0,0.0,-1.7635,-1.6426,-1.5459,-1.4204,-1.278,-1.1308,0.0,0.0,0.0,0.0,0.0,0.0,0.0,-0.6806,-0.7088,-0.7785,-0.8472,-0.8623,-0.8768,-0.8786,-0.8625,-0.7888,-0.7018,-0.6,-0.5405,-0.4908,-0.43,-0.4016,0.0,0.0,0.0,-0.3628,-0.344,-0.3551,-0.3677,-0.3685,-0.3703,-0.3661,-0.3456,-0.3386,-0.3331,-0.3336,-0.3626,-0.3934,-0.4197,-0.4535,-0.4885,0.0,0.0,0.0,0.0,0.0,0.0,0.0,0.0,0.0,0.0,0.0,0.0,0.0,0.0,0.0,0.0,0.0,0.0,0.0,0.0,0.0,0.0,0.0,0.0,0.0,0.0,0.0,0.0,-2.3132,-2.2981,-2.1985,-2.2185,-2.218,0.0,0.0,0.0,0.0,0.0,0.0,-1.94,-1.9762,-1.9697,-1.9138,-1.961,-1.9698,-1.9222,-1.8977,-1.8955,-1.9198,-1.9864,-2.0533,-2.1292,-2.3831,-2.526,-2.571,-2.5171,-2.54,-2.6099,-2.5892,-2.4899,-2.3333,-2.1834,-2.0655,-1.9773,-1.8852,-1.7991,-1.7233,-1.6425,-1.5463,-1.4307,-1.2923,-1.1644,-1.0406,-0.8914,0.0,0.0,0.0,0.0,-0.8002,-0.8096,-0.845,-0.8852,-0.9007,-0.9016,-0.8887,-0.8645,-0.8548,-0.8133,-0.6998,-0.6408,-0.5868,-0.5292,-0.4862,0.0,-0.4185,-0.4221,-0.4228,-0.3959,-0.4146,-0.4302,-0.4226,-0.4324,-0.4341,-0.4069,-0.4008,-0.3961,-0.4018,-0.424,-0.446,-0.4683,-0.5007,-0.5371,-0.5753,0.0,0.0,0.0,0.0,0.0,0.0,0.0,0.0,0.0,0.0,0.0,0.0,0.0,0.0,0.0,0.0,0.0,0.0,0.0,0.0,0.0,0.0,0.0,0.0,0.0,0.0,0.0,0.0,0.0,-2.3654,-2.317,0.0,0.0,0.0,0.0,-2.0665,-2.0005,-1.9445,-1.9035,-1.8934,-1.8714,-1.8275,-1.8452,-1.8509,-1.8488,-1.769,-1.7653,-1.8373,-1.8216,-1.8461,-1.9078,-2.0312,-2.1725,-2.3149,-2.2932,-2.3391,-2.4276,-2.4505,-2.3717,-2.2266,-2.1367,-2.0175,-1.8891,-1.8257,-1.7641,-1.7022,-1.6339,-1.5453,-1.4566,-1.3839,-1.2507,-1.1043,-1.056,-0.9937,0.0,0.0,-0.9343,-0.9414,-0.9244,-0.9423,-0.947,-0.9361,-0.9306,-0.9187,-0.9021,-0.8836,-0.8296,-0.6953,-0.6789,-0.6591,-0.5791,0.0,-0.5374,-0.4831,-0.4673,-0.4511,-0.4299,-0.4359,-0.4396,-0.4473,-0.4504,-0.441,-0.4213,-0.4464,-0.4485,-0.4125,-0.4575,-0.5124,-0.5699,-0.5377,-0.55,-0.6158,-0.5834,0.0,0.0,0.0,0.0,0.0,0.0,0.0,0.0,0.0,0.0,0.0,0.0,0.0,0.0,0.0,0.0,0.0,0.0,0.0,0.0,0.0,0.0,0.0,0.0,0.0,0.0,0.0,0.0,-2.3866,-2.3928,0.0,-2.2318,-2.1687,-2.1259,-2.097,-2.0346,-1.9811,-1.9408,-1.9209,-1.8709,-1.8003,-1.8267,-1.7933,-1.7041,-1.7035,-1.7053,-1.7015,-1.7117,-1.7585,-1.8422,-1.9987,-2.1177,-2.2088,-2.2712,-2.3152,-2.3334,-2.301,-2.2566,-2.2019,-2.0996,-2.0152,-1.9395,-1.8488,-1.7932,-1.7523,-1.6721,-1.6011,-1.5286,-1.4241,-1.299,-1.1895,-1.1502,-1.1126,-1.0735,-1.0236,-1.0379,-1.0636,-1.0202,-1.0024,-0.9823,-0.9752,-0.9193,-0.8716,-0.8652,-0.8467,-0.8089,-0.7197,-0.6907,-0.6664,-0.6403,-0.5931,-0.5519,-0.5243,-0.5101,-0.4972,-0.4634,-0.4702,-0.472,-0.4713,-0.4763,-0.4822,-0.4829,-0.4785,-0.4704,-0.4629,-0.4783,-0.51,-0.5579,-0.5754,-0.6268,-0.7219,-0.6466,-0.6283,0.0,0.0,0.0,0.0,0.0,0.0,0.0,0.0,0.0,0.0,0.0,0.0,0.0,0.0,0.0,0.0,0.0,0.0,0.0,0.0,0.0,0.0,0.0,0.0,0.0,-2.6039,-2.5599,-2.4178,-2.4466,-2.423,-2.2736,-2.2091,-2.1674,-2.1532,-2.0772,-2.0143,-1.9649,-1.9318,-1.8666,-1.7716,-1.7836,-1.7375,-1.6317,-1.6575,-1.6497,-1.6197,-1.6441,-1.6951,-1.7652,-1.9044,-2.0116,-2.0961,-2.1773,-2.2305,-2.248,-2.1935,-2.1712,-2.1554,-2.0673,-2.0016,-1.9436,-1.859,-1.8061,-1.7579,-1.6637,-1.5941,-1.537,-1.4641,-1.3701,-1.2885,-1.2736,-1.2525,-1.2154,-1.1455,-1.1522,-1.1691,-1.1022,-1.0559,-1.0269,-0.9945,-0.9299,-0.8681,-0.8456,-0.834,-0.8134,-0.7516,-0.7099,-0.6852,-0.6797,-0.6185,-0.5764,-0.5768,-0.5619,-0.5404,-0.509,-0.5093,-0.5079,-0.5028,-0.5111,-0.5241,-0.5361,-0.5392,-0.5405,-0.5538,-0.5769,-0.6068,-0.6526,-0.6703,-0.7203,-0.8086,-0.6907,-0.6613,-0.7214,0.0,0.0,0.0,0.0,0.0,0.0,0.0,0.0,0.0,0.0,0.0,0.0,0.0,0.0,0.0,0.0,0.0,0.0,0.0,0.0,0.0,0.0,0.0,-2.6531,-2.6244,-2.5764,-2.4701,-2.4703,-2.4368,-2.3226,-2.2363,-2.1992,-2.2294,-2.125,-2.0299,-1.9655,-1.9202,-1.8462,-1.7339,-1.7083,-1.6749,-1.6373,-1.6107,-1.5985,-1.5962,-1.6175,-1.6411,-1.671,-1.7325,-1.8382,-1.9754,-1.9897,-2.0643,-2.167,-2.1313,-2.1082,-2.0885,-2.0385,-1.972,-1.8934,-1.8494,-1.7854,-1.711,-1.6077,-1.5264,-1.4805,-1.5042,-1.4518,-1.3918,-1.429,-1.4212,-1.3846,-1.3094,-1.2891,-1.2707,-1.1572,-1.1106,-1.0723,-0.9853,-0.9483,-0.9111,-0.8521,-0.8551,-0.8506,-0.795,-0.7517,-0.7255,-0.6946,-0.6433,-0.6181,-0.6371,-0.6208,0.0,-0.5679,-0.5622,-0.5558,-0.5455,-0.5499,-0.5577,-0.5739,-0.6198,-0.6578,-0.6802,-0.7448,-0.8043,-0.8555,-0.8216,-0.8223,-0.8662,-0.7152,-0.6348,-0.6279,0.0,0.0,0.0,0.0,0.0,0.0,0.0,0.0,0.0,0.0,0.0,0.0,0.0,0.0,0.0,0.0,0.0,0.0,0.0,0.0,0.0,-2.7998,-2.7604,-2.7128,-2.6755,-2.6063,-2.4868,-2.4885,-2.4456,-2.3154,-2.2416,-2.2042,-2.2022,-2.0861,-2.0053,-1.9751,-1.9145,-1.8459,-1.775,-1.7497,-1.6978,-1.6276,-1.603,-1.5764,-1.551,-1.5539,-1.578,-1.6219,-1.6923,-1.7574,-1.8252,-1.9053,-1.9586,-1.9947,-2.0328,-2.0359,-2.0105,-2.008,-1.9772,-1.9356,-1.8602,-1.7678,-1.6694,-1.6056,-1.5684,-1.5491,-1.5515,-1.5283,-1.5078,-1.5155,-1.4998,-1.4691,-1.4153,-1.3839,-1.3505,-1.2711,-1.1909,-1.1126,-1.0517,-0.9668,-0.9,-0.8713,-0.8551,-0.8355,-0.8017,-0.7938,-0.7739,-0.7206,-0.6621,-0.6306,-0.6542,-0.6374,-0.625,-0.6142,-0.6077,-0.6043,-0.5994,-0.598,-0.6136,-0.638,-0.6706,-0.6956,-0.7136,-0.7525,-0.785,-0.814,-0.8398,-0.8456,-0.834,-0.8153,-0.7348,0.0,0.0,0.0,0.0,0.0,0.0,0.0,0.0,0.0,0.0,0.0,0.0,0.0,0.0,0.0,0.0,0.0,0.0,0.0,0.0,0.0,0.0,-2.7617,-2.7298,-2.6678,-2.6506,-2.6063,-2.5222,-2.4873,-2.4302,-2.336,-2.2579,-2.1927,-2.1555,-2.0603,-1.9779,-1.9199,-1.8695,-1.8138,-1.741,-1.726,-1.6837,-1.6099,-1.5961,-1.5637,-1.521,-1.5255,-1.5435,-1.5748,-1.6296,-1.6765,-1.7272,-1.7922,-1.8507,-1.8896,-1.9309,-1.9534,-1.9759,0.0,0.0,0.0,0.0,-1.7634,-1.6828,-1.656,-1.6396,-1.6233,-1.6459,-1.6281,-1.6071,-1.6191,-1.6019,-1.5708,-1.4959,-1.4651,-1.4347,-1.3439,-1.2596,-1.1797,-1.1112,-1.0236,-0.9533,-0.916,-0.8939,-0.8704,-0.836,-0.8224,0.0,-0.7715,-0.7116,-0.6782,-0.6962,-0.6884,-0.6839,-0.6705,-0.6762,-0.677,-0.6789,-0.6908,-0.7128,-0.7521,-0.7896,0.0,0.0,0.0,-0.887,-0.8755,-0.9073,0.0,0.0,0.0,-0.7407,-0.6011,-0.5363,0.0,0.0,-0.1351,0.0548,0.0,0.0,0.0,0.0,0.0,0.0,0.0,0.0,0.0,0.0,0.0,0.0,0.0,0.0,0.0,0.0,-2.7117,-2.6713,-2.5778,-2.5706,-2.563,-2.5357,-2.4633,-2.3986,-2.3531,-2.2678,-2.1784,-2.1076,-2.0303,-1.941,-1.8372,-1.803,0.0,0.0,0.0,-1.6429,-1.5988,-1.5824,-1.5558,-1.5108,-1.521,-1.5267,-1.5267,-1.5492,-1.5921,-1.6534,-1.6652,-1.7291,-1.8148,-1.8258,-1.8751,-1.9565,-1.9823,-1.9617,-1.9081,-1.8278,-1.7755,-1.7389,-1.7408,0.0,0.0,-1.7466,-1.7363,-1.7007,-1.7182,-1.7138,-1.6776,-1.5715,-1.5427,-1.5153,-1.3973,-1.315,-1.2485,-1.1774,-1.1087,-1.0398,-0.9809,-0.9501,-0.9212,-0.881,-0.8531,-0.8379,-0.8306,-0.7716,-0.7374,-0.7563,-0.7588,-0.7522,-0.7361,-0.7611,-0.7772,-0.7695,-0.7956,0.0,-0.8702,-0.9252,-0.981,-1.0273,-1.0428,-1.0376,-0.9925,-0.9956,-0.9583,-0.8658,-0.7849,-0.7072,-0.6305,-0.4861,-0.3501,-0.2267,-0.1225,0.0339,0.0,0.0,0.0,0.0,0.0,0.0,0.0,0.0,0.0,0.0,0.0,0.0,0.0,0.0,0.0,-2.7814,-2.7298,-2.6646,-2.5619,-2.4839,-2.4275,-2.3974,-2.3991,-2.3712,-2.2955,-2.2377,-2.1837,-2.1126,-1.9859,-1.8884,-1.8345,-1.7295,-1.679,-1.6876,-1.6262,-1.5973,-1.5988,-1.5691,-1.5379,-1.5108,-1.4949,0.0,-1.496,-1.4994,-1.5085,-1.5257,-1.5635,-1.6112,-1.6694,-1.7312,-1.8154,-1.8999,-1.9368,-1.9408,-1.9133,-1.8667,-1.8224,-1.7954,-1.7906,-1.7922,-1.7903,-1.7877,-1.7965,-1.8131,-1.7745,-1.743,0.0,-1.6709,-1.6175,-1.5572,-1.4999,-1.3993,-1.3013,-1.2691,-1.1827,-1.093,-1.0362,-0.9963,-0.9586,-0.9144,-0.895,-0.8915,-0.8726,-0.7984,-0.7623,-0.7979,-0.8075,-0.8111,-0.8165,-0.8536,-0.8698,-0.843,-0.8665,-0.8851,-0.8919,-0.9406,-0.9819,-1.0137,-1.0213,-1.0345,-1.0502,-1.0185,-0.9649,-0.8922,-0.8586,-0.7731,-0.6307,-0.5447,-0.4284,-0.2793,-0.1172,0.0455,0.0,0.0,0.0,0.0,0.0,0.0,0.0,0.0,0.0,0.0,0.0,-3.0309,0.0,0.0,-2.8593,-2.7523,-2.6894,-2.6149,-2.4713,-2.3912,-2.3624,-2.3894,-2.3418,-2.2937,-2.2636,-2.2056,-2.1238,-2.0192,-1.9436,-1.8648,-1.7879,-1.7272,-1.6993,-1.7031,-1.6635,-1.6372,-1.625,-1.5869,-1.5468,-1.5108,-1.4937,-1.48,-1.4743,-1.4765,-1.4857,-1.4926,-1.5058,-1.5598,-1.6379,-1.7345,-1.8016,-1.8476,-1.8946,-1.9105,-1.9081,-1.8922,-1.859,-1.8274,-1.8656,-1.8445,-1.8119,-1.8754,-1.8733,-1.8436,-1.8392,-1.8056,-1.7657,-1.7373,-1.6881,-1.6394,-1.5912,-1.5134,-1.4292,-1.3513,-1.2742,-1.1945,-1.1032,-1.0621,-1.0242,-0.9904,-0.9676,-0.9526,-0.9445,-0.8914,-0.8463,-0.8443,-0.8595,-0.8686,-0.8672,-0.9178,-0.9391,-0.905,-0.9275,-0.9548,-0.9725,-1.0278,-1.0578,-1.0585,-1.0705,-1.0638,-1.0396,-1.015,-0.9765,-0.9151,-0.8613,-0.7829,-0.6734,-0.5707,-0.4518,-0.3155,-0.1641,-0.0123,0.0,0.0,0.0,0.0,0.0,0.0,0.0,0.0,-3.3699,-3.2479,-3.1426,-3.0536,-3.0007,-2.9281,-2.842,-2.7139,-2.6557,-2.5651,-2.4016,-2.3298,-2.3228,-2.3814,-2.2727,-2.2051,-2.2204,-2.1626,-2.0603,-1.9114,-1.9074,-1.8618,-1.747,-1.7354,-1.7287,-1.7199,-1.6928,-1.6676,-1.6423,-1.6013,-1.5525,-1.5028,-1.4915,-1.4789,-1.4627,-1.4684,-1.48,-1.4915,-1.4912,-1.5407,-1.6243,-1.7364,-1.7838,-1.7947,-1.8536,-1.8839,-1.8999,-1.9133,-1.8922,-1.8635,-1.9356,-1.8951,-1.8313,-1.9487,-1.9286,-1.8689,-1.8996,-1.8731,-1.8134,-1.792,-1.7579,-1.7166,-1.6621,-1.614,-1.5521,-1.4391,-1.3747,-1.3011,-1.1874,-1.1383,-1.1034,-1.0778,-1.0438,-1.019,-1.0221,-0.9979,-0.9524,-0.8882,-0.9112,-0.9274,-0.9138,-0.968,-0.9931,-0.9571,-0.9789,-1.0087,-1.0443,-1.1074,-1.1396,-1.1234,-1.1289,-1.1003,-1.0397,-1.0225,-0.9897,-0.9403,-0.8546,-0.7811,-0.7161,-0.5872,-0.4666,-0.3496,-0.228,-0.0817,-4.1492,-4.0745,-4.0271,-4.0036,-3.9058,-3.806,0.0,0.0,-3.4571,-3.416,-3.2493,-3.1057,-3.095,-2.975,-2.8407,-2.7317,-2.6609,-2.5651,-2.4155,-2.3426,-2.2835,-2.2476,-2.1861,-2.1389,-2.1166,-2.1016,-2.0322,-1.8869,-1.8983,-1.8618,-1.747,-1.7023,-1.6943,-1.7186,-1.6486,-1.609,-1.6076,-1.5836,-1.5402,-1.4822,-1.4822,-1.4776,-1.4776,-1.4534,-1.4605,-1.4937,-1.5129,-1.53,-1.5515,-1.6502,-1.7008,-1.719,-1.8223,-1.8774,-1.8999,-1.917,-1.9223,-1.9283,-1.944,-1.9282,-1.9091,-1.9649,-1.9577,-1.9316,-1.9304,-1.9121,-1.8865,-1.8405,-1.792,-1.7569,-1.7166,-1.6419,-1.5694,-1.5362,-1.4514,-1.3557,-1.305,-1.2387,-1.1754,-1.1284,-1.1073,-1.0892,-1.0834,-1.0869,-1.0521,-0.9319,-0.9516,-0.9747,-0.9666,-1.0271,-1.053,-1.0064,-1.0082,-1.0187,-1.0502,-1.1023,-1.141,-1.1616,-1.1441,-1.1293,-1.1324,-1.0646,-1.0083,-0.9648,-0.8972,-0.8103,-0.7033,-0.6213,-0.5148,-0.3897,-0.265,-0.1155,-4.204,-4.1223,-4.0679,0.0,-3.9621,-3.8656,-3.7855,-3.6783,-3.553,-3.412,-3.2745,-3.1589,-3.0668,-2.9743,-2.8614,0.0,-2.6479,-2.5584,-2.408,-2.3244,-2.2725,-2.2641,-2.1559,-2.0827,-2.0713,-2.0717,-2.0117,-1.8563,-1.8878,-1.8618,-1.7527,-1.7397,-1.737,-1.7393,-1.6855,-1.6468,-1.6293,-1.5824,-1.539,-1.4994,-1.4765,-1.4627,-1.4581,-1.4477,-1.4512,-1.4776,-1.528,-1.5612,-1.5886,-1.6692,-1.7258,-1.7679,-1.837,-1.8774,-1.904,-1.9316,-1.942,-1.9491,-2.0072,-1.9764,-1.9228,-1.9897,-1.9594,-1.9018,-1.9296,-1.9071,-1.8678,-1.8603,-1.8337,-1.7988,-1.7569,-1.7173,-1.6751,-1.6005,-1.5219,-1.4368,-1.3583,-1.2813,-1.2288,-1.2212,-1.1864,-1.1643,-1.1615,-1.1495,-1.11,-1.0293,-1.0279,-1.0251,-1.0053,-1.04,-1.0616,-1.0382,-1.0424,-1.0457,-1.0478,-1.0972,-1.1326,-1.1477,-1.1527,-1.1477,-1.1386,-1.0822,-1.0326,-0.9931,-0.9113,-0.8318,-0.758,-0.67,-0.5687,-0.4561,-0.3345,-0.1992,-4.2362,-4.1443,0.0,-4.0584,-3.9802,-3.8908,-3.8074,-3.7286,-3.6308,-3.4789,-3.3345,-3.2064,-3.1011,-2.9973,-2.8837,-2.7373,-2.6585,-2.5704,-2.4346,-2.3406,-2.2896,-2.2969,-2.1965,-2.1073,-2.0598,-2.0459,-1.9861,-1.8637,-1.8877,-1.8671,-1.7726,-1.7828,-1.7788,-1.757,-1.7214,-1.6879,-1.6552,-1.5913,-1.5424,-1.5165,-1.4811,-1.4581,-1.4523,-1.4512,-1.4605,-1.4776,-1.5276,-1.5686,-1.5962,-1.6508,-1.7122,-1.7748,-1.8142,-1.8602,-1.904,-1.9408,-1.946,-1.9478,-2.0165,-1.9929,-1.9409,-2.0145,-1.9761,-1.9039,-1.9544,-1.9211,-1.8635,-1.8818,-1.8607,-1.8269,-1.7842,-1.7647,-1.7406,-1.6309,-1.5578,-1.4927,-1.3971,-1.3235,-1.2805,-1.2981,-1.2613,-1.235,-1.2338,-1.2178,-1.1814,-1.1414,-1.1104,-1.079,-1.0501,-1.0543,-1.0535,-1.0523,-1.0617,-1.0667,-1.0624,-1.1074,-1.1377,-1.1477,-1.1678,-1.1751,-1.1568,-1.1205,-1.0803,-1.0272,-0.94,-0.861,-0.7848,-0.6963,-0.6007,-0.4988,-0.3894,-0.2668,-4.216,0.0,-4.0315,-4.0315,-3.955,-3.875,-3.86,-3.7681,-3.6908,-3.7077,-3.4649,-3.2542,-3.2687,-3.0882,-2.899,-2.8085,-2.7053,-2.5972,-2.5088,-2.4154,-2.3437,-2.3138,-2.304,-2.2412,0.0,-2.0196,-1.9648,-1.923,-1.911,-1.8811,-1.8222,-1.8015,-1.7842,-1.7679,-1.7378,-1.7018,-1.671,-1.6088,-1.5614,-1.5312,-1.496,-1.4776,-1.4776,-1.488,-1.496,-1.5108,-1.5131,-1.5142,-1.5143,-1.5504,-1.6075,-1.68,-1.7387,-1.8189,-1.904,-1.9316,-1.942,-1.942,-1.9405,-1.9575,-1.9865,-2.0177,-1.9983,-1.9684,-2.0374,-1.9843,-1.9073,-1.9073,-1.8808,-1.8337,-1.7842,-1.7588,-1.722,-1.6057,-1.553,-1.5018,-1.4432,-1.3749,-1.3302,-1.345,-1.3216,-1.2981,-1.2972,-1.2964,-1.2841,-1.248,-1.1996,-1.1423,-1.0857,-1.0594,-1.0508,-1.0593,-1.0669,-1.0769,-1.0871,-1.1276,-1.1628,-1.1877,-1.2026,-1.2126,-1.2264,-1.2016,-1.1463,-1.0597,-0.9978,-0.8954,-0.7516,-0.6965,-0.6112,-0.4995,-0.4033,-0.2929,-4.3124,0.0,-4.0875,-4.0664,-3.9633,-3.8583,-3.8359,-3.7882,-3.7211,-3.5938,-3.4611,-3.3305,-3.187,-3.0722,-2.961,-2.8605,-2.7899,-2.6979,-2.574,-2.4958,-2.4411,-2.4125,-2.3051,0.0,0.0,0.0,0.0,-1.9046,-1.9233,-1.9094,-1.8232,-1.835,-1.8206,-1.7733,-1.7488,-1.724,-1.682,-1.6219,-1.578,-1.5513,-1.5062,-1.48,-1.4673,-1.4823,-1.4903,-1.496,-1.5165,-1.5441,-1.5893,-1.6346,-1.6869,-1.7494,-1.8125,-1.859,-1.8905,-1.9263,-1.9328,-1.9324,-1.9785,-2.0153,-2.0402,-2.0226,-1.9925,-1.9709,-2.0025,-1.9445,-1.873,-1.8989,-1.8741,-1.8269,-1.7842,-1.7588,-1.7364,-1.6862,-1.6108,-1.5459,-1.5131,-1.4214,-1.3459,-1.364,-1.3224,-1.2981,-1.3277,-1.3164,-1.3061,-1.3169,-1.2538,-1.1849,-1.1162,-1.1138,-1.1265,-1.1486,-1.1121,-1.1021,-1.1471,-1.1422,-1.1528,-1.1877,-1.1778,-1.1778,-1.2026,-1.17,-1.1284,-1.0813,-0.9995,-0.9085,-0.8184,-0.7249,-0.6349,-0.5437,-0.4395,-0.3337,-4.4015,-4.2894,-4.1606,-4.0864,-3.9738,-3.8667,-3.8123,-3.7751,-3.7074,-3.5713,-3.4632,-3.3508,-3.193,-3.0998,-3.0182,-2.9252,-2.8633,-2.785,-2.6693,-2.5815,-2.5117,-2.4864,-2.355,-2.2596,0.0,0.0,0.0,-1.9359,-1.9528,-1.9391,-1.8715,-1.8692,-1.8475,-1.8084,-1.7932,-1.7659,-1.7115,-1.6753,-1.6227,-1.5546,-1.5142,-1.4915,-1.48,-1.4915,-1.5006,-1.5142,-1.5345,-1.5668,-1.6067,-1.6574,-1.7093,-1.7662,-1.8298,-1.8672,-1.8958,-1.9275,-1.9368,-1.9417,-1.9773,-2.0196,-2.0479,-2.0127,-1.9841,-1.9703,-1.9746,-1.9232,-1.8606,-1.8868,-1.8685,-1.8269,-1.792,-1.7657,-1.7354,-1.698,-1.6232,-1.5588,-1.5314,-1.4391,-1.37,-1.3959,-1.3467,-1.3155,-1.364,-1.3528,-1.3476,-1.3679,-1.3338,-1.2805,-1.2051,-1.1848,-1.1881,-1.2125,-1.1552,-1.1368,-1.1824,-1.1541,-1.1469,-1.1877,-1.1669,-1.1628,-1.1769,-1.1634,-1.1277,-1.0514,-0.9945,-0.912,-0.8091,-0.7249,-0.6392,-0.5524,-0.4618,-0.3602,-4.4735,-4.3702,-4.2496,-4.0853,-3.9828,-3.8942,-3.7987,-3.7154,-3.653,-3.6327,-3.4727,-3.3269,0.0,0.0,-3.0584,-2.9889,-2.9177,-2.8493,-2.7851,-2.6613,-2.5633,0.0,0.0,0.0,0.0,0.0,0.0,-2.0118,-1.9907,-1.9791,-1.962,-1.9038,-1.8717,-1.8733,-1.865,-1.8283,-1.7568,-1.7596,-1.6908,-1.5549,-1.5255,-1.5108,-1.5108,-1.5142,-1.5267,-1.5513,-1.565,-1.5751,-1.5799,-1.6218,-1.6729,-1.724,-1.7826,-1.8506,-1.9186,-1.9368,-1.946,-1.9565,-1.942,-1.967,-1.997,-1.9836,-1.9682,-1.9622,-1.961,-1.9227,-1.8774,-1.867,-1.8547,-1.8414,-1.8076,-1.7735,-1.7298,-1.6538,-1.5935,-1.5414,-1.5024,-1.4381,-1.3976,-1.4207,-1.389,-1.3631,-1.395,-1.413,-1.4232,-1.4166,-1.4396,-1.4222,-1.3425,-1.267,-1.231,-1.2514,-1.1994,-1.1718,-1.2,-1.1593,-1.1477,-1.1877,-1.1769,-1.1619,-1.1528,-1.1877,-1.1354,-0.9844,-0.9889,-0.9088,-0.744,-0.6963,-0.6221,-0.5303,-0.4666,-0.3785,-4.4297,-4.3311,-4.2106,-4.0427,-3.9304,-3.8296,-3.6798,-3.633,-3.5849,-3.4628,-3.3919,-3.3023,0.0,0.0,0.0,-2.9633,-2.9505,0.0,-2.8427,-2.7418,0.0,-2.604,0.0,-2.3672,-2.2898,-2.2339,0.0,-2.0524,-2.0369,-2.0208,-1.9921,-1.998,-1.9845,-1.9483,-1.9024,-1.8787,-1.8676,-1.7862,-1.7107,-1.6414,-1.5882,-1.548,-1.5278,-1.5753,-1.581,-1.5537,-1.6006,-1.6276,-1.6392,-1.6524,-1.6883,-1.7411,-1.8027,-1.8418,-1.8651,-1.9221,-1.942,-1.9473,-1.942,-1.9724,-2.0068,-1.9713,-1.9614,-1.9693,-2.0061,-1.9508,-1.8851,-1.9254,-1.8859,-1.8269,-1.7852,-1.7666,-1.7373,-1.684,-1.6508,-1.6169,-1.5625,-1.5096,-1.4671,-1.4381,-1.4207,-1.4079,-1.413,-1.4497,-1.4815,-1.4935,-1.4953,-1.473,-1.399,-1.3188,-1.2879,-1.3257,-1.2244,-1.1739,-1.2236,-1.1849,-1.1728,-1.2026,-1.1728,-1.1528,-1.1528,-1.1528,-1.0995,-0.9955,-0.9947,-0.9268,-0.7764,-0.7311,-0.6493,-0.5443,-0.4666,-0.3829,-4.4642,-4.3897,-4.2768,-4.048,-3.9436,-3.8462,-3.6479,-3.5677,-3.5089,-3.3945,-3.3039,0.0,-3.1171,-3.0709,0.0,0.0,0.0,0.0,-2.8974,-2.7889,-2.7033,0.0,-2.5236,0.0,-2.319,-2.2642,-2.2083,0.0,-2.0943,-2.0568,-2.0276,-2.0348,-2.03,-2.0112,-1.9802,-1.9418,-1.9048,-1.7804,-1.6954,-1.6573,-1.607,-1.5823,-1.5879,-1.622,-1.6315,-1.6278,-1.6536,-1.6664,-1.6711,-1.6757,-1.7131,-1.7618,-1.8239,-1.8694,-1.899,-1.9297,-1.9473,-1.9565,-1.9512,-1.9658,-1.9863,-1.9486,-1.9335,-1.938,-1.9727,-1.9451,-1.9083,-1.9286,-1.8986,-1.8472,-1.8124,-1.7803,-1.747,-1.7185,-1.6868,-1.6505,-1.6085,-1.5707,-1.5293,-1.4662,-1.4565,-1.4616,-1.4556,-1.4852,-1.5147,-1.5449,-1.5449,-1.5293,-1.4859,-1.4017,-1.3586,-1.3968,-1.2789,-1.2198,-1.276,-1.216,-1.1877,-1.1977,-1.1728,-1.1528,-1.1318,-1.1326,-1.0847,-0.9856,-0.9848,-0.9192,-0.7891,-0.7438,-0.6663,-0.5553,-0.4921,-0.4049,-4.5212,-4.4721,-4.3698,-4.0766,-3.9736,-3.8731,-3.6326,-3.5015,-3.4156,-3.3491,0.0,-3.0975,-3.0937,-3.015,-2.9565,-2.9405,0.0,-2.9399,-2.9344,-2.8163,-2.7189,-2.695,-2.5796,-2.4626,-2.3511,-2.3283,-2.3013,-2.2468,-2.1629,-2.1059,-2.0828,-2.0611,-2.0563,-2.0726,-2.0609,-2.0147,-1.916,-1.7808,-1.6964,-1.6604,-1.6118,-1.6158,-1.6676,-1.6632,-1.6871,-1.7255,-1.7296,-1.7159,-1.7027,-1.7189,-1.7511,-1.8006,-1.8425,-1.8993,-1.9556,-1.9488,-1.9617,-1.9811,-1.9708,-1.9656,-1.9617,-1.9328,-1.9158,-1.9095,-1.9253,-1.9345,-1.9351,-1.9291,-1.9091,-1.8808,-1.8539,-1.8076,-1.7608,-1.7539,-1.7118,-1.6702,-1.6388,-1.6179,-1.5815,-1.5175,-1.506,-1.5096,-1.5048,-1.5147,-1.5381,-1.5798,-1.5798,-1.5672,-1.5672,-1.483,-1.4297,-1.4468,-1.347,-1.2883,-1.324,-1.2459,-1.1981,-1.1877,-1.1778,-1.1528,-1.1124,-1.1167,-1.0748,-0.966,-0.9611,-0.9018,-0.7889,-0.7452,-0.6724,-0.5697,-0.5184,-0.4303,-4.4927,-4.4372,-4.3365,-4.0436,-3.8983,-3.7623,-3.5105,-3.3456,0.0,0.0,-3.0637,-2.994,-2.9446,-2.9478,-2.9223,-2.832,0.0,0.0,0.0,0.0,-2.7426,0.0,0.0,0.0,0.0,-2.4336,0.0,0.0,-2.28,-2.2414,-2.188,-2.1897,-2.1545,-2.0753,-2.0969,-2.0703,-1.9845,-1.8825,-1.8168,-1.7865,-1.686,-1.6635,-1.709,-1.7654,-1.7747,-1.7513,-1.8425,-1.8526,-1.805,-1.8016,-1.8342,-1.8808,-1.8759,-1.8946,-1.932,-1.9635,-1.9811,-1.9978,-1.9939,-1.9914,-1.9901,-1.9604,-1.946,-1.9446,-2.0085,-1.9971,-1.9826,-2.0191,-1.9727,-1.8931,-1.8586,-1.8327,-1.8076,-1.7608,-1.7609,-1.7533,-1.6711,-1.6253,-1.5907,-1.5671,-1.559,-1.5428,-1.5214,-1.5254,-1.542,-1.5672,-1.573,-1.5672,-1.5672,-1.5229,-1.4861,-1.4601,-1.3929,-1.3377,-1.301,-1.2645,-1.2271,-1.1895,-1.1669,-1.1427,-1.1124,-1.1023,-1.0597,-0.9758,-0.9653,-0.9059,-0.7916,-0.7585,-0.6893,-0.5766,-0.5149,-0.4343,-4.4741,-4.417,-4.3297,-4.0436,-3.8827,-3.7374,-3.4935,0.0,0.0,0.0,-3.0013,-2.9355,-2.8958,0.0,0.0,0.0,0.0,0.0,0.0,0.0,0.0,0.0,0.0,0.0,0.0,-2.4716,-2.4484,-2.3982,-2.3689,-2.311,-2.2156,-2.2056,-2.1766,-2.1205,-2.1117,-2.0732,-2.0133,-1.9291,-1.8681,-1.8308,-1.7731,-1.7723,-1.8134,-1.8528,-1.875,-1.8811,-1.932,-1.933,-1.8939,-1.881,-1.9016,-1.941,-1.9326,-1.9554,-1.9935,-2.0054,-2.022,-2.0271,-2.0233,-2.0271,-2.0295,-2.0156,-1.9914,-1.9713,-2.0103,-2.0141,-2.0099,-2.0353,-2.0039,-1.9518,-1.9044,-1.8586,-1.8202,-1.7872,-1.7666,-1.7531,-1.7254,-1.6694,-1.6216,-1.6046,-1.579,-1.5514,-1.5164,-1.5147,-1.5254,-1.5488,-1.5546,-1.5546,-1.5546,-1.5541,-1.5412,-1.5184,-1.4421,-1.384,-1.3595,-1.3105,-1.2651,-1.2252,-1.1828,-1.1528,-1.1427,-1.1175,-1.0738,-1.0174,-1.0023,-0.9471,-0.8403,-0.8061,-0.7276,-0.6196,-0.5494,-0.4652,-4.4485,-4.3949,-4.3214,-4.0373,-3.8716,-3.7203,-3.4979,-3.3358,0.0,0.0,-2.9633,-2.8853,-2.8756,0.0,-2.7616,0.0,-2.8051,0.0,0.0,0.0,0.0,0.0,0.0,0.0,0.0,-2.5071,0.0,-2.4789,-2.4354,-2.3595,-2.2409,-2.1964,-2.1698,-2.1664,-2.1244,-2.0825,-2.0448,-1.9661,-1.9034,-1.8686,-1.8571,-1.8719,-1.9106,-1.9162,-1.9425,-1.9872,-1.993,-1.9803,-1.9659,-1.9615,-1.9787,-2.0088,-1.9991,-2.0267,-2.0673,-2.0573,-2.0623,-2.0709,-2.0623,-2.0709,-2.0809,-2.0709,-2.0359,-1.9963,-2.0114,-2.029,-2.0462,-2.0433,-2.0306,-2.0031,-1.9507,-1.8921,-1.8405,-1.8144,-1.7657,-1.7314,-1.7579,-1.7109,-1.6599,-1.6287,-1.5927,-1.5557,-1.5124,-1.5029,-1.5088,-1.5303,-1.5362,-1.5362,-1.5303,-1.5604,-1.573,-1.5672,-1.487,-1.4291,-1.4116,-1.3523,-1.2908,-1.241,-1.1927,-1.1619,-1.1569,-1.1226,-1.0871,-1.0522,-1.0246,-0.9764,-0.8983,-0.8496,-0.7722,-0.6742,-0.6002,-0.5091,-4.4139,-4.3605,-4.2805,-4.0053,-3.8231,-3.6611,-3.4768,0.0,0.0,-3.0258,-2.9112,-2.8252,-2.851,-2.8126,-2.772,-2.7476,0.0,-2.7954,0.0,0.0,0.0,0.0,0.0,0.0,0.0,-2.5972,-2.5863,-2.5591,-2.4641,-2.3784,-2.3134,-2.2147,-2.1664,-2.1793,-2.1513,-2.1342,-2.1293,-2.0258,-1.9716,-1.9669,-1.9045,-1.905,-1.9507,-1.9251,-1.9225,-1.9474,-2.014,-2.0183,-1.9853,-2.0698,-2.1046,-2.1051,-2.0693,-2.072,-2.0934,-2.0934,-2.1033,-2.118,-2.1277,-2.141,-2.1458,-2.1082,-2.0673,-2.0373,-2.0648,-2.0822,-2.0913,-2.0806,-2.0557,-2.0237,-1.9736,-1.9274,-1.8875,-1.8405,-1.7872,-1.7461,-1.7539,-1.7285,-1.7013,-1.6481,-1.6218,-1.5951,-1.5291,-1.5098,-1.5029,-1.5029,-1.5147,-1.5147,-1.5029,-1.5313,-1.541,-1.541,-1.5342,-1.4867,-1.3949,-1.3476,-1.2901,-1.2022,-1.1678,-1.1427,-1.1175,-1.1023,-1.0769,-1.0522,-0.9961,-0.9577,-0.9335,-0.8769,-0.8034,-0.7206,-0.6537,-0.5639,-4.3592,-4.3255,-4.2598,-3.9844,-3.8294,-3.6925,-3.4726,0.0,-3.1477,-2.9985,-2.9153,-2.8532,-2.8062,-2.7855,-2.774,-2.7524,-2.7814,0.0,0.0,0.0,0.0,0.0,0.0,0.0,0.0,0.0,-2.5893,-2.5453,-2.4559,-2.396,-2.3622,-2.2668,-2.1986,-2.1664,-2.1664,-2.1616,-2.152,-2.1035,-2.0611,-2.027,-2.0136,-2.01,-2.0221,-2.0254,-2.0201,-2.0065,-2.0479,-2.0325,-1.9979,-2.0726,-2.1021,-2.1062,-2.126,-2.141,-2.1471,-2.1471,-2.1568,-2.1664,-2.1568,-2.1664,-2.1793,-2.1471,-2.1215,-2.0974,-2.0643,-2.0939,-2.1375,-2.1001,-2.1065,-2.1008,-2.0377,-1.9528,-1.8741,-1.8124,-1.7647,-1.7314,-1.7314,-1.7097,-1.6793,-1.6562,-1.6384,-1.6002,-1.5247,-1.5107,-1.5014,-1.4821,-1.4784,-1.4843,-1.497,-1.502,-1.501,-1.5137,-1.5303,-1.5109,-1.447,-1.3917,-1.3315,-1.2573,-1.1953,-1.1569,-1.1477,-1.1175,-1.0922,-1.0718,-1.0285,-0.9853,-0.9498,-0.9014,-0.8454,-0.7742,-0.6918,-0.6056,-4.2863,-4.2661,-4.1984,-3.9455,-3.8242,-3.7079,0.0,0.0,-3.2135,-3.0112,-2.9411,-2.8867,-2.795,-2.781,-2.779,-2.7675,-2.779,-2.7855,-2.7733,0.0,0.0,0.0,0.0,-2.6683,0.0,-2.6233,-2.5893,-2.5397,-2.4778,-2.4244,-2.3863,-2.3146,-2.2456,-2.1855,-2.176,-2.1664,-2.1616,-2.1423,-2.1118,-2.0723,-2.0825,-2.0825,-2.0623,-2.0713,-2.0649,-2.0448,-2.0712,-2.0661,-2.0448,-2.1105,-2.131,-2.1352,-2.1736,-2.1841,-2.1793,-2.1841,-2.1949,-2.1996,-2.1793,-2.1841,-2.2044,-2.1793,-2.1664,-2.1458,-2.0871,-2.1121,-2.1475,-2.102,-2.1044,-2.1088,-2.0537,-1.9594,-1.8674,-1.8056,-1.7588,-1.7245,-1.7235,-1.6959,-1.6702,-1.6578,-1.6437,-1.6056,-1.5302,-1.5102,-1.5026,-1.4662,-1.4597,-1.4656,-1.4862,-1.4784,-1.4715,-1.4843,-1.5069,-1.5013,-1.4656,-1.4181,-1.3612,-1.2979,-1.2373,-1.1963,-1.1912,-1.1499,-1.1131,-1.0916,-1.0518,-1.0089,-0.9592,-0.9342,-0.8877,-0.8242,-0.7405,-0.6335,-4.1826,-4.1555,-4.1063,-3.9016,-3.8,-3.6906,0.0,0.0,-3.2079,-3.058,-2.9792,-2.907,-2.8426,-2.8008,-2.779,-2.779,-2.7675,0.0,-2.7233,0.0,0.0,0.0,0.0,-2.7248,-2.6832,-2.6394,-2.6002,-2.5729,-2.5384,-2.4734,-2.3779,-2.3393,-2.2956,-2.251,-2.1784,-2.1471,-2.1616,-2.1326,-2.1131,-2.0997,-2.0924,-2.0838,-2.0686,-2.0351,-2.0214,-2.0355,-2.085,-2.1167,-2.1344,-2.2055,-2.2324,-2.217,-2.217,-2.2044,-2.1793,-2.1949,-2.1996,-2.1996,-2.1996,-2.2091,-2.2184,-2.2044,-2.1996,-2.1949,-2.152,-2.1281,-2.1131,-2.0731,-2.0377,-2.0093,-1.9944,-1.9341,-1.8741,-1.8405,-1.7872,-1.7461,-1.7245,-1.7038,-1.6849,-1.6559,-1.637,-1.6065,-1.5427,-1.5164,-1.4964,-1.457,-1.4606,-1.4666,-1.4506,-1.4606,-1.4656,-1.4529,-1.4656,-1.4548,-1.4147,-1.411,-1.3755,-1.3068,-1.2877,-1.2657,-1.2381,-1.1868,-1.1399,-1.1009,-1.0533,-1.0051,-0.9607,-0.9607,-0.9248,-0.8564,-0.8036,-0.639,-4.0922,-4.0567,-3.9832,-3.7299,-3.6394,-3.557,-3.3381,0.0,-3.1915,-3.0,-2.955,-2.9167,-2.8032,-2.7825,-2.779,-2.7675,-2.7675,-2.769,0.0,0.0,0.0,0.0,0.0,-2.8331,0.0,0.0,-2.6823,-2.603,-2.5729,-2.5259,-2.4622,-2.4109,-2.3324,-2.2258,-2.1784,-2.1616,-2.1746,-2.1568,-2.1423,-2.1277,-2.1144,-2.1046,-2.0885,-2.0895,-2.0731,-2.0448,-2.0804,-2.0826,-2.0696,-2.1447,-2.1775,-2.1758,-2.226,-2.2324,-2.2091,-2.2231,-2.2278,-2.2278,-2.2278,-2.237,-2.2463,-2.2324,-2.2231,-2.2091,-2.1746,-2.1745,-2.1694,-2.1159,-2.0756,-2.0362,-1.9972,-1.949,-1.8926,-1.8213,-1.7539,-1.6939,-1.6738,-1.6477,-1.6397,-1.6679,-1.6496,-1.6239,-1.6048,-1.5469,-1.5056,-1.4937,-1.4541,-1.4249,-1.4327,-1.4198,-1.4121,-1.4121,-1.4189,-1.4246,-1.4354,-1.4096,-1.3771,-1.3286,-1.2861,-1.25,-1.2103,-1.1947,-1.1613,-1.1169,-1.0783,-1.0501,-1.028,-0.9733,-0.8891,-0.7759,-0.703,-0.5796,0.0,-3.9237,-3.8499,-3.6275,-3.5524,0.0,0.0,0.0,-3.1738,-2.9678,-2.9347,-2.9107,-2.7778,-2.7625,-2.7725,-2.7675,-2.774,-2.7881,0.0,0.0,0.0,0.0,0.0,0.0,0.0,-2.8125,-2.754,-2.6582,-2.6218,-2.5825,-2.5453,-2.4558,-2.3589,-2.2607,-2.2111,-2.1835,-2.1712,-2.1664,-2.1568,-2.1471,-2.1326,-2.118,-2.0997,-2.1082,-2.0979,-2.0725,-2.1101,-2.1143,0.0,-2.1707,-2.1981,-2.2024,-2.2517,-2.2555,-2.237,-2.2417,-2.2417,-2.2417,-2.2417,-2.2417,-2.2417,-2.2417,-2.2278,-2.2091,-2.1793,-2.1681,-2.1559,-2.1167,-2.0673,-2.0158,-1.9826,-1.9291,-1.8784,-1.8284,-1.753,-1.6987,-1.6949,-1.6717,-1.6483,-1.6661,-1.6486,-1.6266,-1.6111,-1.5533,-1.5102,-1.5102,-1.4511,-1.4192,-1.4457,-1.4292,-1.4162,-1.4303,-1.432,-1.4435,-1.4621,-1.4186,-1.3812,-1.357,-1.3168,-1.2751,-1.2348,-1.2167,-1.1865,-1.1364,-1.0997,-1.0644,-1.0301,-0.9428,-0.8446,-0.7476,-0.6644,-0.56,0.0,-3.7556,0.0,0.0,0.0,0.0,0.0,0.0,0.0,-2.9425,-2.9123,-2.8833,-2.7624,-2.7539,-2.7675,-2.779,-2.7836,0.0,0.0,0.0,0.0,0.0,-3.0114,0.0,-2.9149,-2.8741,-2.8144,-2.7328,-2.6841,-2.6418,-2.6165,-2.4812,-2.3881,-2.3447,-2.2746,-2.216,-2.1616,-2.1616,-2.1616,-2.1616,-2.1471,-2.1277,-2.1033,-2.1033,-2.1033,-2.1033,-2.1568,-2.1949,-2.2184,-2.2598,-2.2764,-2.2749,-2.2857,-2.2752,-2.2555,-2.2555,-2.2509,-2.237,-2.2417,-2.2324,-2.2231,-2.237,-2.2231,-2.1949,-2.1664,-2.1251,-2.0814,-2.0768,-2.0237,-1.9678,-1.9599,-1.8895,-1.8296,-1.8449,-1.7839,-1.7307,-1.7552,-1.7309,-1.6934,-1.6407,-1.6276,-1.6147,-1.5762,-1.5359,-1.5102,-1.5102,-1.4641,-1.4412,-1.4719,-1.4649,-1.4665,-1.4867,-1.4846,-1.4837,-1.4837,-1.432,-1.396,-1.3813,-1.3614,-1.3363,-1.2989,-1.2473,-1.2059,-1.1592,-1.1039,-1.0473,-0.988,-0.8808,-0.8051,-0.757,-0.6724,-0.5703,-3.5439,0.0,-3.5609,-3.3976,-3.3,-3.2072,0.0,0.0,0.0,0.0,0.0,0.0,0.0,0.0,-2.774,-2.779,-2.8329,-2.8773,0.0,0.0,0.0,-3.1641,-3.1772,-3.1297,-3.0066,-2.984,-2.9197,-2.778,-2.7306,-2.693,-2.6578,-2.5934,-2.5089,-2.3979,-2.3529,-2.2734,-2.1616,-2.152,-2.1568,-2.1746,-2.152,-2.1375,-2.1326,-2.1326,-2.1229,-2.118,-2.1616,-2.1841,-2.1949,-2.2338,-2.2431,-2.2385,-2.2555,-2.2509,-2.2324,-2.2417,-2.237,-2.2278,-2.2463,-2.2463,-2.237,-2.237,-2.2137,-2.1793,-2.1664,-2.1326,-2.0861,-2.0438,-2.0113,-1.9805,-1.9432,-1.9064,-1.8572,-1.7931,-1.7276,-1.6705,-1.6441,-1.6147,-1.5961,-1.5993,-1.5965,-1.5938,-1.5707,-1.5359,-1.5102,-1.5102,-1.4511,-1.4221,-1.4622,-1.4416,-1.4366,-1.4698,-1.4601,-1.4527,-1.4527,-1.4357,-1.42,-1.4044,-1.3768,-1.3331,-1.2699,-1.2541,-1.2249,-1.1636,-1.1001,-1.0295,-0.9519,-0.8926,-0.8192,-0.7352,-0.6324,-0.5466,-3.4475,-3.4708,-3.4771,-3.3265,-3.2349,-3.1676,0.0,0.0,0.0,0.0,0.0,0.0,0.0,0.0,0.0,0.0,-2.8348,0.0,0.0,0.0,0.0,-3.2256,-3.2468,-3.2052,-3.0535,-3.0449,-2.9827,-2.8278,-2.7875,-2.761,-2.7291,-2.6236,-2.5386,-2.4919,-2.3935,-2.2944,-2.1807,-2.1924,-2.1973,-2.1902,-2.1987,-2.1827,-2.1471,-2.1423,-2.1375,-2.1277,-2.152,-2.1712,-2.1841,-2.2184,-2.2324,-2.2324,-2.2583,-2.2583,-2.2491,-2.2569,-2.2569,-2.2449,-2.2376,-2.223,-2.2138,-2.2271,-2.2184,-2.1996,-2.1568,-2.1326,-2.1082,-2.0472,-1.9972,-1.9582,-1.9257,-1.8747,-1.8264,-1.7802,-1.7204,-1.6728,-1.6441,-1.6243,-1.6014,-1.5792,-1.5879,-1.6,-1.5936,-1.5759,-1.5557,-1.5503,-1.506,-1.4809,-1.4979,-1.4892,-1.4959,-1.5155,-1.5053,-1.484,-1.4763,-1.4481,-1.4261,-1.4126,-1.3826,-1.3477,-1.2924,-1.2852,-1.239,-1.1468,-1.0884,-1.0162,-0.9375,-0.8635,-0.7834,-0.7091,-0.6113,-0.5321,-3.4085,-3.4244,-3.4295,-3.2879,-3.2353,-3.1939,0.0,0.0,0.0,0.0,0.0,0.0,0.0,0.0,0.0,0.0,0.0,0.0,0.0,0.0,-3.2523,-3.2398,-3.261,-3.2173,-3.0794,-3.0663,-3.012,-2.8762,-2.8429,-2.822,-2.8073,-2.6415,-2.5624,-2.5871,-2.446,-2.3235,-2.2278,-2.2686,-2.2679,-2.2275,-2.2643,-2.2476,-2.1739,-2.1642,-2.1505,-2.1423,-2.1423,-2.1568,-2.1746,-2.2044,-2.2231,-2.2324,-2.2598,-2.2704,-2.2704,-2.2812,-2.2766,-2.2663,-2.2206,-2.2004,-2.1944,-2.2154,-2.2278,-2.2217,-2.1363,-2.1197,-2.1202,-2.0518,-1.9914,-1.9368,-1.9052,-1.8356,-1.7757,-1.7827,-1.7403,-1.6917,-1.6858,-1.671,-1.6364,-1.568,-1.5875,-1.6141,-1.6012,-1.6107,-1.609,-1.586,-1.5743,-1.5624,-1.544,-1.565,-1.5839,-1.5824,-1.5647,-1.5426,-1.5204,-1.4713,-1.4316,-1.4128,-1.3897,-1.3573,-1.3207,-1.3005,-1.2394,-1.1334,-1.0797,-1.0151,-0.9391,-0.8366,-0.7618,-0.7044,-0.6133,-0.5308,-3.3539,-3.3631,-3.3763,-3.2164,-3.1589,-3.1214,0.0,0.0,0.0,0.0,0.0,0.0,0.0,0.0,0.0,0.0,0.0,-3.1004,0.0,0.0,-3.2398,-3.2398,-3.2266,-3.1784,-3.0865,-3.049,-2.9895,-2.8936,-2.8732,-2.8558,-2.8348,-2.7743,-2.7066,-2.6342,-2.5859,-2.4892,-2.345,-2.3639,-2.3668,-2.3621,-2.3566,-2.3174,-2.2517,-2.2517,-2.2095,-2.1423,-2.1664,-2.1616,-2.1471,-2.1746,-2.1841,-2.1902,-2.2044,-2.2184,-2.2338,-2.2417,-2.2477,-2.2463,-2.2363,-2.2412,-2.2441,-2.2249,-2.2137,-2.1899,-2.106,-2.0934,-2.089,-2.0109,-1.9811,-1.9604,-1.8999,-1.8422,-1.7943,-1.7623,-1.7073,-1.6649,-1.6502,-1.6232,-1.5919,-1.5527,-1.5749,-1.5882,-1.5286,-1.5728,-1.5955,-1.5264,-1.5445,-1.5689,-1.5624,-1.5716,-1.5839,-1.6026,-1.5709,-1.5426,-1.5204,-1.4776,-1.4522,-1.4348,-1.3855,-1.3294,-1.2668,-1.2316,-1.188,-1.1363,-1.0885,-1.0386,-0.9863,-0.9069,-0.8353,-0.7606,-0.6578,-0.5727,-3.3064,-3.2854,-3.26,-3.1037,-3.1103,-3.1404,0.0,0.0,0.0,0.0,0.0,0.0,0.0,0.0,-2.7161,-2.833,0.0,-3.0833,-3.169,-3.2064,-3.2164,-3.1796,-3.1849,-3.1467,-3.0386,-3.0143,-2.9801,-2.9076,-2.8873,-2.8779,-2.8653,-2.7915,-2.7443,-2.7357,-2.6604,-2.6012,-2.5593,-2.5582,-2.4904,-2.3597,-2.4068,-2.4016,-2.3454,-2.3006,-2.2602,-2.2179,-2.1849,-2.1616,-2.152,-2.1664,-2.1746,-2.1793,-2.2044,-2.2184,-2.2324,-2.2463,-2.2081,-2.1583,-2.1941,-2.1915,-2.1729,-2.1761,-2.1784,-2.1636,-2.0841,-2.0441,-2.0134,-1.9677,-1.9598,-1.9604,-1.9146,-1.8625,-1.8139,-1.7634,-1.7134,-1.674,-1.6488,-1.6192,-1.6022,-1.6019,-1.6305,-1.656,-1.6579,-1.6918,-1.6992,-1.6374,-1.6305,-1.629,-1.6216,-1.5909,-1.583,-1.6088,-1.5709,-1.5355,-1.4919,-1.4713,-1.4569,-1.4497,-1.3999,-1.3491,-1.3201,-1.2685,-1.2184,-1.167,-1.1038,-1.0478,-1.0055,-0.9178,-0.8437,-0.77,-0.691,-0.6052,-3.266,-3.2176,-3.1632,-3.0318,0.0,0.0,0.0,0.0,0.0,0.0,0.0,0.0,0.0,-2.6687,0.0,-2.8533,-2.9503,-3.0393,-3.1289,-3.1645,-3.1597,-3.108,-3.1173,-3.0845,-2.9868,-2.9717,-2.9532,-2.9122,-2.8967,-2.8904,-2.8904,-2.8078,-2.7811,-2.8268,-2.7376,-2.6976,-2.7134,-2.7122,-2.6076,-2.4056,-2.4831,-2.4868,-2.4315,-2.3722,-2.323,-2.2825,-2.2159,-2.1787,-2.1664,-2.1616,-2.1712,-2.1841,-2.2044,-2.2231,-2.2402,-2.2398,-2.1814,-2.111,-2.1456,-2.1297,-2.0992,-2.1154,-2.1325,-2.1253,-2.0478,-1.9966,-1.9553,-1.9196,-1.9306,-1.9455,-1.9202,-1.8774,-1.8302,-1.7755,-1.7357,-1.6976,-1.6658,-1.6493,-1.6485,-1.6656,-1.691,-1.7259,-1.7718,-1.7823,-1.7733,-1.7194,-1.7041,-1.6883,-1.6581,-1.6154,-1.5958,-1.6228,-1.585,-1.5426,-1.4784,-1.4641,-1.4601,-1.4688,-1.4118,-1.3717,-1.3572,-1.3046,-1.249,-1.1906,-1.1178,-1.0647,-1.0166,-0.9324,-0.8569,-0.7845,-0.7177,-0.6302,-3.232,-3.1907,-3.1746,-3.0693,-3.0594,0.0,-3.0857,-3.0276,0.0,-3.0317,0.0,0.0,0.0,-2.7498,-2.777,-2.8759,-2.9432,-3.022,-3.0984,-3.0815,-3.0608,-3.0563,-2.9977,-2.957,-2.9611,-2.9183,-2.8936,-2.9091,-2.8967,-2.8904,-2.8904,-2.881,-2.8732,-2.8573,-2.835,-2.785,-2.7,-2.7225,-2.699,-2.6256,-2.6342,-2.5859,-2.4962,-2.5024,-2.4207,-2.2705,-2.2797,-2.2415,-2.1793,-2.1664,-2.1746,-2.1996,-2.1841,-2.2044,-2.2346,-2.2001,-2.1816,-2.1657,-2.1081,-2.0865,-2.0795,-2.0741,-2.0769,-2.0571,-1.9656,-1.9583,-1.9581,-1.8688,-1.8817,-1.9183,-1.9064,-1.8774,-1.8506,-1.8139,-1.7656,-1.7278,-1.7222,-1.7309,-1.7328,-1.7026,-1.7226,-1.7419,-1.7387,-1.7496,-1.7367,-1.6535,-1.6919,-1.7106,-1.6324,-1.6328,-1.6499,-1.6567,-1.6263,-1.578,-1.5204,-1.4776,-1.4711,-1.5036,-1.4248,-1.3564,-1.2973,-1.2526,-1.2144,-1.1749,-1.1304,-1.0852,-1.0461,-0.9856,-0.9233,-0.8563,-0.7646,-0.6686,-3.1965,-3.1238,-3.0691,-3.0073,-2.9891,0.0,0.0,-3.0415,-3.0015,-3.0133,-2.9827,0.0,0.0,0.0,-2.7496,-2.8083,-2.8784,-2.9418,-2.9854,-2.9987,-2.9802,-2.9085,-2.9004,-2.8926,-2.8633,-2.8632,-2.8716,-2.8842,-2.8967,-2.9059,-2.9152,-2.9013,-2.892,-2.8889,-2.8668,-2.8354,-2.7996,-2.7902,-2.7725,-2.7444,-2.6826,-2.6357,-2.6088,-2.5583,-2.4773,-2.3773,-2.3315,-2.2794,-2.2184,-2.1949,-2.1949,-2.2137,-2.2184,-2.2231,-2.2296,-2.2298,-2.1814,-2.1097,-2.0979,-2.0715,-2.0407,-2.0301,-2.0261,-2.0096,-1.9501,-1.9031,-1.8589,-1.8239,-1.8286,-1.8384,-1.8363,-1.8597,-1.865,-1.7802,-1.7596,-1.749,-1.7334,-1.7183,-1.709,-1.728,-1.7241,-1.7359,-1.7977,-1.7904,-1.78,-1.7859,-1.7725,-1.7543,-1.7321,-1.6893,-1.6652,-1.6913,-1.6403,-1.5912,-1.5576,-1.5427,-1.5324,-1.5165,-1.4344,-1.366,-1.3411,-1.2924,-1.2452,-1.1929,-1.1484,-1.1186,-1.0887,-1.0118,-0.9411,-0.869,-0.7806,-0.6873,-3.1387,-3.0549,-2.9907,-2.9778,0.0,0.0,-3.0495,-3.0401,-3.0194,-3.0529,-3.0088,-2.9369,-2.8158,0.0,0.0,0.0,-2.8234,-2.8462,-2.9052,-2.903,-2.8722,-2.7998,-2.8159,-2.8288,-2.8005,-2.8268,-2.8558,-2.8732,-2.8889,-2.9091,-2.9213,-2.9106,-2.9059,-2.9167,-2.8936,-2.8795,-2.8795,-2.8558,-2.835,-2.8204,-2.7378,-2.6997,-2.6922,-2.6226,-2.5408,-2.4554,-2.3997,-2.3279,-2.2495,-2.2278,-2.2231,-2.2324,-2.2417,-2.237,-2.2221,-2.2112,-2.147,-2.0683,-2.0541,-2.0211,-1.9909,-1.9832,-1.9793,-1.9676,-1.9242,-1.8653,-1.8084,-1.7925,-1.7874,-1.7804,-1.7647,-1.8093,-1.8382,-1.7636,-1.755,-1.7575,-1.7468,-1.7331,-1.7299,-1.7515,-1.7459,-1.7624,-1.8448,-1.8161,-1.7988,-1.8338,-1.7809,-1.7442,-1.7549,-1.7015,-1.6779,-1.7179,-1.6751,-1.6386,-1.6244,-1.6135,-1.6013,-1.5794,-1.495,-1.4268,-1.3954,-1.3283,-1.2784,-1.2428,-1.1974,-1.1676,-1.1371,-1.0602,-0.9868,-0.9115,-0.823,-0.7278,-3.0485,-2.9837,-2.9694,0.0,0.0,0.0,-3.0387,-3.029,-3.0438,-3.1716,-3.0353,-2.8876,-2.8905,-2.7348,0.0,-2.8753,-2.7867,-2.7328,-2.8703,-2.7983,-2.7324,-2.7489,-2.7422,-2.7539,-2.7959,-2.8122,-2.8414,-2.8858,-2.8826,-2.8873,-2.9075,-2.9213,-2.9305,-2.9305,-2.9305,-2.9305,-2.9305,-2.9059,-2.8811,-2.8685,-2.8286,-2.7795,-2.7181,-2.7041,-2.6148,-2.4745,-2.4745,-2.3933,-2.2709,-2.2646,-2.2615,-2.2615,-2.2601,-2.2509,-2.226,-2.1212,-2.0768,-2.0554,-1.9642,-1.9317,-1.9302,-1.9376,-1.9413,-1.9339,-1.8898,-1.8592,-1.824,-1.7788,-1.7715,-1.7536,-1.6858,-1.7157,-1.7605,-1.7757,-1.7526,-1.7372,-1.7654,-1.7979,-1.8082,-1.7781,-1.7942,-1.8299,-1.8554,-1.8082,-1.7668,-1.7543,-1.7093,-1.6789,-1.6743,-1.6738,-1.6867,-1.7151,-1.7304,-1.7344,-1.7189,-1.6863,-1.6753,-1.7111,-1.6268,-1.5374,-1.4521,-1.3509,-1.3033,-1.3173,-1.2797,-1.2406,-1.2012,-1.1335,-1.0662,-0.9954,-0.888,-0.7916,-3.0309,-2.9837,0.0,-2.991,0.0,0.0,0.0,-3.0489,0.0,0.0,-3.0029,-2.8876,-2.8793,-2.7293,-2.6382,-2.7314,-2.6959,-2.6703,-2.7109,-2.7059,-2.682,-2.6436,-2.6828,-2.7159,-2.7299,-2.784,-2.8284,-2.8525,-2.8748,-2.9029,-2.9366,-2.9305,-2.9396,-2.9592,-2.9592,-2.9547,-2.9412,-2.935,-2.9243,-2.9106,-2.8811,-2.8334,-2.776,-2.7524,-2.6926,-2.6012,-2.6012,-2.5352,-2.4119,-2.3526,-2.3246,-2.3113,-2.2586,-2.2556,-2.2667,-2.1975,-2.1352,-2.0891,-2.0877,-2.0294,-1.9581,-1.9654,-1.9581,-1.9384,-1.8974,-1.8683,-1.8307,-1.7733,-1.7552,-1.7349,-1.6701,-1.6673,-1.679,-1.68,-1.7167,-1.7491,-1.7376,-1.7522,-1.7689,-1.7566,-1.7356,-1.7323,-1.773,-1.7728,-1.7771,-1.808,-1.8008,-1.7777,-1.7407,-1.7352,-1.7383,-1.7404,-1.752,-1.7603,-1.7602,-1.7624,-1.7632,-1.7579,-1.7035,-1.6274,-1.5098,-1.4183,-1.3662,-1.3495,-1.3142,-1.283,-1.2632,-1.1799,-1.1123,-1.0423,-0.9182,-0.8058,-2.9931,-2.9512,0.0,-2.9714,-2.9408,-2.9231,-2.9914,0.0,0.0,0.0,-2.9435,-2.8539,-2.8497,-2.7128,-2.6174,-2.6974,-2.6509,-2.613,-2.6307,-2.6285,-2.6162,-2.5881,-2.6379,-2.687,-2.7041,-2.7625,-2.8137,-2.8444,-2.87,-2.9013,-2.9412,-2.9457,-2.9531,-2.971,-2.9814,-2.9814,-2.977,-2.9798,-2.9694,-2.9576,-2.9364,-2.9028,-2.8606,-2.814,-2.7546,-2.6799,-2.6622,-2.6138,-2.5421,-2.4663,-2.4288,-2.4126,-2.3238,-2.2993,-2.2996,-2.2074,-2.1378,-2.0903,-2.073,-2.0213,-1.9669,-1.9762,-1.9726,-1.9485,-1.8855,-1.8412,-1.8009,-1.7409,-1.7116,-1.6896,-1.6727,-1.662,-1.6498,-1.6428,-1.6714,-1.7051,-1.7092,-1.7185,-1.7279,-1.7313,-1.7078,-1.7013,-1.7376,-1.7308,-1.7347,-1.7781,-1.7719,-1.7602,-1.7466,-1.7506,-1.7652,-1.7823,-1.8007,-1.8199,-1.8275,-1.8489,-1.8522,-1.8527,-1.8066,-1.7355,-1.6324,-1.5177,-1.4587,-1.4422,-1.3999,-1.3593,-1.3209,-1.2336,-1.1575,-1.1027,-0.973,-0.8593,-2.9414,0.0,0.0,-2.9319,-2.9215,0.0,-2.9281,-2.9728,-2.9972,-2.9518,0.0,-2.8037,-2.8096,-2.6821,-2.6092,-2.7165,-2.6256,-2.5632,-2.6068,-2.5727,-2.555,-2.5688,-2.615,-2.6669,-2.7063,-2.7423,-2.7875,-2.8477,-2.8653,-2.8873,-2.9305,-2.9547,-2.9754,-2.9853,-2.9957,-3.0103,-3.0248,-3.0231,-3.0189,-3.0033,-2.9897,-2.9793,-2.9633,-2.8889,-2.8138,-2.7365,-2.6824,-2.6616,-2.6611,-2.5882,-2.5555,-2.5388,-2.4246,-2.3634,-2.3212,-2.1772,-2.1041,-2.0604,-1.9727,-1.9457,-1.9507,-1.9611,-1.9617,-1.9461,-1.8534,-1.7964,-1.7511,-1.7022,-1.6612,-1.6397,-1.686,-1.6846,-1.6672,-1.6459,-1.6349,-1.6359,-1.6757,-1.6838,-1.6857,-1.696,-1.6946,-1.6938,-1.7126,-1.6732,-1.6523,-1.6925,-1.6678,-1.6648,-1.7059,-1.7352,-1.7724,-1.817,-1.8596,-1.8891,-1.8981,-1.9182,-1.9382,-1.9562,-1.9045,-1.8496,-1.7781,-1.6477,-1.5648,-1.5726,-1.5039,-1.4455,-1.3815,-1.2864,-1.2251,-1.1721,-1.0377,-0.9396,-2.8566,-2.8538,0.0,0.0,-2.8796,-2.8596,-2.8079,-2.8316,-2.8826,-2.9268,-2.8811,-2.8176,-2.7745,-2.6771,-2.5974,-2.5965,-2.5478,-2.5172,-2.5422,-2.5452,-2.5494,-2.555,-2.6002,-2.6404,-2.6616,-2.7115,-2.764,-2.8107,-2.8414,-2.8795,-2.9305,-2.9547,-2.9814,-3.0103,-3.0316,-3.0401,-3.0443,-3.0526,-3.0485,-3.0316,-3.0342,-3.0215,-2.9886,-2.938,-2.9027,-2.8791,-2.8215,-2.7726,-2.7237,-2.6574,-2.5927,-2.5329,-2.4288,-2.3654,-2.3203,-2.2064,-2.1109,-2.0225,-1.9618,-1.9125,-1.8798,-1.8546,-1.8379,-1.8233,-1.7951,-1.7806,-1.7622,-1.706,-1.7036,-1.7109,-1.6976,-1.6803,-1.6701,-1.666,-1.6634,-1.6656,-1.667,-1.6497,-1.6421,-1.6697,-1.6363,-1.6081,-1.63,-1.6471,-1.6616,-1.6647,-1.6727,-1.6648,-1.6506,-1.6967,-1.7352,-1.7603,-1.7958,-1.832,-1.8669,-1.9035,-1.9312,-1.9363,-1.9362,-1.9134,-1.8531,-1.7108,-1.6204,-1.5726,-1.5323,-1.4907,-1.4482,-1.379,-1.3078,-1.2478,-1.1289,-1.0163,-2.8235,0.0,0.0,-2.7769,0.0,-2.7605,-2.7185,-2.7443,-2.7908,-2.8287,-2.8135,-2.7639,-2.6749,-2.6163,-2.5581,-2.51,-2.4878,-2.4821,-2.5005,-2.5131,-2.5313,-2.5494,-2.5839,-2.619,-2.6457,-2.6855,-2.7335,-2.7974,-2.8286,-2.8685,-2.9259,-2.956,-2.993,-3.0274,-3.0485,-3.0651,-3.0733,-3.0814,-3.0773,-3.0692,-3.0609,-3.0443,-3.006,-2.9694,-2.956,-2.9633,-2.9394,-2.8939,-2.8372,-2.7709,-2.6989,-2.6124,-2.4798,-2.4031,-2.3467,-2.2003,-2.0946,-2.0094,-1.9133,-1.8628,-1.8387,-1.7957,-1.7812,-1.7767,-1.7277,-1.7034,-1.6782,-1.6186,-1.6275,-1.6507,-1.6525,-1.6712,-1.6811,-1.6641,-1.6559,-1.6511,-1.6558,-1.6301,-1.6158,-1.6347,-1.6106,-1.5852,-1.5869,-1.6117,-1.6246,-1.6177,-1.6246,-1.6397,-1.6819,-1.6894,-1.7229,-1.7883,-1.8125,-1.8398,-1.8553,-1.9219,-1.9613,-1.961,-1.9782,-1.9618,-1.9002,-1.8153,-1.7257,-1.6229,-1.5822,-1.5323,-1.4566,-1.3857,-1.3296,-1.2835,-1.1618,-1.0643,0.0,0.0,-2.6895,-2.6642,-2.6589,0.0,-2.6508,-2.6794,-2.7134,-2.7134,-2.7275,-2.7023,-2.5788,-2.5528,-2.521,-2.4601,-2.4403,-2.4492,-2.4798,-2.4902,-2.5075,-2.5383,-2.5688,-2.6002,-2.6351,-2.6592,-2.7078,-2.7825,-2.8125,-2.8559,-2.9198,-2.9589,-2.9984,-3.0401,-3.0609,-3.0855,-3.1095,-3.1095,-3.1095,-3.1095,-3.0855,-3.0568,-3.0248,-3.0,-2.9957,-3.006,-3.0058,-2.9791,-2.9287,-2.8648,-2.7831,-2.6806,-2.5421,-2.4349,-2.3383,-2.1724,-2.0576,-1.9664,-1.8287,-1.7786,-1.7666,-1.7173,-1.7143,-1.7148,-1.6441,-1.6085,-1.5839,-1.5298,-1.5305,-1.5604,-1.5918,-1.6355,-1.6721,-1.6481,-1.6245,-1.6182,-1.6377,-1.6089,-1.581,-1.5964,-1.5899,-1.5708,-1.554,-1.5654,-1.5708,-1.572,-1.5672,-1.6058,-1.7083,-1.6944,-1.713,-1.8105,-1.8439,-1.8555,-1.8703,-1.9429,-1.9909,-1.9987,-2.0178,-2.0029,-1.9381,-1.9152,-1.8353,-1.6894,-1.6492,-1.5741,-1.4559,-1.3904,-1.3419,-1.313,-1.1852,-1.1137,0.0,0.0,-2.6082,0.0,0.0,-2.5968,0.0,0.0,-2.6371,0.0,-2.6921,-2.7131,-2.5853,-2.5595,-2.5338,-2.4558,-2.4149,-2.4112,-2.4779,-2.4824,-2.4905,-2.5061,-2.5453,-2.5784,-2.5934,-2.6312,-2.6736,-2.7269,-2.7875,-2.8446,-2.892,-2.9483,-3.0027,-3.0485,-3.0814,-3.1095,-3.144,-3.144,-3.1423,-3.1445,-3.1055,-3.0708,-3.0359,-3.0333,-3.0316,-3.0342,-2.9741,-2.9309,-2.8918,-2.8264,-2.7148,-2.5862,-2.5659,-2.4029,-2.176,-2.1215,-1.9745,-1.7903,-1.6946,-1.6186,-1.5543,-1.5124,-1.5073,-1.5182,-1.5067,-1.5595,-1.6117,-1.5466,-1.5399,-1.55,-1.5223,-1.5529,-1.5889,-1.5971,-1.5905,-1.5892,-1.6094,-1.5507,-1.5163,-1.5787,-1.5329,-1.4971,-1.5224,-1.5058,-1.5113,-1.5613,-1.5672,-1.578,-1.5889,-1.6505,-1.702,-1.7193,-1.7873,-1.8586,-1.9113,-1.9615,-1.9972,-2.0183,-2.0245,-2.0108,-1.9557,-1.939,-1.8745,-1.7619,-1.7131,-1.6394,-1.5311,-1.4775,-1.4196,-1.3568,-1.2802,-1.2056,-2.5482,0.0,0.0,0.0,0.0,0.0,-2.5016,0.0,-2.5581,-2.5664,-2.6,-2.6108,-2.5542,-2.5403,-2.5048,-2.4167,-2.4129,-2.4164,-2.4172,-2.4577,-2.4851,-2.4875,-2.5174,-2.5564,-2.5893,-2.6218,-2.6645,-2.7284,-2.774,-2.8268,-2.8967,-2.9454,-2.9984,-3.0609,-3.0935,-3.1308,-3.1651,-3.1651,-3.1596,-3.1521,-3.1134,-3.0716,-3.0326,-3.0316,-3.0103,-2.9766,-2.9622,-2.9156,-2.8423,-2.7843,-2.698,-2.5945,-2.5085,-2.3607,-2.1845,-2.0986,-1.9321,-1.7394,-1.6323,-1.5463,-1.4731,-1.421,-1.4173,-1.4403,-1.4886,-1.5197,-1.5375,-1.5222,-1.5296,-1.5301,-1.5026,-1.5337,-1.5711,-1.5575,-1.5684,-1.5705,-1.5301,-1.5581,-1.591,-1.5834,-1.5334,-1.512,-1.5589,-1.544,-1.5482,-1.611,-1.6124,-1.625,-1.6867,-1.7216,-1.7529,-1.7785,-1.8185,-1.8427,-1.8488,-1.9262,-1.973,-1.9698,-2.0281,-2.043,-2.0029,-1.9784,-1.9222,-1.8434,-1.7781,-1.6886,-1.5824,-1.5249,-1.4657,-1.4062,-1.3215,-1.2481,0.0,0.0,0.0,0.0,0.0,0.0,0.0,0.0,-2.4731,0.0,-2.4957,-2.4909,-2.4933,-2.4901,-2.4627,-2.3876,-2.4103,-2.4223,-2.399,-2.4548,-2.5048,-2.5101,-2.5317,-2.5618,-2.6036,-2.6264,-2.6645,-2.7284,-2.769,-2.822,-2.9029,-2.9454,-2.9984,-3.0692,-3.1055,-3.1547,-3.215,-3.2451,-3.2236,-3.1596,-3.1477,-3.1103,-3.0393,-3.0316,-2.9798,-2.8984,-2.9309,-2.8834,-2.7826,-2.7359,-2.6655,-2.5747,-2.4602,-2.325,-2.1823,-2.0787,-1.9138,-1.7278,-1.6256,-1.5252,-1.4465,-1.4145,-1.4086,-1.4212,-1.4844,-1.5103,-1.5158,-1.5023,-1.4947,-1.4905,-1.4796,-1.5033,-1.5205,-1.4862,-1.511,-1.5291,-1.4848,-1.5717,-1.6441,-1.5961,-1.5553,-1.5437,-1.5985,-1.5839,-1.5888,-1.6655,-1.6513,-1.6649,-1.7455,-1.7511,-1.7708,-1.8193,-1.8308,-1.8402,-1.836,-1.9033,-1.9499,-1.9507,-2.021,-2.0546,-2.0333,-2.0108,-1.9706,-1.9161,-1.8425,-1.7538,-1.6417,-1.5748,-1.5159,-1.4643,-1.3724,-1.294,0.0,0.0,0.0,0.0,0.0,0.0,0.0,0.0,-2.374,-2.397,-2.397,-2.3959,-2.4009,-2.4178,-2.4243,-2.4046,-2.3847,-2.4026,-2.4811,-2.5111,-2.5419,-2.5867,-2.5994,-2.6194,-2.6523,-2.6505,-2.6683,-2.7181,-2.784,-2.8414,-2.8858,-2.9605,-3.0189,-3.0692,-3.1196,-3.1998,-3.3134,-3.4144,-3.3666,-3.18,-3.2393,-3.1992,-3.0692,-3.0501,-2.9543,-2.8099,-2.8467,-2.811,-2.7215,-2.6754,-2.5781,-2.4608,-2.4659,-2.314,-2.0934,-2.061,-1.9207,-1.7412,-1.6846,-1.5717,-1.4601,-1.5133,-1.5003,-1.4649,-1.4569,-1.546,-1.6228,-1.4986,-1.4397,-1.4212,-1.4391,-1.4159,-1.3791,-1.3399,-1.384,-1.4572,-1.5298,-1.5783,-1.6084,-1.625,-1.578,-1.5568,-1.618,-1.5946,-1.6016,-1.7048,-1.6853,-1.6591,-1.6644,-1.6857,-1.7143,-1.7491,-1.792,-1.8446,-1.9379,-1.9293,-1.9463,-2.0123,-1.9997,-2.0061,-2.0333,-2.0264,-2.0029,-1.9566,-1.9311,-1.8585,-1.731,-1.6648,-1.5982,-1.5311,-1.4412,-1.3822,0.0,0.0,0.0,0.0,0.0,-2.2013,-2.2495,-2.2624,-2.2703,-2.2927,-2.2927,-2.2927,-2.2927,-2.352,-2.387,-2.3336,-2.3687,-2.3886,-2.3656,-2.4457,-2.5034,-2.4931,-2.5402,-2.5854,-2.5994,-2.6826,-2.7535,-2.8047,-2.894,-2.9844,-3.0577,-3.1064,-3.1637,-3.2412,-3.2821,-3.345,-3.434,-3.4783,-3.4359,-3.309,-3.3028,-3.2299,-3.0942,-3.0675,-2.9633,-2.8017,-2.8072,-2.7471,-2.6429,-2.5659,-2.5177,-2.4847,-2.4432,-2.3012,-2.1173,-2.0909,-1.9356,-1.7297,-1.6819,-1.5972,-1.5102,-1.4726,-1.4517,-1.4397,-1.4373,-1.5004,-1.5551,-1.4813,-1.4674,-1.4579,-1.3925,-1.4012,-1.4351,-1.4497,-1.4637,-1.5174,-1.6661,-1.6528,-1.6294,-1.6796,-1.688,-1.6923,-1.7159,-1.7196,-1.7335,-1.7838,-1.7788,-1.7679,-1.7614,-1.8071,-1.8248,-1.8123,-1.8568,-1.8895,-1.8829,-1.9052,-1.9404,-2.0005,-2.0232,-2.0516,-2.0876,-2.0722,-2.0566,-2.0255,-2.002,-1.9301,-1.7942,-1.7383,-1.673,-1.6057,-1.5318,-1.4566,-2.3173,0.0,0.0,0.0,0.0,-2.1047,-2.168,-2.1605,-2.146,-2.1832,-2.1787,-2.1787,-2.1863,-2.2542,-2.2977,-2.2721,-2.3391,-2.372,-2.3236,-2.4267,-2.5056,-2.4849,-2.5389,-2.5896,-2.6036,-2.7081,-2.8032,-2.8703,-2.9776,-3.0775,-3.1534,-3.1994,-3.2663,-3.3663,-3.4288,-3.4769,-3.5013,-3.5704,-3.5312,-3.3944,-3.3776,-3.2902,-3.1376,-3.1083,-2.9978,-2.8257,-2.7771,-2.6884,-2.5715,-2.5013,-2.4769,-2.4805,-2.4317,-2.329,-2.2008,-2.1748,-2.0262,-1.8289,-1.7844,-1.7026,-1.6054,-1.539,-1.5027,-1.4771,-1.4479,-1.4843,-1.5241,-1.4642,-1.4572,-1.4521,-1.3915,-1.431,-1.4902,-1.5133,-1.5363,-1.5952,-1.7464,-1.7058,-1.6624,-1.7397,-1.7851,-1.81,-1.8109,-1.8313,-1.8532,-1.872,-1.8602,-1.8475,-1.8475,-1.8708,-1.8808,-1.8712,-1.8931,-1.8909,-1.8607,-1.8821,-1.9113,-1.9554,-1.9938,-2.037,-2.0954,-2.0811,-2.0728,-2.0731,-2.0498,-1.9863,-1.8816,-1.8184,-1.7538,-1.7041,-1.6139,-1.5112,0.0,0.0,0.0,0.0,0.0,0.0,-2.1251,0.0,-2.0049,-2.07,-2.0624,-2.0537,-2.0779,-2.1185,-2.1655,-2.2252,-2.2852,-2.3361,-2.3779,-2.4647,-2.5375,-2.5715,-2.6024,-2.6385,-2.6777,-2.7408,-2.8115,-2.9006,-3.0227,-3.1137,-3.1678,-3.2417,-3.3287,-3.4302,-3.5518,-3.5829,-3.5171,-3.7004,-3.6678,-3.4279,-3.4762,-3.397,-3.202,-3.1585,-3.0483,-2.8766,-2.7605,-2.6364,-2.5098,-2.4879,-2.4593,-2.4303,-2.4375,-2.3962,-2.3279,-2.308,-2.1909,-2.0378,-2.0029,-1.886,-1.7471,-1.7182,-1.6639,-1.5889,-1.4882,-1.5102,-1.5471,-1.4435,-1.3985,-1.3916,-1.4368,-1.4879,-1.5225,-1.5074,-1.5828,-1.6826,-1.76,-1.7282,-1.7107,-1.8135,-1.8658,-1.8969,-1.8956,-1.9231,-1.9494,-1.9633,-1.917,-1.8934,-1.9086,-1.8771,-1.8703,-1.9339,-1.8966,-1.8718,-1.8834,-1.8607,-1.8662,-1.8874,-1.9064,-1.9606,-2.0481,-2.0521,-2.0657,-2.0876,-2.0712,-2.0401,-1.9942,-1.9143,-1.8585,-1.8264,-1.7041,-1.5544,-2.2543,0.0,0.0,0.0,0.0,0.0,-2.0439,0.0,-1.9877,-1.9923,-1.9775,-1.9608,-1.9696,-2.0089,-2.0333,-2.0411,-2.1558,-2.2553,-2.2767,-2.3779,-2.4661,-2.5087,-2.6013,-2.6792,-2.7232,-2.8612,-2.9733,-3.0533,-3.2351,-3.3714,-3.4447,-3.5438,-3.6242,-3.6847,-3.7082,-3.7202,-3.7198,-3.7871,-3.754,-3.6212,-3.5618,-3.4583,-3.3143,-3.2336,-3.0957,-2.9091,-2.8011,-2.6799,-2.5554,-2.4668,-2.4339,-2.4458,-2.4561,-2.4136,-2.3412,-2.3215,-2.2126,-2.073,-2.0431,-1.9224,-1.7677,-1.696,-1.6154,-1.5282,-1.4362,-1.4616,-1.4881,-1.3339,-1.3548,-1.4278,-1.4457,-1.4381,-1.4504,-1.5314,-1.6083,-1.6775,-1.7445,-1.8382,-1.9167,-1.9415,-1.9812,-2.0217,-2.045,-2.059,-2.0633,-2.0383,-2.0411,-2.0304,-1.9799,-2.0074,-2.0248,-1.9975,-1.9714,-1.9532,-1.9396,-1.8942,-1.8934,-1.952,-1.9492,-1.9817,-2.0586,-2.0617,-2.0762,-2.1077,-2.1002,-2.0939,-2.0809,-1.9863,-1.9152,-1.8754,-1.7691,-1.6333,0.0,0.0,0.0,0.0,0.0,0.0,-2.0158,-1.9602,-1.9187,-1.9125,-1.8913,-1.8825,-1.8904,-1.9301,-1.9627,-1.9469,-2.0634,-2.1634,-2.1939,-2.3043,-2.4008,-2.4542,-2.5734,-2.6817,-2.7409,-2.903,-3.038,-3.1313,-3.3316,-3.5074,-3.6455,-3.733,-3.7837,-3.7971,-3.8102,-3.808,-3.7984,-3.8189,-3.7907,-3.7171,-3.649,-3.5576,-3.4488,-3.3504,-3.2225,-3.0676,-2.9117,-2.7888,-2.6868,-2.5748,-2.5002,-2.4636,-2.4734,-2.454,-2.4147,-2.3971,-2.2924,-2.1473,-2.0875,-1.9538,-1.7904,-1.6643,-1.56,-1.4705,-1.3801,-1.3563,-1.3408,-1.2383,-1.2772,-1.3443,-1.336,-1.3718,-1.4338,-1.5188,-1.6248,-1.7213,-1.7753,-1.914,-2.0272,-2.022,-2.0856,-2.1507,-2.178,-2.1894,-2.1929,-2.1763,-2.1681,-2.1501,-2.1194,-2.125,-2.1188,-2.0912,-2.0456,-2.0064,-1.9736,-1.9208,-1.9122,-1.9458,-1.9342,-1.9538,-2.0261,-2.0352,-2.0429,-2.0679,-2.0751,-2.0822,-2.0717,-2.0246,-1.9706,-1.9073,-1.825,-1.7136,0.0,0.0,0.0,0.0,-2.1639,0.0,-2.0245,-1.926,-1.8467,-1.8461,-1.8201,-1.8031,-1.8273,-1.8834,-1.9222,-1.9301,-2.001,-2.0712,-2.1395,-2.251,-2.3525,-2.413,-2.5569,-2.6733,-2.7515,-2.9044,-3.0514,-3.1743,-3.3805,-3.5948,-3.799,-3.8551,-3.8651,-3.8433,-3.8839,-3.878,-3.8197,-3.8383,-3.8164,-3.7534,-3.727,-3.6726,-3.5905,-3.4857,-3.3804,-3.2737,-3.0596,-2.9303,-2.8543,-2.7368,-2.611,-2.4959,-2.5017,-2.5061,-2.5082,-2.4866,-2.3815,-2.2343,-2.1198,-1.9688,-1.8006,-1.63,-1.5074,-1.4138,-1.3281,-1.2347,-1.1576,-1.1541,-1.1663,-1.1832,-1.184,-1.3066,-1.4436,-1.5016,-1.6486,-1.7903,-1.8438,-1.976,-2.0903,-2.0953,-2.1849,-2.2693,-2.2963,-2.3065,-2.3224,-2.3354,-2.2951,-2.269,-2.2889,-2.2289,-2.1896,-2.2015,-2.1262,-2.0571,-2.0129,-1.9528,-1.9198,-1.9198,-1.9008,-1.9127,-1.9734,-1.9754,-1.9903,-2.0134,-2.0329,-2.0359,-2.0155,-2.0426,-2.011,-1.9233,-1.8711,-1.7796,0.0,0.0,0.0,0.0,0.0,0.0,-2.0308,-1.9806,-1.9443,-1.8745,-1.8282,-1.804,-1.804,-1.8353,-1.8754,-1.9222,-1.9696,-2.0411,-2.1339,-2.2542,-2.3756,-2.4944,-2.6362,-2.7708,-2.8823,-3.0024,-3.1509,-3.3175,-3.6011,-3.8371,-3.9939,-3.9922,-4.0069,-4.0526,-4.0251,-3.9823,-3.9301,-3.9483,-3.9145,-3.8272,-3.768,-3.7204,-3.6817,-3.5357,-3.4159,-3.313,-3.1529,-3.0129,-2.8815,-2.7391,-2.6428,-2.5853,-2.5906,-2.5634,-2.508,-2.4302,-2.3415,-2.2334,-2.0676,-1.8993,-1.7413,-1.6305,-1.4875,-1.3538,-1.3248,-1.2064,-1.0759,-1.0552,-0.9957,-0.9912,-1.2173,-1.3207,-1.4076,-1.5666,-1.7073,-1.8271,-1.9235,-2.076,-2.2208,-2.3152,-2.2972,-2.2999,-2.3955,-2.3789,-2.3664,-2.3918,-2.3925,-2.3838,-2.3559,-2.343,-2.3272,-2.2871,-2.2137,-2.1514,-2.1135,-2.0366,-1.9846,-1.9736,-1.9539,-1.9515,-1.961,-1.961,-1.9832,-2.0239,-2.0526,-2.0644,-2.0594,-2.0183,-1.9679,-1.9216,-1.863,-1.7852,0.0,0.0,0.0,-2.2422,0.0,0.0,0.0,-2.0163,-1.9684,-1.9138,-1.8574,-1.8253,-1.8615,-1.8726,-1.9063,-1.9618,-2.0167,-2.0934,-2.208,-2.2767,-2.3728,-2.5146,-2.6582,-2.7973,-2.9393,-3.0524,-3.2173,-3.4715,-3.7502,-3.9699,-4.124,-4.1503,-4.1644,-4.1761,-4.1413,-4.0904,-4.0306,-4.0483,-4.0375,-3.9926,-3.916,-3.8743,-3.8535,-3.6923,-3.5703,-3.4775,-3.3303,-3.1777,-3.0272,-2.9223,-2.8013,-2.6706,-2.5956,-2.55,-2.5152,-2.4236,-2.3386,-2.2383,-2.0165,-1.8581,-1.7254,-1.5475,-1.4016,-1.2765,-1.1791,-1.0251,-0.8892,-0.9056,-0.894,-0.9209,-1.1189,-1.2546,-1.3867,-1.5741,-1.7075,-1.8386,-2.0094,-2.156,-2.3,-2.4417,-2.4773,-2.4987,-2.5495,-2.5236,-2.5003,-2.5283,-2.5418,-2.5425,-2.5118,-2.4878,-2.4583,-2.4073,-2.3142,-2.2372,-2.1939,-2.1187,-2.0624,-2.0388,-2.0053,-1.9684,-1.9329,-1.9318,-1.9254,-1.9329,-1.9477,-1.9539,-1.956,-1.9075,-1.9061,-1.9486,-1.8764,-1.7947,0.0,0.0,0.0,0.0,0.0,-2.1875,0.0,0.0,0.0,-1.9344,-1.8896,-1.87,-1.9181,-1.929,-1.9608,-2.0313,-2.1011,-2.1832,-2.3169,-2.3548,-2.412,-2.5451,-2.6883,-2.8271,-2.9813,-3.1265,-3.3378,-3.6351,-3.8712,-4.0713,-4.2275,-4.2977,-4.3237,-4.3023,-4.285,-4.237,-4.157,-4.1741,-4.1687,-4.1397,-4.0559,-4.0152,-4.0037,-3.8401,-3.721,-3.6381,-3.4984,-3.3382,-3.1675,-3.0895,-2.9361,-2.7367,-2.6066,-2.547,-2.5177,-2.4149,-2.3362,-2.2417,-1.965,-1.8157,-1.7067,-1.4629,-1.3017,-1.1643,-0.97,-0.8082,-0.6996,-0.7433,-0.7941,-0.863,-0.9858,-1.1609,-1.3551,-1.5423,-1.6894,-1.8474,-2.0593,-2.2079,-2.3549,-2.5287,-2.6503,-2.7152,-2.6992,-2.6803,-2.6696,-2.6944,-2.7097,-2.7089,-2.6804,-2.6445,-2.6022,-2.5488,-2.4411,-2.3479,-2.3008,-2.2173,-2.1577,-2.121,-2.0688,-2.0081,-1.9304,-1.9007,-1.8719,-1.8394,-1.8445,-1.8445,-1.8505,-1.8201,-1.8529,-1.9354,-1.8497,-1.7812,0.0,0.0,0.0,0.0,-2.3066,0.0,-2.1261,0.0,-2.0476,-1.9519,0.0,-1.8931,-1.9056,0.0,0.0,-2.0934,-2.1669,-2.2702,-2.4264,-2.5356,-2.6083,-2.6667,-2.7933,-2.9303,-3.0466,-3.3356,-3.5983,-3.8121,-4.0113,-4.1883,-4.3441,-4.4228,-4.479,-4.5235,-4.5388,-4.4834,-4.3476,-4.3632,-4.2909,-4.1397,-4.0685,-4.0277,-4.0037,-3.8554,-3.7386,-3.6535,-3.5757,-3.4069,-3.1768,-3.0338,-2.8848,-2.749,-2.735,-2.6496,-2.51,-2.3522,-2.2885,-2.2334,-1.9057,-1.737,-1.6339,-1.4552,-1.2298,-0.9829,-0.7363,-0.6425,-0.6181,-0.6001,-0.6349,-0.7169,-0.8885,-1.0779,-1.2717,-1.4595,-1.6818,-1.8867,-2.0258,-2.2133,-2.4103,-2.6066,-2.7236,-2.7834,-2.764,-2.7882,-2.8261,-2.8554,-2.8533,-2.8423,-2.8097,-2.804,-2.7781,-2.7096,-2.6311,-2.5608,-2.4925,-2.3666,-2.2725,-2.2249,-2.1741,-2.1008,-2.002,-1.9166,-1.862,-1.8384,-1.8566,-1.8687,-1.8819,-1.8698,-1.8379,-1.7914,-1.7219,-1.6722,0.0,0.0,0.0,0.0,0.0,0.0,-2.1971,-2.1439,-2.0938,-2.069,0.0,0.0,0.0,0.0,0.0,0.0,-2.2936,-2.4024,-2.5591,-2.6912,-2.7762,-2.7919,-2.9108,-3.0718,-3.2701,-3.4886,-3.7024,-3.8987,-4.1137,-4.3005,-4.4466,-4.5319,-4.5924,-4.6355,-4.6195,-4.5648,-4.4615,-4.4761,-4.4216,-4.3062,-4.2214,-4.1516,-4.0985,-3.9787,-3.8303,-3.6634,-3.6384,-3.4633,-3.192,-3.1392,-2.9729,-2.7514,-2.7605,-2.642,-2.4455,-2.3259,-2.2211,-2.1082,-1.8688,-1.6953,-1.536,-1.2611,-1.0234,-0.812,-0.6465,-0.5602,-0.5218,-0.541,-0.5592,-0.6163,-0.7989,-0.9542,-1.1225,-1.3428,-1.5903,-1.8291,-2.0436,-2.2577,-2.4731,-2.6767,-2.8478,-2.9682,-2.9991,-2.9883,-2.9939,-3.0243,-3.06,-3.0661,-3.038,-2.9914,-2.9505,-2.9135,-2.8006,-2.6914,-2.6106,-2.5239,-2.4314,-2.3399,-2.1955,-2.0677,-1.9703,-1.8782,-1.8171,-1.7734,-1.8046,-1.8114,-1.7902,-1.8068,-1.7926,-1.7578,-1.7277,-1.6822,-2.5684,-2.5116,-2.485,-2.427,-2.363,-2.293,-2.259,-2.2072,-2.1778,-2.1778,-2.1599,0.0,0.0,0.0,-2.2777,-2.3538,0.0,-2.5739,-2.7182,-2.8468,-2.9247,-2.9233,-3.0617,-3.2561,-3.5009,-3.65,-3.8152,-4.0289,-4.2429,-4.4226,-4.5616,-4.6625,-4.7219,-4.7369,-4.735,-4.6873,-4.5932,-4.5823,-4.5394,-4.4603,-4.3469,-4.2489,-4.1651,-4.0746,-3.9008,-3.6738,-3.6833,-3.5016,-3.2019,-3.1996,-3.0198,-2.75,-2.7402,-2.5866,-2.3645,-2.3044,-2.1789,-2.0136,-1.8208,-1.5935,-1.3378,-1.0332,-0.822,-0.6629,-0.5555,-0.476,-0.4318,-0.4738,-0.4938,-0.543,-0.7198,-0.8598,-1.0126,-1.2466,-1.5222,-1.797,-2.0342,-2.3024,-2.5592,-2.7622,-2.9619,-3.1234,-3.227,-3.1953,-3.1625,-3.1871,-3.2348,-3.254,-3.2235,-3.1793,-3.1306,-3.0964,-2.9754,-2.8527,-2.7556,-2.6676,-2.5578,-2.4068,-2.2298,-2.0859,-1.978,-1.897,-1.8183,-1.7485,-1.7779,-1.7668,-1.7134,-1.7342,-1.7351,-1.7243,-1.7185,-1.6849,-2.729,-2.6625,-2.5826,-2.465,-2.4104,-2.3562,-2.2637,-2.2764,-2.2995,-2.2527,-2.3187,-2.3801,-2.3823,-2.4513,-2.5199,-2.5382,-2.6539,0.0,0.0,-3.014,-3.0601,-3.0557,-3.2585,-3.4857,-3.7017,-3.828,-4.0109,-4.2684,-4.4143,-4.5523,-4.6856,-4.8339,-4.8941,-4.8569,-4.9471,-4.9259,-4.7742,-4.7081,-4.6307,-4.5443,-4.3914,-4.2651,-4.1679,-4.0933,-3.9189,-3.6789,-3.6932,-3.5132,-3.2044,-3.1411,-2.9699,-2.7443,-2.6791,-2.4971,-2.2756,-2.2856,-2.1829,-2.0048,-1.7521,-1.3846,-0.9959,-0.8085,-0.6663,-0.5423,-0.4157,-0.3665,-0.3563,-0.3706,-0.4165,-0.4989,-0.6604,-0.8211,-0.9899,-1.1784,-1.5129,-1.8243,-1.9627,-2.3215,-2.6731,-2.8779,-3.0413,-3.2108,-3.4053,-3.3844,-3.341,-3.3425,-3.3455,-3.3408,-3.3238,-3.3531,-3.3321,-3.2362,-3.1678,-3.0835,-2.9682,-2.8025,-2.6106,-2.3958,-2.3017,-2.2034,-2.0987,-2.0062,-1.9152,-1.8258,-1.808,-1.7639,-1.691,-1.6869,-1.6719,-1.6507,-1.6612,-1.6374,-2.7437,-2.7013,-2.6606,-2.5608,-2.4911,-2.4279,-2.3481,-2.3525,-2.3788,-2.3755,-2.4371,-2.5015,-2.5304,-2.5919,-2.6617,-2.731,-2.8562,-2.974,0.0,-3.2555,-3.411,-3.4807,-3.5428,-3.6649,-3.8802,-3.9683,-4.1366,-4.4372,-4.5311,-4.6703,-4.8996,-4.982,-5.0021,-4.9619,-5.0021,-4.9493,-4.8015,-4.7155,-4.6345,-4.5611,-4.4427,-4.3146,-4.181,-4.1437,-3.963,-3.6789,-3.6858,-3.504,-3.2019,-3.1882,-3.0088,-2.7361,-2.6656,-2.4874,-2.2643,-2.2156,-2.0578,-1.8222,-1.5048,-1.2195,-0.965,-0.7697,-0.6526,-0.5497,-0.3512,-0.2541,-0.2194,-0.2596,-0.3051,-0.3769,-0.5335,-0.6869,-0.8612,-1.0988,-1.4455,-1.787,-2.0179,-2.3582,-2.6923,-2.9455,-3.1513,-3.332,-3.4891,-3.5669,-3.5953,-3.5534,-3.5964,-3.6084,-3.5584,-3.5149,-3.4703,-3.4135,-3.2991,-3.1898,-3.1025,-2.8905,-2.686,-2.5166,-2.4269,-2.3142,-2.1667,-2.0695,-1.9859,-1.9094,-1.8665,-1.8129,-1.7485,-1.7601,-1.7436,-1.7046,-1.6792,-1.6273,-2.7905,-2.7415,-2.7209,-2.6394,-2.5803,-2.5284,-2.4856,-2.4955,-2.5355,-2.5889,-2.6487,-2.715,-2.7897,-2.8258,-2.8809,-2.966,-3.0745,-3.1832,0.0,-3.5198,-3.7225,-3.8563,-3.8416,0.0,0.0,-4.1564,-4.3275,-4.5735,-4.6686,-4.8104,-5.0258,-5.0908,-5.1023,-5.0598,-5.102,-5.049,-4.9008,-4.8134,-4.7173,-4.6148,-4.4897,-4.3436,-4.1865,-4.1418,-3.9611,-3.6763,-3.6491,-3.4713,-3.1979,-3.1824,-3.0071,-2.7361,-2.6583,-2.4784,-2.2536,-2.144,-1.9092,-1.6041,-1.3162,-1.0742,-0.8608,-0.6827,-0.5568,-0.4373,-0.2468,-0.1431,-0.1023,-0.1616,-0.2047,-0.2789,-0.4732,-0.6314,-0.807,-1.0663,-1.417,-1.772,-2.0531,-2.398,-2.7351,-3.0149,-3.2363,-3.4277,-3.5624,-3.6911,-3.7539,-3.6911,-3.7233,-3.7331,-3.6685,-3.6235,-3.5683,-3.5078,-3.3925,-3.2538,-3.1012,-2.9421,-2.7607,-2.5646,-2.5023,-2.4053,-2.248,-2.1738,-2.0941,-1.9945,-1.9449,-1.8676,-1.7678,-1.7747,-1.7518,-1.701,-1.6587,-1.5964]},{"header":{"parameterUnit":"m.s-1","parameterCategory":1,"la1":30.6,"la2":29.2853,"lo1":-89.7004,"lo2":-87.6739,"dy":0.0162,"dx":0.0183,"nx":112,"ny":82,"refTime":"2023-05-10T12:00:00:Z","depth":0,"parameterNumber":3,"parameterNumberName":"V-component_of_WINDS"},"data":[0.0,0.0,0.0,0.0,0.0,0.0,0.0,0.0,0.0,0.0,0.0,0.0,0.0,0.0,0.0,0.0,0.0,0.0,0.0,0.0,0.0,0.0,0.0,0.0,0.0,0.0,0.0,0.0,0.0,0.0,0.0,0.0,0.0,0.0,0.0,0.0,0.0,0.0,0.0,0.0,0.0,0.0,0.0,0.0,0.0,0.0,0.0,0.0,0.0,0.0,0.0,0.0,0.0,0.0,0.0,0.0,0.0,0.0,0.0,0.0,0.0,0.0,0.0,0.0,0.0,0.0,0.0,0.0,0.0,0.0,0.0,0.0,0.0,0.0,0.0,0.0,0.0,0.0,0.0,0.0,0.0,0.0,0.0,0.0,0.0,0.0,0.0,0.0,0.0,0.0,1.0229,1.0721,1.0962,1.008,0.7574,0.7324,0.6543,0.4787,0.0,0.0,0.0,0.0,0.0,0.0,0.0,0.0,0.0,0.0,0.0,0.0,0.0,0.0,0.0,0.0,0.0,0.0,0.0,0.0,0.0,0.0,0.0,0.0,0.0,0.0,0.0,0.0,0.0,0.0,0.0,0.0,0.0,0.0,0.0,0.0,0.0,0.0,0.0,0.0,0.0,0.0,0.0,0.0,0.0,0.0,0.0,0.0,0.0,0.0,0.0,0.0,0.0,0.0,0.0,0.0,0.0,0.0,0.0,0.0,0.0,0.0,0.0,0.0,0.0,0.0,0.0,0.0,0.0,0.0,0.0,0.0,0.0,0.0,0.0,0.0,0.0,0.0,0.0,0.0,0.0,0.0,0.0,0.0,0.0,0.0,0.0,0.0,0.0,0.0,0.0,0.0,0.0,0.0,0.0,0.0,0.0,0.0,0.0,0.0,0.0,0.0,0.0,0.0,1.0729,1.0649,1.086,0.9988,0.7442,0.7275,0.6504,0.4644,0.0,0.0,0.0,0.0,0.0,0.0,0.0,0.0,0.0,0.0,0.0,0.0,0.0,0.0,0.0,0.0,0.0,0.0,0.0,0.0,0.0,0.0,0.0,0.0,0.0,0.0,0.0,0.0,0.0,0.0,0.0,0.0,0.0,0.0,0.0,0.0,0.0,0.0,0.0,0.0,0.0,0.0,0.0,0.0,0.0,0.0,0.0,0.0,0.0,0.0,0.0,0.0,0.0,0.0,0.0,0.0,0.0,0.0,0.0,0.0,0.0,0.0,0.0,0.0,0.0,0.0,0.0,0.0,0.0,0.0,0.0,0.0,0.0,0.0,0.0,0.0,0.0,0.0,0.0,0.0,0.0,0.0,0.0,0.0,0.0,0.0,0.0,0.0,0.0,0.0,0.0,0.0,0.0,0.0,0.0,0.0,0.0,0.0,0.0,0.0,0.0,0.0,0.0,1.1694,1.1605,1.1629,1.1065,0.9851,0.7863,0.7352,0.6365,0.4561,0.3734,0.0,0.0,0.0,0.0,0.0,0.0,0.0,0.0,0.0,0.0,0.0,0.0,0.0,0.0,0.0,0.0,0.0,0.0,0.0,0.0,0.0,0.0,0.0,0.0,0.0,0.0,0.0,0.0,0.0,0.0,0.0,0.0,0.0,0.0,0.0,0.0,0.0,0.0,0.0,0.0,0.0,0.0,0.0,0.0,0.0,0.0,0.0,0.0,0.0,0.0,0.0,0.0,0.0,0.0,0.0,0.0,0.0,0.0,0.0,0.0,0.0,0.0,0.0,0.0,0.0,0.0,0.0,0.0,0.0,0.0,0.0,0.0,0.0,0.0,0.0,0.0,0.0,0.0,0.0,0.0,0.0,0.0,0.0,0.0,0.0,0.0,0.0,0.0,0.0,0.0,0.0,0.0,0.0,0.0,0.0,0.0,0.0,0.0,0.0,0.0,0.0,0.0,1.274,1.2396,1.2213,1.1297,1.0006,0.8275,0.7402,0.6341,0.492,0.3667,0.0,0.0,0.0,0.0,0.0,0.0,0.0,0.0,0.0,0.0,0.0,0.0,0.0,0.0,0.0,0.0,0.0,0.0,0.0,0.0,0.0,0.0,0.0,0.0,0.0,0.0,0.0,0.0,0.0,0.0,0.0,0.0,0.0,0.0,0.0,0.0,0.0,0.0,0.0,0.0,0.0,0.0,0.0,0.0,0.0,0.0,0.0,0.0,0.0,0.0,0.0,0.0,0.0,0.0,0.0,0.0,0.0,0.0,0.0,0.0,0.0,0.0,0.0,0.0,0.0,0.0,0.0,0.0,0.0,0.0,0.0,0.0,0.0,0.0,0.0,0.0,0.0,0.0,0.0,0.0,0.0,0.0,0.0,0.0,0.0,0.0,0.0,0.0,0.0,0.0,0.0,0.0,0.0,0.0,0.0,0.0,0.0,0.0,0.0,0.0,0.0,0.0,1.3295,1.28,1.1434,1.1486,1.0688,0.8376,0.7341,0.6601,0.6102,0.4489,0.0,0.0,0.0,0.0,0.0,0.0,0.0,0.0,0.0,0.0,0.0,0.0,0.0,0.0,0.0,0.0,0.0,0.0,0.0,0.0,0.0,0.0,0.0,0.0,0.0,0.0,0.0,0.0,0.0,0.0,0.0,0.0,0.0,0.0,0.0,0.0,0.0,0.0,0.0,0.0,0.0,0.0,0.0,0.0,0.0,0.0,0.0,0.0,0.0,0.0,0.0,0.0,0.0,0.0,0.0,0.0,0.0,0.0,0.0,0.0,0.0,0.0,0.0,0.0,0.0,0.0,0.0,0.0,0.0,0.0,0.0,0.0,0.0,0.0,0.0,0.0,0.0,0.0,0.0,0.0,0.0,0.0,0.0,0.0,0.0,0.0,0.0,0.0,0.0,0.0,0.0,0.0,0.0,0.0,0.0,0.0,0.0,0.0,0.0,0.0,0.0,0.0,1.36,1.3248,1.2189,1.189,1.0795,0.839,0.7343,0.6322,0.5211,0.0,0.0,0.0,0.0,0.0,0.0,0.0,0.0,0.0,0.0,0.0,0.0,0.0,0.0,0.0,0.0,0.0,0.0,0.0,0.0,0.0,0.0,0.0,0.0,0.0,0.0,0.0,0.0,0.0,0.0,0.0,0.0,0.0,0.0,0.0,0.0,0.0,0.0,0.0,0.0,0.0,0.0,0.0,0.0,0.0,0.0,0.0,0.0,0.0,0.0,0.0,0.0,0.0,0.0,0.0,0.0,0.0,0.0,0.0,0.0,0.0,0.0,0.0,0.0,0.0,0.0,0.0,0.0,0.0,0.0,0.0,0.0,0.0,0.0,0.0,0.0,0.0,0.0,0.0,0.0,0.0,0.0,0.0,0.0,0.0,0.0,0.0,0.0,0.0,0.0,0.0,0.0,0.0,0.0,0.0,0.0,0.0,0.0,0.0,0.0,0.0,0.0,1.3979,1.3962,1.3547,1.2483,1.209,1.0922,0.8505,0.7362,0.6313,0.5266,0.0,0.0,0.0,0.0,0.0,0.0,0.0,0.0,0.0,0.0,0.0,0.0,0.0,0.0,0.0,0.0,0.0,0.0,0.0,0.0,0.0,0.0,0.0,0.0,0.0,0.0,0.0,0.0,0.0,0.0,0.0,0.0,0.0,0.0,0.0,0.0,0.0,0.0,0.0,0.0,0.0,0.0,0.0,0.0,0.0,0.0,0.0,0.0,0.0,0.0,0.0,0.0,0.0,0.0,0.0,0.0,0.0,0.0,0.0,0.0,0.0,0.0,0.0,0.0,0.0,0.0,0.0,0.0,0.0,0.0,0.0,0.0,0.0,0.0,0.0,0.0,0.0,0.0,0.0,0.0,0.0,0.0,0.0,0.0,0.0,0.0,0.0,0.0,0.0,0.0,0.0,0.0,0.0,0.0,0.0,0.0,0.0,0.0,0.0,0.0,0.0,0.0,1.4511,1.4397,1.3695,1.2087,1.203,1.1111,0.8706,0.7396,0.6694,0.0,0.0,0.0,0.0,0.0,0.0,0.0,0.0,0.0,0.0,0.0,0.0,0.0,0.0,0.0,0.0,0.0,0.0,0.0,0.0,0.0,0.0,0.0,0.0,0.0,0.0,0.0,0.0,0.0,0.0,0.0,0.0,0.0,0.0,0.0,0.0,0.0,0.0,0.0,0.0,0.0,0.0,0.0,0.0,0.0,0.0,0.0,0.0,0.0,0.0,0.0,0.0,0.0,0.0,0.0,0.0,0.0,0.0,0.0,0.0,0.0,0.0,0.0,0.0,0.0,0.0,0.0,0.0,0.0,0.0,0.0,0.0,0.0,0.0,0.0,0.0,0.0,0.0,0.0,0.0,0.0,0.0,0.0,0.0,0.0,0.0,0.0,0.0,0.0,0.0,0.0,0.0,0.0,0.0,0.0,0.0,0.0,0.0,0.0,0.0,0.0,0.0,0.0,1.4863,1.4816,1.414,1.2427,1.2363,1.1193,0.8069,0.7379,0.6538,0.5162,0.0,0.0,0.0,0.0,0.0,0.0,0.0,0.0,0.0,0.0,0.0,0.0,0.0,0.0,0.0,0.0,0.0,0.0,0.0,0.0,0.0,0.0,0.0,0.0,0.0,0.0,0.0,0.0,0.0,0.0,0.0,0.0,0.0,0.0,0.0,0.0,0.0,0.0,0.0,0.0,0.0,0.0,0.0,0.0,0.0,0.0,0.0,0.0,0.0,0.0,0.0,0.0,0.0,0.0,0.0,0.0,0.0,0.0,0.0,0.0,0.0,0.0,0.0,0.0,0.0,0.0,0.0,0.0,0.0,0.0,0.0,0.0,0.0,0.0,0.0,0.0,0.0,0.0,0.0,0.0,0.0,0.0,0.0,0.0,0.0,0.0,0.0,0.0,0.0,0.0,0.0,0.0,0.0,0.0,0.0,0.0,0.0,0.0,0.0,0.0,0.0,0.0,1.5125,1.5097,1.443,1.2734,1.2606,1.1409,0.8329,0.7591,0.6549,0.4749,0.0,0.0,0.0,0.0,0.0,0.0,0.0,0.0,0.0,0.0,0.0,0.0,0.0,0.0,0.0,0.0,0.0,0.0,0.0,0.0,0.0,0.0,0.0,0.0,0.0,0.0,0.0,0.0,0.0,0.0,0.0,0.0,0.0,0.0,0.0,0.0,0.0,0.0,0.0,0.0,0.0,0.0,0.0,0.0,0.0,0.0,0.0,0.0,0.0,0.0,0.0,0.0,0.0,0.0,0.0,0.0,0.0,0.0,0.0,0.0,0.0,0.0,0.0,0.0,0.0,0.0,0.0,0.0,0.0,0.0,0.0,0.0,0.0,0.0,0.0,0.0,0.0,0.0,0.0,0.0,0.0,0.0,0.0,0.0,0.0,0.0,0.0,0.0,0.0,0.0,0.0,0.0,0.0,0.0,0.0,0.0,0.0,0.0,0.0,0.0,0.0,0.0,1.5441,1.5377,1.4711,1.3093,1.2796,1.1701,0.9229,0.805,0.6749,0.5113,0.0,0.0,0.0,0.0,0.0,0.0,0.0,0.0,0.0,0.0,0.0,0.0,0.0,0.0,0.0,0.0,0.0,0.0,0.0,0.0,0.0,0.0,0.0,0.0,0.0,0.0,0.0,0.0,0.0,0.0,0.0,0.0,0.0,0.0,0.0,0.0,0.0,0.0,0.0,0.0,0.0,0.0,0.0,0.0,0.0,0.0,0.0,0.0,0.0,0.0,0.0,0.0,0.0,0.0,0.0,0.0,0.0,0.0,0.0,0.0,0.3962,0.3832,0.0,0.0,0.0,0.0,0.0,0.0,0.0,0.0,0.0,0.0,0.0,0.0,0.0,0.0,0.0,0.0,0.0,0.0,0.0,0.0,0.0,0.0,0.0,0.0,0.0,0.0,0.0,0.0,0.0,0.0,0.0,0.0,0.0,0.0,0.0,0.0,0.0,0.0,0.0,0.0,1.6413,1.6357,1.5714,1.4015,1.3202,1.1992,1.0096,0.9078,0.7549,0.5151,0.4441,0.0,0.0,0.0,0.0,0.0,0.0,0.0,0.0,0.0,0.0,0.0,0.0,0.0,0.0,0.0,0.0,0.0,0.0,0.0,0.0,0.0,0.0,0.0,0.0,0.0,0.0,0.0,0.0,0.0,0.0,0.0,0.0,0.0,0.0,0.0,0.0,0.0,0.0,0.0,0.0,0.0,0.0,0.0,0.0,0.0,0.0,0.0,0.0,0.0,0.0,0.0,0.0,0.0,0.0,0.0,0.0,0.0,0.0,0.0,0.4907,0.4607,0.0,0.0,0.0,0.0,0.0,0.0,0.0,0.0,0.0,0.0,0.0,0.0,0.0,0.0,0.0,0.0,0.0,0.0,0.0,0.0,0.0,0.0,0.0,0.0,0.0,0.0,0.0,0.0,0.0,0.0,0.0,0.0,0.0,0.0,0.0,0.0,0.0,0.0,0.0,0.0,1.7281,1.7229,1.658,1.4853,1.4237,1.327,1.1551,1.021,0.8878,0.7487,0.6207,0.0,0.0,0.0,0.0,0.0,0.0,0.0,0.0,0.0,0.0,0.0,0.0,0.0,0.0,0.0,0.0,0.0,0.0,0.0,0.0,0.0,0.0,0.0,0.0,0.0,0.0,0.0,0.0,0.0,0.0,0.0,0.0,0.0,0.0,0.0,0.0,0.0,0.0,0.0,0.0,0.0,0.0,0.0,0.0,0.0,0.0,0.0,0.0,0.0,0.0,0.0,0.0,0.0,1.4449,1.1978,0.9854,0.8302,0.825,0.9216,0.7183,0.6923,0.8154,0.9282,0.0,0.0,0.0,0.0,0.0,0.0,0.0,0.0,0.0,0.0,0.0,0.0,0.0,0.0,0.0,0.0,0.0,0.0,0.0,0.0,0.0,0.0,3.6703,3.51,3.5051,3.4426,3.0886,0.0,0.0,0.0,0.0,0.0,0.0,0.0,0.0,0.0,0.0,0.0,1.8111,1.8056,1.741,1.5889,1.5526,1.4787,1.3271,1.1669,1.0598,1.0249,0.8168,0.6334,0.0,0.0,0.0,0.0,0.0,0.0,0.0,0.0,0.0,0.0,0.0,0.0,0.0,0.0,0.0,0.0,0.0,0.0,0.0,0.0,0.0,0.0,0.0,0.0,0.0,0.0,0.0,0.0,0.0,0.0,0.0,0.0,2.318,2.3703,0.0,0.0,0.0,0.0,0.0,0.0,0.0,0.0,0.0,0.0,0.0,0.0,0.0,3.1517,2.9503,2.6183,2.2843,1.9615,1.6586,1.4236,1.2538,1.12,1.1418,1.3005,1.4297,0.0,1.0659,1.11,0.0,0.0,0.0,0.0,0.0,0.0,0.0,0.0,0.0,0.0,0.0,0.0,0.0,0.0,0.0,0.0,0.0,0.0,0.0,0.0,0.0,0.0,3.8435,3.739,3.6633,3.578,3.4432,3.1909,2.8979,2.5909,2.5234,2.4632,0.0,0.0,0.0,0.0,0.0,0.0,1.9033,1.8872,1.8468,1.7485,1.6708,1.5875,1.4951,1.3906,1.2691,1.1212,0.9913,0.8588,0.7303,0.5611,0.0,0.0,0.0,0.0,0.0,0.0,0.0,0.0,0.0,0.0,0.0,0.0,0.0,0.0,0.0,0.0,0.0,0.0,0.0,0.0,0.0,0.0,0.0,0.0,0.0,0.0,0.0,0.0,0.0,2.4177,2.5062,2.5149,2.5541,2.5678,0.0,0.0,0.0,0.0,0.0,0.0,0.0,0.0,0.0,2.9355,3.0348,3.0304,2.9085,2.6476,2.3774,2.1078,1.8442,1.6134,1.4194,1.3832,1.3996,1.4577,1.6087,1.5926,1.4631,1.3941,1.4364,1.55,0.0,0.0,0.0,0.0,1.8994,1.9233,2.0608,2.1258,2.1804,2.3841,0.0,0.0,0.0,0.0,0.0,0.0,0.0,3.9099,3.8712,3.9136,3.9432,3.8499,3.7604,3.6597,3.5249,3.3498,3.1333,2.8536,2.6864,2.5548,2.4389,2.3071,0.0,0.0,0.0,2.1394,2.0554,2.0396,1.9838,1.8524,1.8002,1.7412,1.6617,1.5274,1.4144,1.3379,1.186,1.0247,0.8557,0.7437,0.6197,0.0,0.0,0.0,0.0,0.0,0.0,0.0,0.0,0.0,0.0,0.0,0.0,0.0,0.0,0.0,0.0,0.0,0.0,0.0,0.0,0.0,0.0,0.0,0.0,0.0,0.0,0.0,0.0,2.6031,2.6553,2.6552,2.6793,2.6669,0.0,0.0,0.0,0.0,0.0,0.0,2.5168,2.6706,2.7742,2.8107,2.8801,2.8931,2.8498,2.624,2.4153,2.2182,1.9606,1.746,1.5684,1.5624,1.5708,1.591,1.6819,1.7457,1.7853,1.6574,1.6559,1.7424,1.8402,1.9261,1.9946,2.0845,2.1158,2.128,2.271,2.3141,2.3348,2.4958,2.7266,2.9591,3.0583,0.0,0.0,0.0,0.0,3.9331,3.9352,3.9756,3.9929,3.9013,3.8289,3.7376,3.5666,3.4604,3.3238,3.0617,2.8608,2.7026,2.601,2.4443,0.0,2.3438,2.3054,2.2537,2.1891,2.1578,2.091,1.9668,1.9307,1.8802,1.7983,1.6694,1.574,1.5261,1.3654,1.1928,1.01,0.9127,0.7779,0.5984,0.0,0.0,0.0,0.0,0.0,0.0,0.0,0.0,0.0,0.0,0.0,0.0,0.0,0.0,0.0,0.0,0.0,0.0,0.0,0.0,0.0,0.0,0.0,0.0,0.0,0.0,0.0,0.0,0.0,2.8568,2.8107,0.0,0.0,0.0,0.0,2.4627,2.416,2.4013,2.4364,2.5472,2.6236,2.6591,2.7486,2.7964,2.7932,2.5381,2.3747,2.2995,1.9706,1.7828,1.7253,1.5941,1.6149,1.7603,1.7917,1.844,1.9052,1.8466,1.853,1.9101,2.01,2.062,2.0889,2.1471,2.198,2.2487,2.3012,2.3569,2.4242,2.5622,2.8425,3.1623,3.3492,3.5531,0.0,0.0,3.9295,3.9981,4.004,4.0019,3.9827,3.899,3.8762,3.8268,3.6519,3.5438,3.3902,3.0727,3.0003,2.9427,2.7842,0.0,2.5015,2.5146,2.3764,2.2681,2.2642,2.1914,2.1369,2.1273,2.0527,1.9688,1.8811,1.8593,1.7823,1.6242,1.5083,1.389,1.2578,1.0059,0.8469,0.7953,0.6041,0.0,0.0,0.0,0.0,0.0,0.0,0.0,0.0,0.0,0.0,0.0,0.0,0.0,0.0,0.0,0.0,0.0,0.0,0.0,0.0,0.0,0.0,0.0,0.0,0.0,0.0,0.0,0.0,2.8824,2.8899,0.0,2.6834,2.5732,2.4891,2.4445,2.3822,2.361,2.3967,2.4476,2.5055,2.5591,2.6455,2.6587,2.5868,2.4671,2.3364,2.1976,1.9953,1.8612,1.7868,1.7761,1.7848,1.8127,1.9058,1.9687,2.0105,2.0357,2.0588,2.0804,2.1837,2.2381,2.2708,2.3452,2.3905,2.423,2.479,2.5254,2.595,2.8101,2.9876,3.1605,3.4129,3.5832,3.7132,3.8203,3.9075,3.9693,3.9807,3.947,3.9037,3.8753,3.7925,3.7015,3.6388,3.5609,3.4353,3.2133,3.0837,2.9751,2.8588,2.7033,2.5963,2.606,2.5072,2.3902,2.2776,2.2362,2.174,2.062,2.0228,1.9893,1.9549,1.9016,1.8191,1.6978,1.602,1.4707,1.2908,1.1797,1.0588,0.9281,0.7705,0.645,0.0,0.0,0.0,0.0,0.0,0.0,0.0,0.0,0.0,0.0,0.0,0.0,0.0,0.0,0.0,0.0,0.0,0.0,0.0,0.0,0.0,0.0,0.0,0.0,0.0,2.9692,2.9841,2.92,2.9417,2.8876,2.7096,2.5979,2.5153,2.4552,2.3686,2.3172,2.321,2.3435,2.3784,2.4162,2.4775,2.4814,2.4191,2.3562,2.2706,2.1494,2.0212,1.9244,1.8602,1.8796,1.8923,1.8957,1.9777,2.0439,2.1055,2.165,2.1902,2.203,2.2859,2.3436,2.3894,2.4558,2.4974,2.5339,2.599,2.64,2.7029,2.9365,3.0416,3.1299,3.4064,3.5616,3.6589,3.7468,3.8284,3.8845,3.8756,3.8399,3.7992,3.7775,3.6953,3.616,3.5912,3.5418,3.4543,3.2882,3.1695,3.059,2.944,2.7897,2.6829,2.6848,2.5881,2.4629,2.3198,2.2737,2.1999,2.0546,2.0123,1.9908,1.9835,1.928,1.8545,1.7565,1.6873,1.5704,1.3917,1.3156,1.2168,1.0878,0.888,0.7475,0.6669,0.0,0.0,0.0,0.0,0.0,0.0,0.0,0.0,0.0,0.0,0.0,0.0,0.0,0.0,0.0,0.0,0.0,0.0,0.0,0.0,0.0,0.0,0.0,2.9987,3.0057,3.0033,2.9831,2.9702,2.9041,2.7679,2.6183,2.5188,2.4869,2.3601,2.2643,2.2119,2.2384,2.2496,2.2293,2.2465,2.2739,2.306,2.2169,2.1701,2.167,2.0426,1.9732,1.9479,1.8907,1.9202,2.0102,2.0071,2.0733,2.186,2.2263,2.2509,2.2692,2.3142,2.3711,2.4343,2.4655,2.5146,2.5728,2.6364,2.6842,2.741,2.9206,3.0099,3.0897,3.3463,3.4956,3.5836,3.6221,3.6915,3.7433,3.6982,3.69,3.6789,3.6142,3.6019,3.5873,3.5154,3.4945,3.4434,3.28,3.2561,3.206,3.0388,2.8722,2.7597,2.7594,2.6108,0.0,2.3885,2.2974,2.2085,2.1285,2.0344,1.9775,1.9688,1.9508,1.897,1.7954,1.7653,1.6959,1.5757,1.4088,1.3033,1.2722,0.9577,0.7701,0.7223,0.0,0.0,0.0,0.0,0.0,0.0,0.0,0.0,0.0,0.0,0.0,0.0,0.0,0.0,0.0,0.0,0.0,0.0,0.0,0.0,0.0,2.9893,3.0389,3.0528,3.0778,3.0651,2.9768,2.9525,2.8634,2.6636,2.5673,2.4805,2.3928,2.2766,2.2076,2.2033,2.1735,2.1709,2.2017,2.2194,2.2226,2.1996,2.1862,2.15,2.096,2.0621,2.0289,1.994,2.0168,2.0306,2.036,2.1347,2.1945,2.2251,2.2775,2.3113,2.3334,2.3407,2.3668,2.4009,2.4574,2.5246,2.5954,2.633,2.7029,2.7947,2.9179,3.0157,3.1087,3.25,3.3687,3.4609,3.4811,3.5587,3.6362,3.6399,3.6114,3.5832,3.5791,3.5463,3.5115,3.4946,3.4945,3.4471,3.2764,3.2441,3.1927,3.0307,2.8679,2.7589,2.7514,2.6048,2.4609,2.375,2.2879,2.1977,2.1078,2.0188,1.9609,1.949,1.9339,1.8855,1.7887,1.7621,1.7028,1.5975,1.5308,1.4355,1.3028,1.1863,1.016,0.0,0.0,0.0,0.0,0.0,0.0,0.0,0.0,0.0,0.0,0.0,0.0,0.0,0.0,0.0,0.0,0.0,0.0,0.0,0.0,0.0,0.0,3.0139,3.0585,3.0689,3.0761,3.0651,3.0058,2.9381,2.8329,2.6637,2.5634,2.4567,2.3216,2.2288,2.1585,2.1137,2.0855,2.0774,2.0933,2.1031,2.1072,2.098,2.1085,2.1036,2.0744,2.0711,2.0577,2.0339,2.0579,2.0704,2.0768,2.1549,2.2154,2.272,2.3011,2.3383,2.3653,0.0,0.0,0.0,0.0,2.5301,2.5914,2.6501,2.7153,2.7975,2.924,3.0142,3.0872,3.1777,3.2845,3.3686,3.3598,3.4307,3.5069,3.5009,3.4844,3.4752,3.4976,3.4836,3.467,3.4791,3.4566,3.3961,3.2618,3.2088,0.0,3.0101,2.854,2.7456,2.7411,2.5918,2.4452,2.3577,2.3011,2.2316,2.1369,2.0797,2.0412,2.025,2.0044,0.0,0.0,0.0,1.7598,1.6293,1.6118,0.0,0.0,0.0,1.2206,1.0624,0.9577,0.0,0.0,0.5521,0.6265,0.0,0.0,0.0,0.0,0.0,0.0,0.0,0.0,0.0,0.0,0.0,0.0,0.0,0.0,0.0,0.0,3.0249,3.0866,3.0586,3.0365,3.0276,3.0353,2.9227,2.8084,2.7188,2.5859,2.4407,2.2701,2.206,2.1182,1.9961,1.985,0.0,0.0,0.0,1.9666,2.01,2.0254,2.046,2.0794,2.0744,2.0726,2.0726,2.0559,2.0748,2.1162,2.1218,2.1934,2.3124,2.3161,2.3468,2.3839,2.3625,2.3797,2.4204,2.4815,2.524,2.5659,2.6678,0.0,0.0,2.9357,3.0074,3.0523,3.1319,3.2231,3.2925,3.258,3.3084,3.3639,3.3322,3.3382,3.3616,3.3954,3.4123,3.4278,3.4492,3.397,3.3219,3.2317,3.1563,3.0734,2.97,2.8303,2.7283,2.7271,2.5822,2.4414,2.3524,2.3423,2.3061,2.2035,2.1859,0.0,2.1404,2.1151,2.0919,2.0718,1.9717,1.8433,1.6934,1.6735,1.6433,1.5946,1.4607,1.3955,1.3997,1.2107,1.0856,1.012,0.7736,0.7766,0.0,0.0,0.0,0.0,0.0,0.0,0.0,0.0,0.0,0.0,0.0,0.0,0.0,0.0,0.0,2.9958,3.0585,3.0924,3.0668,3.0401,2.9978,2.9342,2.8847,2.801,2.6524,2.5629,2.436,2.2655,2.1672,2.079,1.9933,1.904,1.8812,1.9413,1.904,1.9206,2.01,2.0357,2.0595,2.0794,2.0957,0.0,2.0877,2.0924,2.0955,2.1,2.1618,2.2382,2.319,2.3611,2.3982,2.4317,2.4024,2.3967,2.4162,2.4549,2.4855,2.5171,2.6299,2.7206,2.8102,2.9315,3.0197,3.078,3.1206,3.1606,0.0,3.1927,3.2266,3.2648,3.2722,3.257,3.2617,3.3497,3.3397,3.3147,3.337,3.3368,3.2889,3.137,3.0959,3.0338,2.8764,2.7843,2.7255,2.7153,2.6206,2.515,2.4227,2.4617,2.4394,2.285,2.2574,2.2186,2.1399,2.1126,2.0937,2.0785,1.9829,1.9052,1.8563,1.8002,1.7407,1.6779,1.6581,1.5678,1.4082,1.3829,1.3086,1.1863,1.0088,0.9481,0.0,0.0,0.0,0.0,0.0,0.0,0.0,0.0,0.0,0.0,0.0,2.7051,0.0,0.0,2.9352,2.9774,3.0265,3.0347,2.9847,2.9794,2.9699,2.9507,2.8408,2.7335,2.6387,2.5261,2.3795,2.1843,2.1211,2.0529,1.9512,1.8849,1.8708,1.925,1.9053,1.9254,1.9889,2.022,2.0527,2.0794,2.0941,2.1038,2.1055,2.1087,2.1022,2.0925,2.1406,2.2173,2.3175,2.4094,2.4571,2.4742,2.4359,2.4234,2.4204,2.4328,2.4558,2.5037,2.6397,2.709,2.7637,2.9297,2.998,3.0232,3.0761,3.1117,3.1368,3.1504,3.1748,3.2002,3.2266,3.2272,3.2291,3.2624,3.2556,3.2379,3.2268,3.1974,3.1522,3.0708,3.0227,2.9537,2.8227,2.7436,2.6842,2.6377,2.5875,2.5226,2.432,2.5217,2.5285,2.3576,2.3699,2.3485,2.25,2.2167,2.1808,2.1348,2.0784,2.0114,1.9247,1.8891,1.8366,1.7674,1.7464,1.6886,1.5962,1.4964,1.4221,1.3664,1.2057,1.1288,0.0,0.0,0.0,0.0,0.0,0.0,0.0,0.0,2.551,2.6184,2.684,2.7616,2.8475,2.9027,2.9302,2.9358,2.9755,2.977,2.8877,2.9159,2.9465,2.9672,2.8065,2.6751,2.6344,2.4988,2.3288,2.1135,2.0907,2.0318,1.9065,1.8774,1.8783,1.9101,1.9133,1.9353,1.9747,2.0131,2.0509,2.0876,2.0909,2.1023,2.1183,2.1167,2.1038,2.0909,2.1198,2.1901,2.2984,2.4344,2.4893,2.4815,2.4599,2.4441,2.4317,2.4162,2.4328,2.4842,2.6277,2.6691,2.6896,2.9026,2.9557,2.9477,3.0253,3.0716,3.1095,3.1196,3.1389,3.1617,3.1929,3.2022,3.2001,3.1947,3.1805,3.1606,3.1342,3.065,3.0112,3.0018,2.9476,2.8776,2.7893,2.7233,2.6526,2.5613,2.5553,2.5307,2.4441,2.5719,2.6042,2.4296,2.4693,2.4657,2.3593,2.3217,2.2733,2.2049,2.1801,2.1136,1.9866,1.9537,1.9113,1.8554,1.8017,1.7752,1.7835,1.6133,1.5382,1.5449,1.4193,1.3354,2.1599,2.2008,2.2784,2.2999,2.3468,2.3898,0.0,0.0,2.4888,2.645,2.6785,2.7237,2.861,2.9108,2.9288,2.9166,2.9682,2.977,2.8786,2.9057,2.9227,2.8639,2.7856,2.701,2.6138,2.5046,2.3482,2.1328,2.099,2.0318,1.9065,1.8335,1.8329,1.9087,1.8716,1.9006,2.003,2.027,2.0626,2.107,2.107,2.1103,2.1103,2.1247,2.1151,2.0941,2.1809,2.2261,2.2469,2.3899,2.4404,2.4324,2.4516,2.4467,2.4317,2.4208,2.4166,2.4242,2.5335,2.5822,2.6277,2.8062,2.8753,2.9046,3.0011,3.0452,3.0634,3.0935,3.1196,3.1372,3.1617,3.1373,3.1306,3.2207,3.1483,3.063,3.0743,3.0279,2.965,2.9016,2.8846,2.856,2.7682,2.7416,2.6881,2.5603,2.5968,2.6069,2.5181,2.6413,2.6731,2.5067,2.4954,2.4595,2.3588,2.3241,2.301,2.2797,2.2096,2.1579,2.1298,2.0021,1.9369,1.9458,1.881,1.8306,1.7969,1.7918,1.7663,1.7221,1.7219,1.6013,2.3423,2.3442,2.3604,0.0,2.4161,2.4272,2.4583,2.4927,2.5461,2.6181,2.6754,2.7339,2.8225,2.8722,2.8865,0.0,2.8771,2.8791,2.7823,2.8197,2.8442,2.8084,2.7348,2.6657,2.6274,2.5244,2.3658,2.1543,2.1058,2.0318,1.896,1.8494,1.8465,1.8898,1.8885,1.9197,1.9854,2.0254,2.061,2.0924,2.1087,2.1183,2.1215,2.1262,2.1214,2.1103,2.1823,2.2401,2.29,2.3839,2.4419,2.4671,2.4601,2.4467,2.4261,2.4067,2.3982,2.4177,2.5461,2.5874,2.6104,2.7767,2.8244,2.8329,2.9153,2.965,3.0037,3.0657,3.0975,3.1157,3.1372,3.1302,3.1175,3.1411,3.0692,2.9955,2.9805,2.9293,2.8775,2.8425,2.8466,2.8283,2.7363,2.7245,2.6965,2.5964,2.6095,2.6023,2.5198,2.6068,2.6276,2.5064,2.441,2.3907,2.3534,2.3265,2.3095,2.302,2.2623,2.2166,2.1641,2.0569,1.9836,1.9491,1.8894,1.8574,1.8529,1.8284,1.8174,1.8126,1.7833,1.715,2.4829,2.4656,0.0,2.487,2.4871,2.4787,2.4962,2.5506,2.6018,2.6335,2.6882,2.7507,2.8168,2.8568,2.8587,2.7977,2.8138,2.8051,2.7278,2.7527,2.7775,2.774,2.7124,2.6612,2.6364,2.5152,2.367,2.1917,2.1243,2.0376,1.9176,1.8705,1.8581,1.876,1.9035,1.9332,1.9639,2.0185,2.0561,2.0777,2.1054,2.1215,2.123,2.1214,2.1151,2.1103,2.1515,2.1991,2.2585,2.3251,2.3893,2.4428,2.4406,2.4353,2.4261,2.3967,2.3925,2.4161,2.5238,2.5623,2.5873,2.7224,2.7576,2.7702,2.8705,2.9163,2.9534,3.041,3.0814,3.1015,3.1218,3.1351,3.124,3.0835,3.0247,2.9615,2.9127,2.8546,2.8099,2.7996,2.8164,2.8067,2.7388,2.7353,2.7171,2.6408,2.6159,2.5888,2.5352,2.561,2.5592,2.4941,2.3986,2.3407,2.3448,2.3217,2.307,2.302,2.2919,2.2574,2.1986,2.1184,2.0424,1.9732,1.9167,1.8892,1.8947,1.8624,1.8626,1.8944,1.8521,1.8401,2.5207,0.0,2.5192,2.5192,2.5196,2.5285,2.5549,2.5656,2.6084,2.7186,2.7315,2.7549,2.8666,2.8798,2.8738,2.8455,2.826,2.8096,2.7741,2.7422,2.7321,2.7575,2.758,2.7188,0.0,2.4609,2.3313,2.2515,2.1505,2.0619,1.9886,1.8984,1.8556,1.8711,1.8965,1.9236,1.9479,2.0045,2.0441,2.0693,2.0973,2.1103,2.1103,2.0958,2.0877,2.0794,2.0826,2.0842,2.0938,2.1736,2.2433,2.3017,2.3604,2.4029,2.4261,2.4067,2.3982,2.3982,2.407,2.4609,2.5426,2.6295,2.6761,2.7343,2.8962,2.9281,2.923,3.0228,3.0692,3.0975,3.1218,3.1406,3.1387,3.1011,3.0316,2.9634,2.8945,2.8346,2.7888,2.773,2.7864,2.7996,2.7979,2.7961,2.7695,2.6916,2.6171,2.5808,2.6051,2.542,2.4905,2.4805,2.3963,2.336,2.3313,2.3119,2.2944,2.2816,2.2738,2.2685,2.2588,2.1789,2.1112,2.0576,1.9905,1.9422,1.9081,1.9268,1.9535,1.985,2.0047,2.0199,2.6556,0.0,2.5915,2.6282,2.5861,2.5538,2.5874,2.6157,2.6298,2.6593,2.692,2.7211,2.7582,2.7906,2.8099,2.7988,2.8144,2.806,2.7244,2.7357,2.7351,2.6794,2.6285,0.0,0.0,0.0,0.0,2.2798,2.2125,2.1206,1.9984,1.9421,1.9018,1.8687,1.8836,1.9064,1.9435,1.994,2.0289,2.0494,2.0827,2.1038,2.1151,2.0974,2.0893,2.0877,2.0777,2.0962,2.1381,2.209,2.2797,2.3427,2.4053,2.4337,2.4416,2.4109,2.4082,2.4185,2.4541,2.5223,2.5997,2.6479,2.6804,2.7253,2.8467,2.8559,2.8568,3.0096,3.0733,3.1015,3.1218,3.1406,3.1487,3.1382,3.0455,2.9539,2.9379,2.8508,2.7748,2.7659,2.7882,2.7996,2.7836,2.7911,2.7851,2.7454,2.6888,2.6152,2.5218,2.5314,2.545,2.5351,2.4122,2.3501,2.3915,2.3418,2.2995,2.2816,2.2868,2.2868,2.2738,2.2005,2.1562,2.1452,2.0267,1.9706,1.9759,1.9518,1.9541,1.9774,2.0031,2.0215,2.7637,2.7327,2.7019,2.7047,2.6552,2.6081,2.6324,2.6311,2.6323,2.6306,2.6574,2.6773,2.6911,2.7304,2.7657,2.788,2.8015,2.7972,2.7521,2.7442,2.7291,2.678,2.6155,2.5541,0.0,0.0,0.0,2.3173,2.2464,2.1726,2.0785,1.9957,1.9383,1.8973,1.9063,1.9104,1.9176,1.9878,2.0309,2.0444,2.0745,2.0909,2.1038,2.0909,2.0844,2.0745,2.0644,2.0793,2.1225,2.1895,2.258,2.3227,2.3847,2.4225,2.4374,2.4124,2.4024,2.4085,2.4526,2.5163,2.5862,2.6112,2.633,2.6628,2.7683,2.7853,2.8111,2.9617,3.0492,3.1015,3.1196,3.1368,3.147,3.1273,3.0368,2.9471,2.9262,2.8397,2.763,2.7544,2.7766,2.7893,2.7659,2.7736,2.7631,2.7138,2.7046,2.6697,2.5844,2.5701,2.5772,2.6003,2.4633,2.3834,2.4243,2.3533,2.3003,2.2816,2.2902,2.2944,2.285,2.2348,2.1895,2.1557,2.0617,2.0012,1.9776,1.9518,1.9527,1.975,2.0001,2.0169,2.8362,2.8381,2.8261,2.7555,2.7118,2.689,2.6723,2.6379,2.6177,2.6393,2.6288,2.6227,0.0,0.0,2.7417,2.8117,2.7931,2.7878,2.8465,2.768,2.713,0.0,0.0,0.0,0.0,0.0,0.0,2.3555,2.26,2.2076,2.2176,2.0595,1.9638,1.9569,1.9567,1.935,1.8922,1.9976,2.0511,2.054,2.0711,2.0794,2.0794,2.0842,2.0726,2.0494,2.0488,2.0435,2.0497,2.1135,2.1802,2.2468,2.3126,2.3686,2.412,2.4024,2.3925,2.3839,2.3982,2.4508,2.5218,2.5275,2.5419,2.5687,2.6745,2.7332,2.7834,2.9026,3.0118,3.0952,3.1151,3.1346,3.1367,3.0779,3.0127,2.9453,2.8708,2.8074,2.7579,2.7438,2.7557,2.7642,2.7526,2.7434,2.7051,2.609,2.6653,2.7321,2.7678,2.6415,2.5808,2.6684,2.5288,2.4294,2.42,2.3508,2.302,2.2816,2.285,2.2927,2.2995,2.2816,2.2163,2.099,2.0968,2.0412,1.9257,1.9393,1.9582,1.979,2.001,2.0175,2.9042,2.8939,2.8804,2.8176,2.7906,2.7569,2.7105,2.6883,2.6648,2.6094,2.6027,2.6033,0.0,0.0,0.0,2.7273,2.7755,0.0,2.8057,2.7658,0.0,2.6848,0.0,2.5274,2.4448,2.4061,0.0,2.3097,2.2922,2.2542,2.1932,2.1239,2.064,2.0175,1.9614,1.9625,2.0292,2.0548,2.0752,2.1008,2.0605,2.0543,2.0742,2.1192,2.1077,2.0525,2.0953,2.1115,2.1075,2.1245,2.1707,2.2385,2.297,2.3259,2.3448,2.3842,2.3982,2.394,2.3982,2.4465,2.5116,2.5346,2.5447,2.578,2.7359,2.7732,2.7948,2.9508,3.0476,3.1015,3.1235,3.1385,3.1504,3.1504,3.0884,3.0091,2.9386,2.8693,2.8034,2.748,2.7438,2.7483,2.7434,2.7264,2.7004,2.6669,2.6838,2.685,2.645,2.5744,2.5551,2.6301,2.4558,2.3544,2.4015,2.338,2.2893,2.2738,2.2893,2.2995,2.2995,2.2995,2.2669,2.1971,2.1953,2.1314,2.0095,2.0223,2.0131,1.9793,2.001,2.0167,2.9548,2.9609,2.9531,2.8476,2.8259,2.8073,2.724,2.7007,2.6683,2.5929,2.5697,0.0,2.5129,2.554,0.0,0.0,0.0,0.0,2.8225,2.7768,2.727,0.0,2.6132,0.0,2.4225,2.3964,2.3578,0.0,2.2956,2.2743,2.2322,2.1725,2.1205,2.0735,2.0328,2.0373,2.0878,2.0391,2.0295,2.0558,2.0384,2.0528,2.0976,2.133,2.1455,2.131,2.126,2.1234,2.1197,2.1161,2.1537,2.2248,2.2827,2.3188,2.3451,2.383,2.394,2.3839,2.3882,2.4167,2.4529,2.4829,2.4972,2.5257,2.6659,2.727,2.7766,2.9277,3.0237,3.0895,3.1078,3.1308,3.1517,3.1651,3.1067,3.0398,3.0092,2.9386,2.8611,2.8016,2.7538,2.7201,2.7233,2.7072,2.6909,2.6759,2.6759,2.6623,2.6264,2.5815,2.5824,2.655,2.4698,2.3684,2.4382,2.3484,2.2816,2.2764,2.2893,2.2995,2.3077,2.3095,2.287,2.24,2.2382,2.192,2.0966,2.0717,2.0507,2.037,2.011,2.0124,3.0067,3.0307,3.0314,2.8544,2.8343,2.8399,2.7249,2.6747,2.6327,2.5815,0.0,2.4749,2.4609,2.4744,2.514,2.6245,0.0,2.7296,2.8461,2.7797,2.7308,2.7544,2.6596,2.539,2.424,2.4216,2.3935,2.3266,2.3093,2.2982,2.2929,2.22,2.1575,2.1091,2.1341,2.1323,2.1093,2.0128,1.9775,2.0053,2.0172,2.0588,2.1249,2.1383,2.1692,2.2086,2.1455,2.1189,2.112,2.1039,2.1432,2.2137,2.2753,2.3247,2.3618,2.3852,2.3797,2.361,2.3696,2.3739,2.3797,2.4082,2.4193,2.4441,2.555,2.6504,2.7508,2.8735,2.9823,3.0692,3.0855,3.1151,3.144,3.1479,3.1042,3.0602,3.066,2.9953,2.9128,2.8541,2.7738,2.7094,2.7009,2.6909,2.6775,2.6554,2.6554,2.6606,2.6606,2.6213,2.6196,2.6926,2.52,2.4229,2.477,2.368,2.2894,2.2816,2.2868,2.2995,2.3193,2.3151,2.2917,2.2485,2.2506,2.2182,2.153,2.0899,2.0693,2.0897,2.0225,2.0031,3.0734,3.0782,3.0789,2.8976,2.8584,2.8351,2.7304,2.6493,0.0,0.0,2.492,2.4353,2.3845,2.43,2.4849,2.5055,0.0,0.0,0.0,0.0,2.7069,0.0,0.0,0.0,0.0,2.4443,0.0,0.0,2.3922,2.3723,2.3259,2.2974,2.2311,2.1119,2.1809,2.2008,2.1657,2.1184,2.1085,2.1291,2.0272,2.018,2.0918,2.1416,2.1338,2.0872,2.1764,2.1883,2.1416,2.147,2.1859,2.2514,2.2757,2.278,2.2721,2.34,2.361,2.3494,2.3553,2.3523,2.3508,2.3782,2.3925,2.4338,2.5823,2.6623,2.7288,2.897,2.9946,3.0593,3.0781,3.0958,3.1151,3.144,3.1283,3.0989,3.0619,2.9935,2.9145,2.8271,2.7981,2.7691,2.7028,2.6825,2.6708,2.6606,2.6572,2.6606,2.6606,2.5983,2.561,2.5939,2.5128,2.4384,2.3961,2.3781,2.3448,2.2851,2.2902,2.3045,2.3193,2.3241,2.2987,2.2443,2.2467,2.187,2.0623,2.056,2.0307,1.9945,1.9911,2.0003,3.1038,3.1072,3.0884,2.8976,2.8599,2.8292,2.7172,0.0,0.0,0.0,2.5184,2.4632,2.3765,0.0,0.0,0.0,0.0,0.0,0.0,0.0,0.0,0.0,0.0,0.0,0.0,2.4394,2.4378,2.4298,2.4531,2.4247,2.3348,2.274,2.215,2.1579,2.1583,2.1657,2.1685,2.1238,2.1208,2.153,2.0944,2.1028,2.1804,2.1983,2.2051,2.2025,2.2127,2.2041,2.1786,2.1354,2.1589,2.223,2.233,2.2494,2.2731,2.3171,2.326,2.3216,2.3275,2.3216,2.3143,2.329,2.3523,2.4021,2.5387,2.6249,2.7039,2.8402,2.9431,3.0199,3.0477,3.0781,3.1055,3.1269,3.1385,3.1304,3.0967,3.0429,2.9711,2.88,2.8339,2.7845,2.7078,2.6909,2.6825,2.6691,2.6657,2.6657,2.6657,2.6253,2.6034,2.6168,2.5232,2.4462,2.4151,2.3887,2.3423,2.2684,2.2842,2.2995,2.3045,2.3168,2.3159,2.2986,2.3052,2.2587,2.1607,2.1278,2.0836,2.0265,1.9981,1.9953,3.1439,3.1349,3.0967,2.9064,2.8518,2.8162,2.7083,2.6773,0.0,0.0,2.5421,2.4861,2.3916,0.0,2.3482,0.0,2.4384,0.0,0.0,0.0,0.0,0.0,0.0,0.0,0.0,2.4423,0.0,2.4681,2.4892,2.454,2.3512,2.2448,2.1888,2.1949,2.143,2.1377,2.1737,2.1269,2.1233,2.1591,2.1458,2.1821,2.2569,2.2239,2.2346,2.276,2.2135,2.1802,2.1643,2.1312,2.1499,2.2018,2.2106,2.241,2.2859,2.2949,2.2904,2.2799,2.2904,2.2799,2.2709,2.2799,2.3113,2.3686,2.4728,2.5737,2.6667,2.774,2.8866,2.9837,3.0182,3.0576,3.0935,3.1112,3.1368,3.1559,3.1389,3.1025,3.0413,2.9382,2.8733,2.8066,2.7145,2.6975,2.6942,2.6775,2.6742,2.6742,2.6775,2.6623,2.6572,2.6606,2.5627,2.4879,2.4574,2.4147,2.3528,2.262,2.279,2.2927,2.2952,2.3144,2.3313,2.3494,2.3424,2.3142,2.2659,2.199,2.1362,2.0749,2.0263,2.0047,3.1922,3.1826,3.153,2.9503,2.8419,2.7714,2.7164,0.0,0.0,2.6072,2.5307,2.4451,2.4029,2.3392,2.3055,2.3466,0.0,2.4732,0.0,0.0,0.0,0.0,0.0,0.0,0.0,2.4754,2.4867,2.5148,2.5075,2.4737,2.4061,2.2734,2.1949,2.1793,2.1988,2.21,2.2146,2.1915,2.1801,2.1844,2.1432,2.1532,2.2146,2.138,2.0981,2.0884,2.1223,2.0992,2.0469,2.1716,2.2275,2.2377,2.2682,2.2711,2.2646,2.2646,2.2555,2.2417,2.2324,2.217,2.2123,2.2509,2.2859,2.3334,2.4283,2.5259,2.6291,2.7486,2.8688,2.9722,3.0103,3.0401,3.0651,3.0935,3.1269,3.15,3.1479,3.1507,3.1011,2.943,2.9107,2.8629,2.7164,2.6959,2.6975,2.6975,2.6909,2.6909,2.6975,2.6792,2.6691,2.6691,2.6573,2.6012,2.4781,2.482,2.4264,2.2851,2.2919,2.3045,2.3168,2.3241,2.336,2.3494,2.2909,2.2563,2.2538,2.1841,2.1205,2.0633,2.0732,2.0508,3.2404,3.23,3.1809,2.9753,2.8856,2.8205,2.7375,0.0,2.6296,2.561,2.5231,2.4694,2.3651,2.3167,2.2969,2.3198,2.3339,0.0,0.0,0.0,0.0,0.0,0.0,0.0,0.0,0.0,2.5005,2.5453,2.521,2.492,2.4784,2.3371,2.2373,2.1949,2.1949,2.1996,2.2091,2.207,2.22,2.2512,2.2265,2.2323,2.2556,2.2104,2.1568,2.1052,2.1114,2.0773,2.0154,2.1091,2.1485,2.1527,2.2016,2.217,2.2137,2.2137,2.2044,2.1949,2.2044,2.1949,2.1793,2.2137,2.2356,2.2689,2.3435,2.4625,2.5815,2.652,2.7828,2.9182,2.9649,3.0215,3.0733,3.1078,3.1351,3.1559,3.1559,3.1654,3.1418,3.0189,3.0019,2.9626,2.8081,2.7823,2.7652,2.7156,2.7087,2.7055,2.7007,2.6957,2.694,2.6892,2.6775,2.6301,2.5317,2.4978,2.4396,2.3399,2.3085,2.2952,2.302,2.3168,2.3289,2.3383,2.3236,2.2934,2.2512,2.231,2.1881,2.1272,2.0979,2.0776,3.2594,3.244,3.2071,3.0138,2.9344,2.871,0.0,0.0,2.6726,2.5492,2.523,2.4874,2.3662,2.313,2.2909,2.3017,2.2909,2.3167,2.4214,0.0,0.0,0.0,0.0,2.4131,0.0,2.4677,2.5005,2.5508,2.5324,2.5216,2.5256,2.3969,2.2951,2.2337,2.2047,2.1949,2.1996,2.2184,2.2449,2.2814,2.2826,2.2826,2.2904,2.2505,2.1951,2.136,2.1077,2.0661,2.0182,2.074,2.1033,2.1074,2.1547,2.1746,2.1793,2.1746,2.1664,2.1616,2.1793,2.1746,2.1568,2.1793,2.1949,2.2123,2.2678,2.3873,2.5144,2.55,2.7057,2.8761,2.9467,3.0172,3.0773,3.1117,3.1406,3.1596,3.1579,3.1728,3.1578,3.0692,3.059,3.0196,2.8628,2.8403,2.8111,2.7287,2.7166,2.7135,2.7089,2.7087,2.7103,2.7055,2.6908,2.6536,2.5773,2.5323,2.4812,2.4156,2.3769,2.3606,2.3632,2.3576,2.3601,2.3679,2.3624,2.3343,2.2875,2.2978,2.268,2.2045,2.166,2.1386,3.2532,3.2466,3.2082,3.0482,2.9689,2.8964,0.0,0.0,2.7037,2.6117,2.5445,2.4938,2.4278,2.3502,2.2909,2.2909,2.3017,0.0,2.3569,0.0,0.0,0.0,0.0,2.3582,2.4054,2.4505,2.4892,2.5174,2.5495,2.5612,2.5388,2.4544,2.3772,2.3007,2.246,2.2137,2.1996,2.2278,2.2463,2.2615,2.2735,2.2841,2.2873,2.2015,2.1582,2.1449,2.0941,2.062,2.0522,2.1021,2.1277,2.141,2.141,2.1568,2.1793,2.1664,2.1616,2.1616,2.1616,2.152,2.1423,2.1568,2.1616,2.1664,2.2091,2.3123,2.4202,2.4597,2.6437,2.8562,2.9708,3.0359,3.0733,3.0935,3.1269,3.15,3.1596,3.1709,3.1522,3.0657,3.0626,3.0213,2.8561,2.837,2.8144,2.7402,2.7184,2.7152,2.7282,2.7184,2.7135,2.7181,2.7135,2.6794,2.6055,2.5987,2.5734,2.5103,2.5136,2.5247,2.5384,2.4742,2.4445,2.4581,2.3937,2.3678,2.3777,2.3777,2.3478,2.2905,2.3012,2.2468,3.2261,3.2269,3.1968,3.0069,2.9603,2.9192,2.7763,0.0,2.6898,2.5623,2.5127,2.4582,2.3626,2.3142,2.2909,2.3017,2.3017,2.303,0.0,0.0,0.0,0.0,0.0,2.4628,0.0,0.0,2.4904,2.4919,2.5174,2.5481,2.572,2.5075,2.4258,2.3251,2.246,2.1996,2.1841,2.2044,2.2184,2.2324,2.2477,2.2569,2.2692,2.2309,2.1846,2.136,2.0986,2.0466,1.9899,2.0442,2.0664,2.0738,2.1032,2.1277,2.152,2.1375,2.1326,2.1326,2.1326,2.1229,2.1131,2.1277,2.1375,2.152,2.1841,2.2715,2.3884,2.5105,2.6687,2.8155,2.879,2.9727,3.0435,3.0162,3.0378,3.0717,3.0827,3.0989,3.1165,3.1369,3.1024,3.0541,3.0023,2.9092,2.8316,2.8092,2.7639,2.7373,2.7376,2.7421,2.7417,2.7417,2.7404,2.722,2.6854,2.6371,2.6036,2.5936,2.5516,2.5347,2.5517,2.5332,2.5336,2.5535,2.5404,2.5352,2.5443,2.5029,2.4262,2.3189,2.3359,2.3032,0.0,3.1773,3.1596,2.9903,2.9677,0.0,0.0,0.0,2.6987,2.5459,2.5065,2.4532,2.3412,2.3078,2.2957,2.3017,2.2969,2.2983,0.0,0.0,0.0,0.0,0.0,0.0,0.0,2.4448,2.458,2.4358,2.4664,2.5048,2.5453,2.4773,2.411,2.3512,2.2796,2.2219,2.1902,2.1949,2.2044,2.2137,2.2278,2.2417,2.2615,2.2509,2.2204,2.1744,2.1379,2.0868,0.0,2.0509,2.0588,2.0628,2.0815,2.1033,2.1229,2.118,2.118,2.118,2.118,2.118,2.118,2.118,2.1326,2.152,2.1793,2.2451,2.3425,2.4893,2.6107,2.7118,2.7794,2.8735,2.9486,2.9546,2.9909,3.0333,3.0734,3.095,3.1163,3.1334,3.1007,3.0593,3.03,2.9213,2.8403,2.8403,2.7875,2.7556,2.7771,2.79,2.8097,2.8376,2.8411,2.8331,2.8236,2.7251,2.6675,2.6777,2.6411,2.6289,2.6481,2.6242,2.6187,2.6451,2.6225,2.6181,2.6318,2.5729,2.506,2.4265,2.4162,2.3783,0.0,3.0959,0.0,0.0,0.0,0.0,0.0,0.0,0.0,2.5692,2.5205,2.4734,2.3593,2.321,2.3017,2.2909,2.2946,0.0,0.0,0.0,0.0,0.0,2.4386,0.0,2.3499,2.3904,2.4037,2.3548,2.3956,2.4421,2.4721,2.396,2.3571,2.3756,2.335,2.2748,2.1996,2.1996,2.1996,2.1996,2.2137,2.2324,2.2555,2.2555,2.2555,2.2555,2.2044,2.1664,2.1423,2.1073,2.0951,2.0938,2.0762,2.0848,2.1033,2.1033,2.1082,2.1229,2.118,2.1277,2.1375,2.1229,2.1375,2.1664,2.1949,2.2296,2.2915,2.4103,2.4879,2.5644,2.6729,2.7492,2.8174,2.8959,2.9543,3.0129,3.0866,3.1227,3.1188,3.0695,3.061,3.0368,2.9644,2.8885,2.8403,2.8403,2.7829,2.7684,2.8427,2.8595,2.8937,2.9819,2.9939,2.9922,2.9922,2.8565,2.7696,2.7704,2.7759,2.7859,2.8014,2.737,2.7085,2.7309,2.6652,2.6418,2.6603,2.6134,2.5927,2.597,2.5314,2.4702,2.9474,0.0,2.988,2.9147,2.8813,2.8625,0.0,0.0,0.0,0.0,0.0,0.0,0.0,0.0,2.2969,2.2909,2.3146,2.3404,0.0,0.0,0.0,2.5168,2.516,2.4784,2.3916,2.3949,2.3749,2.3105,2.3424,2.3826,2.4247,2.4396,2.4123,2.336,2.3427,2.3034,2.1996,2.2091,2.2044,2.1841,2.2091,2.2231,2.2278,2.2278,2.237,2.2417,2.1996,2.1746,2.1664,2.1291,2.1193,2.1242,2.1033,2.1082,2.1277,2.118,2.1229,2.1326,2.1131,2.1131,2.1229,2.1229,2.1471,2.1793,2.1949,2.2278,2.2766,2.3407,2.44,2.5349,2.5904,2.685,2.7664,2.748,2.7781,2.8219,2.8621,2.8833,2.9093,2.9609,2.9713,2.9661,2.9541,2.8885,2.8403,2.8403,2.7875,2.7761,2.8543,2.8757,2.9131,2.9969,3.0103,3.0117,3.0117,2.9765,2.9277,2.8636,2.8705,2.8588,2.819,2.8004,2.8005,2.8265,2.8288,2.8095,2.7645,2.7678,2.7436,2.6965,2.6341,2.5994,2.9315,2.9644,2.9961,2.9044,2.8872,2.8773,0.0,0.0,0.0,0.0,0.0,0.0,0.0,0.0,0.0,0.0,2.3368,0.0,0.0,0.0,0.0,2.5429,2.5253,2.4706,2.3857,2.3682,2.3304,2.2493,2.2775,2.3065,2.3412,2.3519,2.3466,2.3136,2.3013,2.2547,2.1807,2.2213,2.2166,2.1712,2.2179,2.2309,2.2137,2.2184,2.2231,2.2324,2.2091,2.1902,2.1746,2.1423,2.1277,2.1277,2.1059,2.1059,2.1158,2.1046,2.1046,2.1118,2.0594,2.055,2.0735,2.1135,2.1423,2.1616,2.2044,2.2278,2.2509,2.3038,2.3908,2.4729,2.4983,2.5803,2.6575,2.6769,2.7135,2.7568,2.8193,2.842,2.8595,2.8785,2.9093,2.9316,2.9351,2.9025,2.8801,2.8853,2.8624,2.86,2.9084,2.9545,3.0167,3.1072,3.1208,3.1288,3.1303,3.1412,3.0934,2.9616,2.965,2.9574,2.9372,2.9382,2.9368,2.93,2.9502,2.9304,2.8641,2.8465,2.825,2.7922,2.7292,2.706,2.95,3.0031,3.0475,2.9217,2.9131,2.9267,0.0,0.0,0.0,0.0,0.0,0.0,0.0,0.0,0.0,0.0,0.0,0.0,0.0,0.0,2.5182,2.5312,2.4909,2.4354,2.3522,2.3211,2.2697,2.1871,2.2111,2.2347,2.2531,2.2362,2.2472,2.2989,2.2511,2.2049,2.1607,2.2391,2.2482,2.189,2.2545,2.2574,2.2122,2.2216,2.2269,2.2184,2.2184,2.2044,2.1841,2.1568,2.1375,2.1277,2.1073,2.0987,2.0987,2.0812,2.0861,2.0858,2.0259,2.0075,2.0284,2.1116,2.1326,2.1361,2.2025,2.2239,2.2342,2.2788,2.342,2.4024,2.4276,2.4806,2.5477,2.6306,2.6798,2.7337,2.8196,2.8511,2.8486,2.7998,2.8493,2.8971,2.8886,2.9057,2.9178,2.9059,2.93,2.954,2.9659,3.0386,3.1255,3.2266,3.2439,3.2523,3.2606,3.2852,3.2344,3.0823,3.067,3.0666,3.074,3.0826,3.0677,3.0314,3.0488,3.0339,2.9785,2.9176,2.8936,2.9061,2.8248,2.7958,2.9027,3.0017,3.0803,2.8961,2.8694,2.8728,0.0,0.0,0.0,0.0,0.0,0.0,0.0,0.0,0.0,0.0,0.0,2.4995,0.0,0.0,2.5312,2.5312,2.4425,2.3734,2.3364,2.2561,2.192,2.1509,2.1651,2.1913,2.2247,2.2566,2.2711,2.2598,2.2678,2.2413,2.1676,2.2728,2.3259,2.3111,2.3362,2.3174,2.2616,2.2616,2.2484,2.2184,2.1949,2.1996,2.2137,2.1841,2.1746,2.1712,2.1568,2.1423,2.1291,2.118,2.1144,2.1131,2.1037,2.0899,2.0926,2.1299,2.1471,2.152,2.1338,2.1868,2.25,2.2236,2.2891,2.3782,2.4317,2.4782,2.5155,2.5522,2.5917,2.6261,2.6538,2.6749,2.6891,2.6894,2.7555,2.7929,2.7435,2.8374,2.8784,2.7537,2.8595,2.9506,2.954,3.0352,3.1255,3.2144,3.2387,3.2523,3.2606,3.2802,3.2809,3.2608,3.2056,3.151,3.0966,3.1066,3.1151,3.1219,3.1389,3.1496,3.152,3.0863,3.0639,3.0793,2.937,2.8791,2.9125,2.9712,3.0135,2.869,2.8877,2.9413,0.0,0.0,0.0,0.0,0.0,0.0,0.0,0.0,2.4242,2.4955,0.0,2.5757,2.6008,2.5734,2.5356,2.5066,2.4329,2.3604,2.2897,2.2406,2.1851,2.1319,2.1463,2.1588,2.1788,2.2007,2.2223,2.2452,2.2622,2.2711,2.2743,2.3339,2.3325,2.2688,2.3548,2.3601,2.2947,2.2707,2.2504,2.2374,2.2041,2.1996,2.2091,2.1949,2.1841,2.1793,2.1568,2.1423,2.1277,2.1131,2.0681,2.0127,2.046,2.0258,1.9998,2.0651,2.0853,2.0894,2.1115,2.126,2.1497,2.2047,2.2946,2.3782,2.4177,2.4605,2.4966,2.5301,2.5642,2.5901,2.6132,2.6293,2.6534,2.7059,2.782,2.8395,2.8429,2.9451,2.9881,2.8795,2.9416,3.0003,3.0022,3.056,3.1237,3.2092,3.2387,3.2557,3.2737,3.2852,3.2916,3.2948,3.278,3.257,3.2267,3.2411,3.2373,3.2063,3.2286,3.2247,3.189,3.1747,3.1487,3.1172,3.0537,3.0081,2.9022,2.9355,2.9627,2.8771,0.0,0.0,0.0,0.0,0.0,0.0,0.0,0.0,0.0,2.4562,0.0,2.5579,2.5987,2.6304,2.6488,2.597,2.5473,2.5056,2.4246,2.3455,2.261,2.2292,2.1853,2.1256,2.1336,2.1388,2.1388,2.1448,2.1728,2.2285,2.2367,2.2636,2.3175,2.3577,2.3376,2.263,2.3771,2.4015,2.3378,2.3008,2.2729,2.2528,2.2256,2.2074,2.1949,2.1996,2.1902,2.1746,2.1568,2.1375,2.1166,2.0886,2.0165,1.9344,1.9661,1.943,1.9068,1.99,2.006,2.008,2.0567,2.0496,2.0514,2.1507,2.2604,2.3601,2.4032,2.4467,2.4846,2.524,2.5492,2.577,2.6023,2.6267,2.664,2.7314,2.8142,2.8867,2.9343,3.0258,3.056,2.9631,2.9966,3.0302,3.0223,3.0542,3.115,3.2021,3.2318,3.2523,3.282,3.2884,3.2987,3.3184,3.326,3.3322,3.3382,3.3549,3.3405,3.2934,3.3167,3.3013,3.249,3.2518,3.226,3.176,3.1718,3.1325,2.8344,2.8983,2.9734,2.951,2.9416,0.0,2.9282,2.8731,0.0,2.7538,0.0,0.0,0.0,2.4977,2.5114,2.5444,2.6039,2.6503,2.6934,2.6202,2.5569,2.5532,2.4059,2.2999,2.2721,2.2091,2.1607,2.1233,2.1336,2.1388,2.1388,2.1416,2.1553,2.1925,2.2149,2.2153,2.1962,2.2946,2.3669,2.4165,2.4244,2.4219,2.4001,2.3851,2.3377,2.2705,2.2501,2.222,2.1793,2.1949,2.1841,2.1616,2.1746,2.1568,2.1113,2.0337,1.9991,1.9845,1.9318,1.912,1.9139,1.9341,1.9368,1.9351,1.9148,1.9583,2.0189,2.0041,2.1269,2.2862,2.3967,2.4467,2.467,2.4966,2.5333,2.5616,2.5654,2.6276,2.6939,2.7247,2.7973,2.8565,2.8653,2.9408,2.9484,2.807,2.9158,2.9929,2.945,3.0072,3.0867,3.1825,3.2091,3.2353,3.2606,3.2802,3.3237,3.397,3.3566,3.3364,3.3577,3.3726,3.3823,3.388,3.4031,3.4157,3.4218,3.3543,3.3294,3.3412,3.2792,3.2144,2.8156,2.8499,2.8746,2.8915,2.8991,0.0,0.0,2.8612,2.7867,2.7013,2.6388,0.0,0.0,0.0,2.5528,2.6188,2.6724,2.7075,2.7118,2.6531,2.5793,2.4951,2.4016,2.3215,2.2674,2.2169,2.1737,2.1537,2.1336,2.121,2.1083,2.1273,2.14,2.1474,2.18,2.1954,2.1873,2.2494,2.2957,2.3233,2.3943,2.4257,2.4116,2.3857,2.3406,2.2758,2.2417,2.1916,2.1423,2.1664,2.1664,2.1471,2.1423,2.1375,2.1251,2.0793,2.0165,1.9502,1.914,1.8734,1.8375,1.8521,1.8565,1.8658,1.8832,1.8948,1.9165,1.9818,2.0487,2.1336,2.2475,2.359,2.4415,2.439,2.4898,2.5448,2.5578,2.5961,2.6442,2.6994,2.7458,2.8052,2.8909,2.9504,2.9772,2.9577,2.9794,3.0082,3.0459,3.0475,3.0829,3.1642,3.202,3.2266,3.2473,3.3084,3.3626,3.4062,3.3589,3.3599,3.4266,3.3889,3.3753,3.3921,3.4074,3.4173,3.4269,3.4158,3.3934,3.3601,3.3477,3.3043,2.8014,2.8239,2.8381,2.8882,0.0,0.0,2.9321,2.8598,2.7789,2.7009,2.6387,2.5756,2.5354,0.0,0.0,0.0,2.691,2.701,2.721,2.6601,2.5749,2.4771,2.405,2.3319,2.2678,2.2285,2.1913,2.1651,2.1474,2.1233,2.1031,2.1146,2.121,2.1094,2.1411,2.16,2.16,2.1913,2.2149,2.2334,2.328,2.378,2.3923,2.3822,2.3384,2.2697,2.2378,2.1803,2.1068,2.1326,2.1375,2.1277,2.118,2.1229,2.1272,2.062,1.9934,1.9203,1.8577,1.8039,1.7614,1.77,1.7744,1.7873,1.834,1.833,1.8402,1.9391,1.9938,2.0391,2.0938,2.2343,2.3634,2.3833,2.4379,2.4984,2.5416,2.5816,2.626,2.6842,2.7273,2.7932,2.9098,2.9347,2.9499,2.9926,2.9493,2.9463,3.0395,3.0228,3.0426,3.1476,3.1839,3.216,3.2581,3.3266,3.3952,3.4657,3.4178,3.4235,3.4975,3.4379,3.4192,3.4614,3.4774,3.4895,3.4996,3.4951,3.4698,3.4318,3.428,3.3875,2.7934,2.8314,2.8801,0.0,0.0,0.0,2.9602,2.8744,2.8014,2.7937,2.6618,2.5547,2.5573,2.517,0.0,2.693,2.6445,2.6275,2.7238,2.6209,2.5369,2.5189,2.4154,2.321,2.2641,2.2469,2.2099,2.1451,2.1624,2.1561,2.1221,2.1031,2.0903,2.0903,2.0903,2.0903,2.0903,2.121,2.1514,2.1714,2.2199,2.2811,2.3628,2.3819,2.3441,2.2576,2.2576,2.193,2.0809,2.0934,2.0997,2.0997,2.0983,2.1082,2.1032,1.9608,1.9197,1.9083,1.7531,1.7015,1.7002,1.6918,1.6876,1.696,1.7393,1.772,1.8082,1.8581,1.9503,2.0262,1.9738,2.0813,2.2332,2.3351,2.3793,2.4242,2.5096,2.5917,2.6557,2.6737,2.7496,2.8312,2.9123,2.8797,2.8412,2.8489,2.7894,2.7805,2.8854,2.8991,2.9661,3.1425,3.1542,3.1943,3.302,3.3276,3.416,3.5874,3.5492,3.5357,3.5716,3.5192,3.5329,3.6193,3.639,3.6545,3.6697,3.5951,3.5708,3.5891,3.5287,3.4634,2.7895,2.8314,0.0,2.978,0.0,0.0,0.0,2.9187,0.0,0.0,2.6335,2.5547,2.5699,2.523,2.5145,2.6148,2.6262,2.6356,2.664,2.6131,2.5563,2.5087,2.4262,2.3713,2.3522,2.2848,2.2297,2.1987,2.1663,2.1285,2.085,2.0903,2.0775,2.0529,2.0529,2.0593,2.0786,2.0839,2.0955,2.1146,2.1514,2.2137,2.2884,2.3198,2.2997,2.2413,2.2413,2.1652,2.0509,2.0271,2.0207,2.027,1.9982,2.0221,2.068,1.9786,1.931,1.8976,1.8228,1.7409,1.665,1.6565,1.665,1.685,1.731,1.7652,1.8069,1.8606,1.907,1.9438,1.9641,2.0047,2.0734,2.1796,2.2989,2.3964,2.436,2.5141,2.5738,2.5799,2.6222,2.6803,2.7564,2.8097,2.8578,2.9075,2.8959,2.901,2.9551,2.9606,3.0108,3.1397,3.1445,3.1756,3.2758,3.3498,3.4418,3.5647,3.5715,3.5919,3.645,3.5326,3.5132,3.6095,3.5622,3.5735,3.6427,3.5781,3.5546,3.5758,3.5189,3.4902,2.8157,2.8624,0.0,2.9975,3.0057,2.9875,2.9914,0.0,0.0,0.0,2.6387,2.5923,2.5998,2.5408,2.5276,2.6163,2.6164,2.613,2.6422,2.6057,2.5597,2.5102,2.4492,2.3982,2.3819,2.3078,2.2482,2.2123,2.1726,2.1273,2.0786,2.0722,2.0582,2.0324,2.0205,2.0205,2.027,2.0194,2.0313,2.0518,2.0752,2.1187,2.1753,2.2384,2.2406,2.1993,2.1654,2.1072,2.0312,1.9883,1.9756,1.98,1.9585,1.9812,2.0256,1.9529,1.9165,1.8904,1.81,1.7264,1.6577,1.6436,1.6479,1.6642,1.6829,1.717,1.762,1.8186,1.8516,1.8848,1.9413,1.9632,2.0014,2.1121,2.2181,2.3148,2.3962,2.4543,2.5024,2.5427,2.568,2.6073,2.6885,2.73,2.776,2.8456,2.8633,2.8865,2.9357,2.9719,3.0268,3.1184,3.1506,3.2004,3.2969,3.3877,3.4835,3.5781,3.6038,3.6385,3.6881,3.5972,3.5878,3.6848,3.6468,3.66,3.7301,3.6342,3.6161,3.6638,3.5386,3.5116,2.8529,0.0,0.0,3.0361,3.0786,0.0,3.0588,2.9214,2.7827,2.7167,0.0,2.6606,2.643,2.5788,2.5641,2.6695,2.6142,2.5744,2.6411,2.5952,2.5439,2.5244,2.4708,2.4118,2.3734,2.3318,2.2775,2.2049,2.1788,2.1463,2.0903,2.0593,2.0259,2.0042,1.9922,1.9736,1.955,1.9539,1.9605,1.9878,1.9977,2.0096,2.0366,2.1376,2.1689,2.138,2.0676,2.0239,2.0053,1.9592,1.9344,1.9306,1.9373,1.9569,1.9737,1.8926,1.878,1.8798,1.7377,1.6765,1.6587,1.6311,1.6243,1.6186,1.6041,1.6389,1.6984,1.7474,1.7971,1.8534,1.9141,1.9465,1.9869,2.0973,2.1404,2.2008,2.3601,2.4047,2.4413,2.5382,2.5603,2.5959,2.6883,2.6647,2.6571,2.7218,2.7484,2.7844,2.8531,2.9311,3.009,3.0847,3.1571,3.2394,3.3379,3.4252,3.5147,3.6028,3.6392,3.6696,3.7069,3.6791,3.7088,3.7966,3.818,3.8405,3.8743,3.7359,3.7153,3.804,3.5893,3.5375,2.8195,2.8914,0.0,0.0,3.1151,3.107,3.0643,2.9969,2.9205,2.8511,2.7944,2.7448,2.6911,2.6538,2.6202,2.5852,2.5814,2.584,2.5869,2.5675,2.5494,2.5439,2.4892,2.4408,2.4176,2.3675,2.309,2.2457,2.2099,2.16,2.0903,2.0593,2.0205,1.9736,1.9407,1.9274,1.9208,1.9075,1.9142,1.9407,1.933,1.9528,2.0064,2.0764,2.1089,2.1014,2.0312,1.9686,1.916,1.8608,1.8238,1.79,1.7809,1.8069,1.8457,1.8188,1.8109,1.8052,1.7205,1.6552,1.5913,1.5085,1.495,1.5097,1.513,1.5893,1.6869,1.7437,1.819,1.8919,1.9273,1.9501,1.9641,1.9854,2.0634,2.1414,2.1823,2.2706,2.367,2.4523,2.4958,2.5487,2.6341,2.6878,2.7247,2.7434,2.7431,2.757,2.7883,2.8518,2.9311,3.0184,3.0948,3.1732,3.25,3.3303,3.4134,3.5112,3.5847,3.6367,3.6766,3.6481,3.6827,3.7966,3.7455,3.7602,3.8478,3.7631,3.745,3.7839,3.6926,3.634,2.8112,0.0,0.0,3.0977,0.0,3.1202,3.0999,3.0613,3.019,2.9808,2.9007,2.8126,2.722,2.6974,2.6722,2.5992,2.5988,2.6042,2.5893,2.5798,2.5647,2.5494,2.5061,2.4637,2.435,2.3969,2.345,2.2653,2.2199,2.1714,2.0967,2.0506,1.9998,1.9473,1.9142,1.8875,1.8741,1.8607,1.8674,1.8808,1.8942,1.9208,1.9802,2.0313,2.0506,2.0366,1.992,1.9336,1.8601,1.808,1.7611,1.7291,1.6884,1.7062,1.7604,1.7424,1.7576,1.7699,1.6928,1.6408,1.5913,1.5001,1.4748,1.4711,1.4626,1.5203,1.5995,1.6543,1.7377,1.8252,1.876,1.9141,1.9339,1.8892,1.9735,2.0757,2.1193,2.1929,2.2757,2.3674,2.4449,2.5124,2.5643,2.643,2.7038,2.7056,2.7038,2.7289,2.7992,2.8538,2.9248,3.0359,3.1235,3.1867,3.2297,3.3288,3.4143,3.4661,3.5505,3.6131,3.6502,3.6409,3.6799,3.7774,3.7502,3.7688,3.8446,3.7814,3.7808,3.8359,3.7417,3.6813,0.0,0.0,2.974,3.1056,3.1409,0.0,3.1452,3.1234,3.094,3.094,3.0028,2.8852,2.7654,2.7496,2.7391,2.673,2.6515,2.6379,2.6361,2.6127,2.5853,2.5605,2.5244,2.4892,2.4465,2.4261,2.3747,2.2836,2.2372,2.1815,2.1019,2.0431,1.9846,1.9274,1.8942,1.8539,1.8134,1.8134,1.8134,1.8134,1.8539,1.9008,1.955,1.9857,1.9922,1.9802,1.952,1.8887,1.8035,1.747,1.6972,1.6588,1.604,1.6116,1.6525,1.6445,1.6737,1.7093,1.6322,1.5945,1.5698,1.4928,1.4513,1.4325,1.4042,1.4419,1.5031,1.5499,1.6413,1.733,1.7992,1.8649,1.8899,1.8144,1.8771,1.9718,2.0589,2.1062,2.166,2.2799,2.3907,2.4776,2.5112,2.5798,2.6403,2.6555,2.6606,2.6991,2.8015,2.8622,2.9374,3.0432,3.1459,3.2138,3.2232,3.3482,3.431,3.4445,3.5304,3.5949,3.6259,3.6402,3.6811,3.7503,3.7703,3.8002,3.8428,3.7943,3.8158,3.896,3.7877,3.7299,0.0,0.0,3.0404,0.0,0.0,3.1925,0.0,0.0,3.1567,0.0,3.097,3.0,2.8839,2.8677,2.8513,2.8003,2.7296,2.7015,2.752,2.6737,2.6016,2.5839,2.5453,2.5118,2.4935,2.4536,2.4073,2.3497,2.2775,2.2025,2.14,2.0549,1.9781,1.9142,1.8607,1.8134,1.7608,1.7608,1.7598,1.752,1.8202,1.8818,1.9341,1.9417,1.9407,1.933,1.8856,1.7961,1.6865,1.6318,1.5674,1.4932,1.4814,1.4653,1.4471,1.4786,1.5014,1.5156,1.4861,1.451,1.4057,1.3205,1.2817,1.2626,1.2642,1.3557,1.4704,1.5332,1.6298,1.7214,1.7589,1.8022,1.8278,1.7972,1.7664,1.765,1.8514,1.9235,2.0122,2.1629,2.316,2.443,2.5213,2.5563,2.5915,2.6505,2.6606,2.6656,2.6841,2.802,2.8895,2.9042,3.0342,3.1395,3.1968,3.2806,3.357,3.4263,3.5243,3.5905,3.6208,3.6276,3.6591,3.7147,3.7374,3.7703,3.8135,3.8241,3.848,3.8851,3.8823,3.8529,2.7326,0.0,0.0,0.0,0.0,0.0,3.2454,0.0,3.216,3.212,3.1823,3.1252,3.0171,3.0007,2.9719,2.8674,2.8502,2.8292,2.7563,2.7176,2.6766,2.6099,2.5729,2.5342,2.5005,2.4664,2.4203,2.3509,2.2969,2.2285,2.1336,2.0624,1.9846,1.8942,1.8405,1.7803,1.7185,1.7185,1.7245,1.7382,1.8066,1.8731,1.932,1.9407,1.927,1.8963,1.842,1.7346,1.5999,1.5275,1.4573,1.3941,1.3478,1.3288,1.3321,1.3694,1.3845,1.3774,1.3818,1.356,1.309,1.2352,1.1945,1.1821,1.2001,1.2639,1.3483,1.4319,1.5363,1.6336,1.6615,1.7412,1.7915,1.7146,1.6967,1.6841,1.6336,1.7924,1.9913,2.1497,2.2521,2.3506,2.4828,2.5196,2.5514,2.616,2.6312,2.6647,2.7391,2.8094,2.8887,2.9895,3.0566,3.1127,3.1544,3.2538,3.3328,3.3777,3.4952,3.5745,3.5949,3.6062,3.6343,3.6771,3.7069,3.7485,3.7967,3.8223,3.8433,3.8634,3.8931,3.8701,0.0,0.0,0.0,0.0,0.0,0.0,0.0,0.0,3.2819,0.0,3.2672,3.2462,3.1627,3.1304,3.0823,2.9748,2.9765,2.9516,2.8338,2.8115,2.7697,2.68,2.6217,2.573,2.5363,2.4815,2.4203,2.3509,2.303,2.2347,2.1285,2.0624,1.9846,1.8808,1.8202,1.7577,1.6915,1.6803,1.696,1.7245,1.79,1.8504,1.9177,1.9407,1.9167,1.8554,1.7961,1.6815,1.5266,1.4318,1.3508,1.2837,1.2199,1.1974,1.2035,1.2428,1.2488,1.2438,1.2758,1.2572,1.2083,1.1765,1.1406,1.1154,1.139,1.1853,1.244,1.3233,1.4184,1.5036,1.5524,1.6478,1.7111,1.629,1.6274,1.6184,1.5175,1.7228,1.9681,2.1085,2.1605,2.2356,2.4037,2.4507,2.4939,2.577,2.6046,2.6515,2.7531,2.7888,2.8616,3.0129,3.047,3.0778,3.1325,3.2311,3.3102,3.3617,3.4655,3.5408,3.5756,3.5905,3.6105,3.6419,3.6753,3.7185,3.7757,3.802,3.8238,3.8396,3.8755,3.8674,0.0,0.0,0.0,0.0,0.0,0.0,0.0,0.0,3.3591,3.345,3.345,3.3435,3.3351,3.2379,3.1595,3.1622,3.0938,3.0477,3.0776,2.9794,2.8858,2.8352,2.7272,2.6424,2.6178,2.5043,2.4131,2.3628,2.2848,2.2099,2.1451,2.0442,1.9605,1.8808,1.792,1.7283,1.6883,1.6653,1.6694,1.6908,1.7497,1.81,1.8808,1.9152,1.8912,1.8161,1.7616,1.6311,1.4547,1.3485,1.2366,1.128,1.0979,1.0545,1.0097,1.0445,1.0592,1.0723,1.1524,1.1263,1.0706,1.13,1.095,1.0305,1.0585,1.1284,1.2118,1.2464,1.2849,1.3369,1.4391,1.5051,1.552,1.5757,1.5371,1.5089,1.5772,1.73,1.8832,1.9713,2.0289,2.1135,2.2789,2.331,2.397,2.5394,2.5828,2.6043,2.6125,2.6846,2.7703,2.8543,2.9243,3.0249,3.1624,3.1951,3.2714,3.4162,3.4462,3.4922,3.5756,3.5817,3.5949,3.6225,3.6318,3.6673,3.7334,3.7613,3.788,3.8135,3.8546,3.8762,0.0,0.0,0.0,0.0,0.0,3.2482,3.3193,3.386,3.43,3.4151,3.4151,3.4151,3.4151,3.3435,3.2704,3.2415,3.2305,3.1987,3.1109,3.0609,2.9834,2.8429,2.748,2.6539,2.5656,2.5015,2.4468,2.3849,2.354,2.29,2.1911,2.125,2.035,1.9092,1.8381,1.7506,1.6471,1.622,1.6113,1.6139,1.6919,1.7628,1.8317,1.8798,1.8697,1.8108,1.6951,1.5542,1.3905,1.217,1.1013,1.0292,0.9809,0.9414,0.9152,0.9694,0.9545,0.9197,1.0006,0.9932,0.9482,0.9563,0.9383,0.9172,0.9245,0.9744,1.044,1.1011,1.1672,1.2342,1.276,1.383,1.4732,1.456,1.4447,1.4653,1.5811,1.6673,1.7627,1.9068,1.959,2.0347,2.2062,2.282,2.3642,2.4893,2.5169,2.5484,2.6237,2.6918,2.7833,2.9003,2.9715,3.0385,3.1182,3.1708,3.2454,3.346,3.4007,3.4656,3.5441,3.5532,3.5622,3.58,3.5932,3.6301,3.6992,3.7279,3.7577,3.7827,3.8153,3.8446,2.7494,0.0,0.0,0.0,0.0,3.2256,3.3545,3.4242,3.4678,3.4769,3.4866,3.4866,3.4818,3.4382,3.3905,3.337,3.3406,3.3101,3.1981,3.1626,3.0803,2.9094,2.8074,2.6933,2.5586,2.5143,2.4584,2.3766,2.3685,2.3191,2.2183,2.1479,2.041,1.8756,1.8136,1.724,1.6141,1.599,1.5814,1.538,1.6382,1.7036,1.7482,1.8037,1.8102,1.7657,1.6196,1.4749,1.3244,1.1333,1.007,0.9336,0.8911,0.8477,0.8228,0.8842,0.8601,0.8143,0.8945,0.8958,0.8581,0.8575,0.8502,0.84,0.8359,0.8743,0.9294,0.9691,1.0346,1.1042,1.1369,1.2829,1.4203,1.3927,1.4139,1.4681,1.5864,1.6187,1.677,1.8413,1.9059,1.9839,2.1391,2.2315,2.3193,2.4287,2.4574,2.5082,2.6142,2.6718,2.7623,2.9091,2.9716,3.0261,3.0814,3.1323,3.1968,3.2705,3.3182,3.3902,3.4873,3.498,3.5189,3.5549,3.5684,3.6019,3.6533,3.6873,3.7185,3.7394,3.7792,3.7878,0.0,0.0,0.0,0.0,0.0,0.0,3.4509,0.0,3.4726,3.5318,3.5543,3.5571,3.5453,3.5258,3.4994,3.4594,3.4201,3.3832,3.3491,3.2857,3.19,3.0511,2.9157,2.7682,2.6085,2.5336,2.4548,2.3489,2.3299,2.2935,2.2181,2.1052,1.9608,1.7857,1.7132,1.6517,1.5936,1.5994,1.5663,1.4816,1.5751,1.6203,1.6315,1.706,1.7159,1.6776,1.5302,1.3944,1.265,1.1012,0.9564,0.8368,0.8215,0.7786,0.7228,0.7778,0.7758,0.7568,0.8399,0.8299,0.7962,0.8567,0.8387,0.7965,0.7955,0.8328,0.8709,0.8588,0.8909,0.9475,1.0296,1.2103,1.3769,1.3934,1.4441,1.5084,1.5917,1.5976,1.6305,1.7743,1.8658,1.9558,2.0777,2.1737,2.2623,2.3606,2.4208,2.4787,2.5676,2.6075,2.696,2.8537,2.9066,2.9666,3.0584,3.0814,3.1213,3.2042,3.2043,3.2629,3.4086,3.4153,3.4549,3.5441,3.5515,3.5694,3.5975,3.6385,3.6673,3.6834,3.7394,3.7068,2.8213,0.0,0.0,0.0,0.0,0.0,3.3517,0.0,3.5676,3.5941,3.6045,3.6114,3.6088,3.5871,3.5756,3.5711,3.5008,3.4399,3.4234,3.3491,3.2431,3.098,2.9793,2.848,2.6877,2.6104,2.5394,2.4396,2.4378,2.3937,2.28,2.1188,1.9781,1.8673,1.739,1.6369,1.5789,1.5493,1.5167,1.4907,1.5211,1.5578,1.5986,1.6298,1.6287,1.6126,1.4504,1.2998,1.1511,0.9904,0.8679,0.7711,0.7509,0.7092,0.6713,0.7431,0.7243,0.6736,0.7537,0.7524,0.7187,0.7331,0.7319,0.7248,0.7044,0.7367,0.7705,0.7318,0.7901,0.8922,1.017,1.1286,1.2279,1.3195,1.3919,1.4582,1.5299,1.5769,1.6443,1.7869,1.8475,1.9185,2.054,2.1603,2.2419,2.3039,2.3792,2.4521,2.5229,2.6399,2.7488,2.8263,2.9227,2.9933,3.03,3.0609,3.1049,3.1698,3.1807,3.2181,3.2945,3.2994,3.3387,3.4226,3.4272,3.4676,3.5503,3.6019,3.6402,3.6609,3.7091,3.6684,0.0,0.0,0.0,0.0,0.0,0.0,3.4051,3.5002,3.5897,3.635,3.6527,3.655,3.6509,3.6301,3.6148,3.6233,3.556,3.4961,3.4771,3.4002,3.2893,3.1413,3.0264,2.8884,2.7171,2.6485,2.5719,2.4575,2.4653,2.4105,2.2559,2.112,1.9907,1.8828,1.7465,1.6459,1.5733,1.5333,1.4932,1.4455,1.4743,1.501,1.5265,1.5357,1.5371,1.5294,1.381,1.2417,1.1129,0.9435,0.8124,0.7122,0.6918,0.6518,0.6245,0.6817,0.6573,0.6107,0.6732,0.6728,0.6428,0.6347,0.6382,0.6394,0.6217,0.6361,0.6504,0.6242,0.6971,0.8078,0.9182,1.029,1.1405,1.2465,1.3634,1.4701,1.5569,1.6204,1.686,1.7733,1.8371,1.9196,2.0489,2.1609,2.251,2.3236,2.3974,2.4734,2.5483,2.6596,2.7612,2.8261,2.9214,2.9886,3.0103,3.0443,3.075,3.1139,3.1257,3.1573,3.2111,3.21,3.2536,3.3416,3.3371,3.3649,3.4308,3.5423,3.6105,3.6444,3.6404,3.5927,0.0,0.0,0.0,0.0,3.2849,0.0,3.5243,3.5658,3.5856,3.6626,3.6908,3.697,3.6851,3.6568,3.6343,3.6301,3.5915,3.5515,3.5085,3.4333,3.3288,3.1877,3.0608,2.9174,2.7396,2.6731,2.5832,2.4467,2.4448,2.3681,2.1934,2.0932,1.9907,1.8641,1.7496,1.6461,1.5627,1.5216,1.465,1.394,1.4307,1.4467,1.4416,1.4349,1.4436,1.449,1.3145,1.1988,1.11,0.9424,0.792,0.6688,0.647,0.6132,0.5791,0.6027,0.5883,0.5571,0.5929,0.5879,0.5634,0.5573,0.5524,0.5462,0.5501,0.5401,0.5306,0.5382,0.6104,0.7004,0.7837,0.9363,1.0928,1.1838,1.347,1.5156,1.6241,1.6952,1.7385,1.766,1.8415,1.9382,2.0586,2.1603,2.2624,2.3766,2.4398,2.509,2.5985,2.6681,2.7405,2.8306,2.8997,2.9515,2.9842,3.0215,3.0426,3.0426,3.0568,3.0908,3.1427,3.1461,3.1851,3.2696,3.2691,3.2741,3.289,3.4505,3.5545,3.5983,3.5376,3.4927,0.0,0.0,0.0,0.0,0.0,0.0,3.4823,3.5916,3.6955,3.6789,3.6869,3.6987,3.6987,3.6811,3.6609,3.6343,3.6088,3.5711,3.5165,3.4382,3.3459,3.2362,3.114,2.9843,2.8573,2.7512,2.644,2.5456,2.429,2.317,2.2138,2.0893,1.9651,1.8362,1.7293,1.6292,1.5283,1.4861,1.4538,1.4309,1.3994,1.4095,1.4503,1.3838,1.3628,1.3723,1.2579,1.149,1.0488,0.9298,0.8017,0.6746,0.6459,0.5918,0.5445,0.5611,0.546,0.5105,0.5155,0.4956,0.4666,0.4714,0.4654,0.4596,0.4888,0.4813,0.479,0.5319,0.5605,0.6104,0.7792,0.9162,1.0463,1.2021,1.3519,1.4928,1.6212,1.7037,1.7824,1.8832,1.9021,1.9384,2.0641,2.142,2.2163,2.3198,2.4135,2.4902,2.5486,2.6367,2.7128,2.7745,2.8334,2.8811,2.909,2.9633,2.9984,3.0103,3.0231,3.034,3.0488,3.0488,3.0833,3.1616,3.222,3.2562,3.264,3.3261,3.3743,3.3964,3.4134,3.393,0.0,0.0,0.0,3.3877,0.0,0.0,0.0,3.6188,3.6827,3.7158,3.705,3.7013,3.7335,3.6951,3.6426,3.6131,3.5827,3.5362,3.4658,3.4234,3.3575,3.2477,3.1261,2.9997,2.8634,2.7484,2.6404,2.5222,2.4122,2.3152,2.2159,2.0806,1.953,1.8375,1.7048,1.601,1.517,1.4635,1.4298,1.4335,1.3867,1.3815,1.4216,1.3622,1.326,1.3175,1.2204,1.1253,1.035,0.9354,0.8099,0.6721,0.6172,0.5536,0.5003,0.5096,0.4864,0.4503,0.4332,0.4077,0.3746,0.3644,0.3527,0.345,0.3718,0.3757,0.3843,0.4466,0.4981,0.5755,0.7441,0.8949,1.0449,1.2243,1.3704,1.5157,1.6861,1.7694,1.846,1.9597,2.0151,2.069,2.1393,2.1937,2.2612,2.3577,2.4653,2.5425,2.5784,2.6446,2.7064,2.7571,2.7825,2.8125,2.8463,2.9028,2.9454,2.9665,2.987,2.988,2.9623,2.9606,2.9648,2.9623,2.9992,3.0231,3.0264,3.0526,3.1566,3.3246,3.3165,3.2882,0.0,0.0,0.0,0.0,0.0,3.5523,0.0,0.0,0.0,3.7359,3.7085,3.6899,3.7443,3.6859,3.6114,3.5722,3.5316,3.4769,3.3869,3.363,3.3198,3.2139,3.0925,2.9662,2.8168,2.7058,2.5961,2.4867,2.4072,2.3152,2.2124,2.0729,1.9477,1.8262,1.6879,1.5841,1.513,1.4475,1.4151,1.4153,1.3768,1.363,1.3786,1.3316,1.2994,1.2705,1.1961,1.1089,1.0215,0.9372,0.8142,0.657,0.5958,0.5298,0.4666,0.453,0.4277,0.3902,0.3509,0.3202,0.2856,0.2514,0.2324,0.2237,0.2351,0.249,0.2756,0.3329,0.4244,0.5392,0.6999,0.8708,1.0445,1.2268,1.3927,1.557,1.751,1.8445,1.9241,2.0385,2.1366,2.2085,2.225,2.269,2.3412,2.4367,2.5269,2.5932,2.6226,2.656,2.6947,2.7453,2.7351,2.749,2.7911,2.8381,2.8764,2.9059,2.9409,2.9355,2.889,2.8853,2.8551,2.7923,2.7867,2.7867,2.7826,2.8027,2.9509,3.2211,3.1877,3.1482,0.0,0.0,0.0,0.0,3.6206,0.0,3.5736,0.0,3.6751,3.6517,0.0,3.6561,3.6606,0.0,0.0,3.5362,3.4847,3.4137,3.3093,3.2164,3.1501,3.1086,2.9954,2.8671,2.7432,2.6178,2.543,2.5352,2.4102,2.2859,2.1777,2.0272,1.8897,1.7591,1.697,1.6097,1.5076,1.4493,1.4253,1.4153,1.3514,1.3379,1.3786,1.2806,1.2419,1.2313,1.1618,1.0742,0.9788,0.8915,0.7797,0.6473,0.6126,0.5451,0.4652,0.4042,0.383,0.3687,0.2636,0.2287,0.2187,0.1497,0.1265,0.1207,0.0937,0.1234,0.1758,0.2244,0.32,0.4523,0.6545,0.8346,1.0116,1.1925,1.4049,1.6043,1.7302,1.8654,2.0135,2.1775,2.2352,2.264,2.2784,2.35,2.4351,2.5262,2.5579,2.5818,2.6201,2.6262,2.6479,2.7096,2.6775,2.675,2.744,2.7587,2.7815,2.8222,2.8591,2.8651,2.8327,2.8017,2.7867,2.7907,2.7786,2.7705,2.7639,2.7721,2.8167,2.8948,2.9231,2.9406,0.0,0.0,0.0,0.0,0.0,0.0,3.5854,3.5857,3.6084,3.6384,0.0,0.0,0.0,0.0,0.0,0.0,3.4003,3.3219,3.2028,3.0822,3.0033,2.994,2.873,2.7297,2.5779,2.4884,2.439,2.448,2.3631,2.2626,2.1687,1.9941,1.8555,1.7562,1.6586,1.5607,1.482,1.4436,1.4154,1.3784,1.3614,1.3489,1.3416,1.312,1.2631,1.208,1.1647,1.0837,0.9759,0.8927,0.7827,0.6542,0.6057,0.5135,0.4147,0.384,0.3468,0.2963,0.2129,0.1632,0.1243,0.0385,-0.0045,-0.0284,-0.0495,-0.0196,0.0411,0.1311,0.2217,0.3505,0.6047,0.7831,0.9503,1.1673,1.3947,1.6111,1.7843,1.9368,2.0844,2.246,2.358,2.436,2.4723,2.4853,2.5121,2.6059,2.6483,2.6889,2.7235,2.7053,2.7037,2.7407,2.681,2.6448,2.6566,2.683,2.7123,2.7276,2.7233,2.7069,2.6749,2.6331,2.595,2.5683,2.6013,2.599,2.5566,2.6046,2.6451,2.6684,2.8056,2.8558,3.5514,3.6037,3.667,3.6495,3.6214,3.5992,3.563,3.5494,3.5538,3.6245,3.6125,0.0,0.0,0.0,3.4906,3.4089,0.0,3.2359,3.1131,2.9608,2.8616,2.8602,2.6969,2.5325,2.4061,2.3477,2.338,2.3614,2.2917,2.2171,2.1271,1.9671,1.8363,1.7358,1.6304,1.5456,1.4813,1.4448,1.3987,1.3636,1.3601,1.3397,1.3132,1.3141,1.2674,1.176,1.1525,1.0789,0.9637,0.8798,0.781,0.6602,0.5887,0.4911,0.3904,0.3701,0.3256,0.2517,0.1633,0.0835,0.0117,-0.0632,-0.1155,-0.15,-0.1672,-0.1467,-0.0918,0.0269,0.1266,0.2634,0.5474,0.7376,0.9157,1.1373,1.3888,1.6323,1.8156,2.0015,2.1762,2.3384,2.4743,2.5977,2.6839,2.6457,2.6302,2.6981,2.7384,2.7792,2.8145,2.776,2.7575,2.7637,2.6909,2.637,2.6149,2.6329,2.6372,2.6265,2.5878,2.5531,2.5318,2.4834,2.4351,2.3847,2.4358,2.4318,2.3692,2.4312,2.4665,2.474,2.6846,2.7631,3.7219,3.7674,3.7754,3.6546,3.6417,3.6282,3.4857,3.5054,3.5579,3.5877,3.6222,3.6476,3.6509,3.6002,3.5165,3.3991,3.292,0.0,0.0,2.8477,2.7193,2.7154,2.4554,2.2637,2.2352,2.2212,2.2233,2.2815,2.225,2.147,2.0617,1.9408,1.8177,1.6723,1.6433,1.5887,1.5053,1.4282,1.3937,1.3893,1.3216,1.2938,1.3041,1.2612,1.2169,1.1599,1.1203,1.0406,0.9416,0.8343,0.7474,0.6588,0.5756,0.491,0.4115,0.3518,0.3117,0.2595,0.1148,-0.0181,-0.1267,-0.1498,-0.1848,-0.2219,-0.2486,-0.246,-0.2109,-0.0958,0.0355,0.2041,0.4733,0.7106,0.9231,1.0989,1.4047,1.6864,1.7985,2.0539,2.3134,2.4797,2.5861,2.6942,2.8574,2.8398,2.8034,2.8047,2.8072,2.8157,2.8388,2.8011,2.7713,2.7518,2.6936,2.6569,2.6609,2.602,2.5543,2.5246,2.4791,2.4471,2.425,2.3909,2.3546,2.3161,2.335,2.3196,2.2645,2.2797,2.2907,2.3036,2.5098,2.6203,3.6576,3.701,3.7472,3.6742,3.6416,3.5995,3.5143,3.5043,3.5101,3.5053,3.546,3.5726,3.5474,3.5027,3.4376,3.3426,3.2284,3.0932,0.0,2.6245,2.3884,2.2821,2.203,2.1481,2.1287,2.0548,2.0512,2.1522,2.0769,2.0186,1.992,1.9,1.7836,1.6482,1.6132,1.5605,1.4565,1.4304,1.3948,1.3402,1.3477,1.3191,1.2683,1.2966,1.259,1.1599,1.1445,1.0713,0.9637,0.8917,0.7921,0.6759,0.6093,0.5287,0.4401,0.3807,0.3167,0.2399,0.0558,-0.0879,-0.1941,-0.228,-0.272,-0.3174,-0.3392,-0.3465,-0.3208,-0.1974,-0.0676,0.1027,0.402,0.6294,0.8317,1.0382,1.3538,1.6519,1.8249,2.0772,2.3301,2.5268,2.6678,2.7959,2.9277,2.993,3.0168,2.9817,2.9911,3.0011,2.9727,2.9363,2.8862,2.8139,2.7316,2.6766,2.6498,2.5573,2.472,2.3986,2.3538,2.3041,2.2437,2.2095,2.1672,2.1206,2.1662,2.1605,2.1023,2.1736,2.2217,2.2518,2.3433,2.4126,3.6367,3.6714,3.7109,3.6663,3.6342,3.5943,3.517,3.5147,3.5221,3.5147,3.531,3.5543,3.5707,3.4896,3.388,3.3085,3.1699,2.9814,0.0,2.4304,2.1927,2.0289,2.0105,0.0,0.0,1.9052,1.9154,1.9768,1.9577,1.9313,1.9167,1.8655,1.7693,1.6318,1.6087,1.5557,1.4517,1.4372,1.3973,1.3233,1.3406,1.3176,1.25,1.296,1.2585,1.168,1.1505,1.0779,0.9701,0.905,0.7987,0.6759,0.6321,0.5608,0.4636,0.3925,0.2938,0.1721,0.0201,-0.1129,-0.2206,-0.2706,-0.3247,-0.3751,-0.4008,-0.4155,-0.3992,-0.2743,-0.14,0.0361,0.3422,0.5685,0.7725,0.9987,1.3214,1.6308,1.8325,2.1029,2.3671,2.575,2.7397,2.8762,2.9892,3.0972,3.1499,3.0972,3.1104,3.1048,3.0511,3.0136,2.9546,2.8405,2.7594,2.6822,2.5907,2.5128,2.421,2.289,2.2531,2.1944,2.1055,2.0901,2.0489,1.9858,2.0316,2.0292,1.972,2.0415,2.097,2.1384,2.1714,2.2176]}]]